GFSSE_500_spd_000.txt.gz
Wind_Speed
17 17 16 14 15 15 14 14 15 14 15 16 17 16 14 14 15 14 13 14 12 14 12 13 13 13 14 16 17 16 15 16 19 22 22 23 23 22 22 24 24 24 22
17 18 18 17 15 15 14 14 14 15 16 16 18 18 16 14 15 14 12 13 14 15 14 14 17 17 16 18 19 18 18 21 23 26 27 26 25 21 18 18 17 16 17
16 16 15 16 14 13 15 15 15 15 16 16 18 18 18 16 15 14 13 14 16 16 16 16 18 17 17 18 20 19 20 21 23 26 23 20 20 20 17 15 13 12 13
15 13 11 12 13 14 14 16 15 14 14 15 16 19 19 17 16 16 17 16 18 18 17 16 16 18 19 18 20 20 20 19 21 22 19 17 16 16 16 15 14 13 13
12 9 10 12 13 14 15 15 15 13 13 13 15 19 19 19 19 18 18 16 21 22 21 18 18 19 21 20 21 21 19 19 19 20 19 15 14 14 14 14 14 13 13
12 11 11 12 13 15 15 16 16 15 13 12 16 17 19 20 20 20 20 21 21 22 23 21 20 19 21 20 22 23 22 21 21 20 20 18 17 17 18 19 18 19 19
13 12 12 13 14 15 17 17 17 16 15 15 13 16 19 20 22 23 24 24 24 22 21 21 20 18 20 21 22 24 24 25 26 25 24 24 24 25 24 25 25 25 25
11 12 13 12 13 14 17 17 17 18 18 17 18 17 17 18 21 24 26 24 24 20 20 20 20 20 21 22 25 26 27 29 30 30 28 29 30 31 32 31 31 31 32
12 13 12 13 14 14 16 17 17 18 20 22 22 21 22 22 22 22 24 24 24 23 21 22 23 24 26 28 29 30 32 34 35 35 34 35 36 37 38 38 38 40 40
13 14 13 13 13 14 15 16 18 19 20 23 25 26 25 25 25 25 24 24 24 25 25 26 28 31 32 33 34 34 35 38 39 41 41 42 43 42 42 42 42 43 43
13 14 14 12 11 12 13 14 17 19 21 23 25 28 29 29 28 27 27 27 27 28 29 31 32 35 37 38 39 40 41 42 43 45 47 47 48 47 46 43 43 43 43
16 15 13 10 10 9 12 14 17 19 22 24 25 26 28 28 28 28 28 28 29 30 33 34 36 38 41 43 44 47 49 49 49 50 49 51 50 49 46 45 44 44 43
19 17 13 12 12 13 16 17 19 21 23 22 23 24 25 25 26 27 27 28 30 32 35 38 40 42 44 46 49 47 45 43 44 45 45 47 47 47 46 47 46 46 46
22 17 16 16 15 16 18 20 22 24 23 21 20 20 20 21 22 24 26 29 31 34 37 40 42 45 46 45 44 41 40 40 41 43 44 45 46 46 47 48 48 49 49
22 20 21 22 21 19 18 20 22 24 24 23 21 21 22 23 25 28 30 33 35 37 40 41 42 39 38 38 37 37 37 38 39 41 41 42 43 44 44 44 45 46 47
24 22 21 23 27 26 24 24 25 27 26 24 24 25 27 28 30 32 34 36 36 36 36 35 35 35 35 36 37 38 39 40 41 42 44 45 46 49 51 51 51 52 52
22 22 22 23 23 24 24 24 27 27 28 28 27 28 31 33 35 36 36 36 35 35 35 34 34 35 35 37 38 41 42 44 46 48 49 50 51 52 53 55 56 56 56
21 22 23 23 25 26 26 24 27 28 29 30 31 34 36 38 38 38 36 35 35 35 35 36 37 39 41 41 42 44 46 48 50 52 53 54 54 54 54 53 56 57 57
22 22 23 26 28 30 29 27 28 28 28 31 35 38 39 40 38 36 35 35 35 36 38 40 42 44 45 47 49 50 50 49 49 50 53 55 57 58 59 59 58 59 61
24 26 28 32 28 28 28 26 27 29 31 34 36 37 37 36 35 35 35 36 38 40 42 44 46 49 50 50 49 49 50 51 53 56 57 60 61 63 65 66 66 65 65
29 31 31 25 26 27 28 27 30 31 33 35 35 34 34 35 37 38 39 40 42 43 46 47 47 46 47 50 52 53 55 58 60 63 65 67 68 69 71 72 74 75 76
32 32 24 22 25 26 27 28 30 32 34 35 34 35 36 38 39 40 41 43 44 45 45 46 48 49 51 54 57 60 62 62 65 68 70 72 73 74 75 77 78 80 80
28 25 22 21 25 28 28 29 30 32 32 34 35 37 38 39 39 41 42 43 43 44 45 47 48 51 55 57 62 67 70 72 73 73 74 76 78 80 81 82 83 85 86
27 27 27 28 29 29 30 32 32 33 34 35 37 38 38 40 41 42 42 43 45 47 48 51 53 58 62 67 70 71 74 79 84 84 84 86 87 88 89 90 90 91 93
27 27 28 29 29 30 31 34 35 34 35 37 37 38 38 39 41 42 45 46 49 51 54 58 63 67 71 73 75 79 82 82 84 88 91 93 94 96 95 97 97 98 99
27 27 29 30 30 31 33 34 34 35 35 36 37 38 40 41 44 46 48 50 53 57 61 65 69 71 73 76 78 81 85 89 92 94 95 95 97 96 99 99 101 102 104

GFSSE_500_spd_003.txt.gz
Wind_Speed
20 20 20 20 19 19 19 17 15 16 18 18 18 21 19 17 17 17 16 17 17 16 16 13 13 13 15 16 16 15 14 14 17 19 21 26 30 31 30 28 25 23 23
21 20 21 21 21 19 17 16 16 15 17 17 18 19 20 18 18 17 17 17 18 17 16 15 15 16 17 19 18 17 16 17 19 20 23 27 27 25 23 22 21 19 16
18 18 20 17 14 13 14 15 16 16 17 17 18 19 20 20 19 17 16 16 17 17 18 17 18 18 17 18 19 19 18 18 18 19 20 22 22 19 17 16 16 15 14
18 16 16 11 13 13 14 15 16 16 16 16 16 16 19 20 19 18 18 18 18 19 19 20 21 19 18 19 19 20 20 19 19 19 20 20 20 18 16 16 16 15 14
19 16 11 10 13 14 14 15 16 15 14 15 15 16 19 20 20 20 19 20 20 19 21 22 23 21 20 21 21 18 20 20 20 21 21 21 19 20 21 20 19 18 18
18 14 12 11 13 15 15 15 17 16 15 14 15 16 18 21 22 22 22 22 22 22 22 23 23 23 22 21 21 19 20 20 20 23 24 23 23 21 23 25 26 25 24
16 14 12 12 14 15 15 16 17 18 16 15 16 16 16 20 22 24 24 25 25 25 24 24 22 22 21 21 21 21 23 24 23 25 26 28 27 28 28 29 30 31 31
15 13 12 13 14 13 14 15 16 17 17 18 19 18 19 20 20 22 22 24 24 25 24 23 23 22 21 22 22 23 25 28 30 30 32 33 33 33 32 33 34 35 36
14 12 12 14 14 13 13 15 16 17 17 18 20 21 23 24 24 25 25 24 23 23 24 24 24 24 25 26 27 29 31 33 33 35 35 36 37 37 37 40 41 42 41
15 12 13 15 14 13 12 13 14 15 16 18 20 22 24 26 27 27 28 27 26 26 26 27 28 29 31 32 32 33 36 38 39 39 39 42 42 43 44 45 46 47 47
16 15 17 16 13 11 11 11 12 15 17 18 20 22 24 26 26 27 27 27 28 28 29 30 31 33 35 36 39 40 41 42 44 46 48 49 50 51 52 51 50 50 50
19 18 18 16 14 12 11 12 14 16 18 21 21 22 23 23 23 24 25 26 27 29 30 33 34 36 37 40 41 44 45 46 49 48 46 45 45 48 49 49 48 47 48
20 20 19 17 15 14 16 17 19 21 22 23 22 21 20 19 19 21 23 25 28 30 32 34 36 38 40 43 44 46 48 47 43 41 39 39 39 41 42 44 45 45 46
22 20 20 19 18 16 18 18 20 22 23 25 25 23 21 21 22 23 25 27 29 31 34 36 38 41 44 44 43 41 40 39 37 37 37 37 38 40 41 41 42 43 44
22 22 20 22 23 23 24 26 24 24 26 28 29 26 25 25 26 28 30 32 33 35 37 39 39 39 38 36 37 36 37 37 37 38 38 39 40 42 45 46 47 48 50
22 22 22 22 22 26 28 28 29 27 29 30 30 29 28 29 29 31 34 35 36 37 37 36 36 35 35 34 36 36 38 39 40 41 42 43 44 45 47 49 50 51 51
24 24 24 25 27 29 28 28 29 28 29 31 31 31 30 31 33 35 37 38 38 37 36 36 35 35 35 37 38 40 41 42 44 46 47 47 47 46 45 47 50 52 54
23 24 24 27 30 30 28 30 30 31 30 30 31 31 32 34 36 37 37 36 35 34 35 36 37 38 40 41 42 43 44 44 44 44 45 46 47 49 51 51 54 58 61
22 23 25 28 28 30 33 34 32 31 29 28 30 33 35 36 35 34 32 32 33 34 36 37 38 40 41 42 43 43 42 43 45 47 50 51 54 56 59 61 64 65 66
26 26 27 28 31 33 37 33 30 32 32 31 32 34 34 33 32 32 33 34 35 36 37 38 40 42 43 44 43 43 43 45 47 50 52 54 57 60 64 67 68 70 71
29 29 30 32 34 37 34 29 30 31 33 34 34 35 34 33 33 34 36 35 36 37 39 40 40 42 43 45 47 47 50 51 54 57 59 61 64 67 68 70 72 75 77
29 31 31 33 36 34 29 31 33 34 34 36 36 36 36 35 35 36 36 37 39 40 41 43 44 46 48 49 51 54 56 56 59 63 67 70 72 74 76 77 79 80 83
30 30 33 35 32 24 29 32 33 33 34 36 37 37 36 37 37 37 38 40 41 43 45 47 48 49 51 54 59 63 66 68 71 72 74 77 79 81 83 83 84 84 86
30 32 34 33 31 32 34 34 33 35 37 38 39 37 37 38 39 40 41 42 44 45 46 48 51 55 58 62 64 65 69 74 78 80 81 81 83 85 85 86 87 88 89
30 31 30 30 30 31 32 34 35 36 38 38 37 38 39 40 41 42 43 44 45 49 50 53 56 59 62 65 66 70 73 75 78 82 85 87 87 89 88 90 94 96 97
32 31 28 29 31 32 34 35 37 38 37 37 38 39 40 40 41 42 43 47 50 52 55 58 61 63 64 66 69 73 78 81 84 87 89 91 92 92 96 98 102 103 103

GFSSE_500_spd_006.txt.gz
Wind_Speed
20 20 21 21 21 22 21 20 18 16 16 17 19 18 18 19 18 18 16 17 17 18 18 17 15 14 14 12 13 14 15 13 15 15 16 16 19 22 23 21 19 17 16
22 21 21 20 21 20 17 16 15 14 14 15 16 17 17 18 18 18 16 16 16 17 18 18 17 16 16 15 16 15 15 15 15 16 16 15 16 18 18 15 14 13 12
21 19 19 18 18 16 15 15 14 14 14 13 14 16 18 18 18 18 16 17 15 16 17 15 18 18 19 18 17 16 16 16 16 16 17 16 16 16 18 17 15 14 13
22 19 18 17 13 13 14 15 15 16 16 15 13 14 14 17 17 16 16 17 16 18 18 19 20 20 21 20 20 19 18 17 15 15 17 19 18 18 17 17 18 18 16
21 18 17 15 12 13 14 15 14 15 16 15 13 13 12 14 16 17 17 18 18 20 20 20 20 21 23 23 23 22 20 18 16 16 17 20 20 18 20 19 19 20 21
21 18 16 13 12 13 13 14 13 16 17 16 15 14 14 13 17 19 20 20 22 22 22 23 23 23 23 23 24 23 23 21 18 17 19 22 23 24 25 24 25 25 25
18 16 14 11 12 14 14 13 13 13 14 15 15 16 14 15 15 17 20 22 23 24 25 24 23 23 22 22 22 23 22 21 22 21 23 26 29 30 31 30 30 30 29
18 15 12 11 14 15 13 12 14 13 14 14 15 16 17 18 18 19 20 21 21 21 21 22 21 22 21 21 22 23 23 23 25 26 28 30 32 35 34 35 34 33 35
17 13 13 13 14 14 14 12 13 12 12 13 15 16 17 18 21 22 24 23 22 22 23 23 23 24 25 26 27 27 29 30 33 33 34 36 36 36 39 41 42 41 41
20 15 15 14 15 15 13 13 12 11 12 12 14 15 17 19 21 23 24 25 25 25 26 27 28 29 29 31 31 32 34 35 37 37 39 40 41 42 45 46 45 46 47
21 17 18 16 16 16 14 12 10 11 12 14 15 16 18 19 20 21 23 24 26 28 28 28 29 30 31 32 33 35 37 39 40 41 42 44 47 46 43 42 41 43 44
22 20 21 19 17 16 15 13 13 15 17 18 18 18 19 19 20 20 21 22 23 25 26 27 28 30 31 33 36 38 40 42 43 45 46 45 41 39 36 36 36 37 37
24 22 22 21 19 17 15 15 16 18 21 23 24 23 21 21 21 21 21 22 23 25 26 28 30 32 34 36 38 41 42 43 41 37 35 36 36 35 35 34 34 35 37
24 22 24 21 21 19 18 17 19 20 23 26 28 29 27 25 24 24 25 26 27 29 31 32 33 35 37 38 39 39 38 37 34 34 33 34 36 37 38 38 39 39 40
23 22 22 21 22 22 24 24 26 28 30 29 31 32 32 31 28 28 28 29 31 33 33 34 35 37 38 38 38 37 35 34 33 35 35 36 37 38 39 41 42 43 43
23 22 23 22 23 24 23 24 27 30 31 31 31 33 34 34 32 31 32 33 35 36 36 37 36 36 36 36 35 34 34 35 36 37 38 39 39 39 39 39 41 43 45
22 23 23 22 24 24 26 30 31 33 33 32 34 34 33 32 32 33 36 37 37 36 34 32 32 31 32 33 33 34 34 36 37 39 39 40 40 39 40 43 44 46 49
23 22 23 25 25 26 27 32 31 33 34 36 33 31 30 31 33 35 37 36 33 32 30 30 30 31 32 33 34 35 34 36 38 39 41 41 42 44 45 46 47 51 52
24 21 22 23 24 26 28 30 33 36 38 32 30 31 33 34 36 37 37 34 32 31 32 32 33 33 33 34 35 36 37 39 40 41 42 45 47 49 51 53 55 57 59
26 22 22 24 27 28 30 33 36 38 32 30 32 32 33 35 37 38 38 37 37 35 34 34 34 35 37 37 38 39 41 43 45 46 48 51 53 55 57 60 63 64 66
28 26 26 28 30 32 33 35 38 33 32 33 34 35 36 36 38 39 39 38 37 36 36 37 37 38 40 42 43 43 44 47 49 53 57 59 61 63 65 68 70 71 72
29 28 28 28 31 33 35 35 34 33 33 33 35 35 37 39 41 41 38 36 37 39 40 40 41 42 44 46 48 51 52 52 56 59 60 62 63 65 67 69 71 73 75
29 29 29 31 32 35 39 36 31 32 37 37 37 38 40 41 40 38 38 39 40 41 42 43 44 47 48 51 55 61 64 65 66 62 62 65 67 70 71 74 77 79 82
30 30 30 31 34 37 36 31 31 35 37 37 38 40 42 41 41 40 40 40 41 42 43 46 50 51 54 58 61 64 66 70 73 72 70 72 73 75 77 79 82 84 87
29 30 30 32 34 34 33 34 35 37 38 39 40 41 40 40 40 41 40 41 43 46 50 52 54 57 60 63 65 67 69 71 74 78 77 78 79 81 83 86 89 90 92
30 31 31 32 34 36 36 38 39 39 39 40 41 41 39 39 38 40 42 44 48 50 52 55 58 61 63 65 68 70 73 76 78 80 82 82 84 87 90 92 95 96 99

GFSSE_500_spd_009.txt.gz
Wind_Speed
17 18 18 19 20 20 20 17 13 13 13 14 15 16 17 15 15 15 14 13 14 16 17 18 17 17 15 16 15 14 15 15 14 13 14 14 12 13 14 16 14 12 9
20 20 18 18 19 19 18 14 12 11 11 12 13 15 15 15 14 15 14 13 14 14 15 16 17 17 16 17 19 19 18 17 15 15 13 13 12 13 13 11 12 11 11
20 18 17 16 17 17 15 13 12 11 10 12 13 13 13 16 17 16 15 15 14 13 14 15 16 17 19 19 21 20 19 19 19 17 15 15 15 13 14 14 12 12 11
22 20 17 15 16 15 13 13 13 10 9 11 11 12 13 14 15 16 15 14 14 14 15 17 18 19 21 22 21 20 21 22 22 19 17 18 17 16 16 17 16 15 15
22 20 17 15 16 14 12 12 12 11 11 10 10 11 12 10 12 15 16 16 15 16 17 18 19 19 21 21 22 23 23 24 24 23 20 20 20 19 20 20 21 21 21
22 19 17 14 15 13 12 12 12 11 11 12 11 12 12 12 11 12 17 19 19 19 20 21 22 23 23 23 24 24 26 26 26 24 23 23 24 21 23 26 26 27 26
22 16 14 16 15 13 12 12 12 12 12 12 11 12 13 14 14 15 16 17 19 21 22 23 23 23 23 23 24 25 25 25 23 23 25 26 27 27 27 31 33 32 32
19 15 17 17 16 13 13 12 12 13 12 12 12 13 13 15 16 18 20 20 21 22 22 23 23 23 24 26 25 25 24 25 25 26 27 29 30 32 32 33 35 36 36
17 17 17 17 17 15 14 12 14 13 11 10 10 12 13 14 17 18 20 22 24 26 26 26 26 27 26 26 26 27 28 29 30 31 32 33 35 36 36 37 38 39 41
17 21 17 19 18 17 15 13 14 13 11 9 10 11 12 13 14 16 19 21 24 26 27 27 27 27 28 29 29 30 31 32 34 34 36 38 40 40 42 42 43 46 45
21 23 20 20 21 18 17 15 15 15 13 12 13 14 14 15 16 17 18 18 20 22 24 25 26 27 28 29 31 32 33 34 35 37 40 42 44 44 45 44 42 39 37
22 22 22 22 23 20 18 16 16 16 16 17 18 18 19 20 20 19 20 21 21 21 22 22 24 26 28 30 31 33 34 36 38 40 41 43 43 39 36 35 34 33 33
24 24 24 24 26 23 21 19 18 18 19 20 22 26 27 26 25 24 23 23 24 25 25 26 27 28 30 32 34 35 37 37 38 37 36 36 36 34 33 32 32 32 32
25 24 24 24 25 25 22 22 20 19 22 24 25 28 31 31 31 29 27 27 28 29 29 30 32 33 34 35 36 36 37 37 36 34 33 33 34 35 34 35 35 36 37
24 24 24 24 25 25 25 26 25 25 25 27 26 30 32 33 34 34 33 31 30 31 32 35 36 36 37 37 38 36 36 35 34 34 35 35 36 36 37 38 39 40 40
22 24 24 25 25 25 27 27 26 25 26 29 30 32 33 34 37 36 34 32 33 35 36 37 37 34 33 32 32 32 31 32 35 36 36 36 37 38 39 39 41 42 43
25 24 25 25 24 25 26 26 25 27 29 31 30 34 36 33 29 32 32 32 35 36 37 36 34 32 30 30 30 31 32 33 35 38 38 40 41 41 41 42 43 45 48
25 24 25 24 25 25 25 24 24 26 29 30 33 36 31 29 29 29 31 32 35 36 36 35 34 34 34 33 32 33 34 36 37 38 40 41 43 44 45 47 49 50 51
25 25 24 22 24 23 22 23 25 27 30 33 35 30 29 30 30 32 33 34 36 37 36 35 36 35 35 34 35 36 37 38 39 41 42 44 46 48 51 53 56 58 59
27 26 25 23 22 21 23 25 26 29 31 33 30 29 32 32 35 36 36 38 40 39 36 34 34 36 36 37 37 37 39 41 42 44 46 50 53 55 58 60 61 63 64
28 27 26 25 23 22 25 28 30 30 33 31 30 31 34 37 37 37 39 42 41 39 37 37 37 38 39 39 39 40 43 47 48 51 55 57 60 62 64 66 67 68 69
28 27 26 27 25 25 27 30 31 33 34 30 30 34 38 40 39 40 42 41 39 39 40 40 39 39 42 44 45 47 47 49 53 56 60 62 64 65 67 69 71 73 75
28 27 27 27 27 29 30 31 33 34 29 28 32 36 38 40 41 42 42 42 40 39 39 40 42 43 46 50 53 56 58 60 60 60 62 65 67 68 71 73 75 77 79
28 27 28 27 28 30 30 31 31 30 30 31 34 37 40 42 42 43 41 40 40 40 41 44 47 50 52 54 57 61 66 71 73 71 69 69 71 73 74 75 78 81 83
27 27 27 28 30 30 30 31 31 31 35 38 39 40 40 42 43 40 40 40 41 43 45 48 50 53 56 58 62 64 66 69 72 76 77 77 77 76 77 78 81 84 87
27 27 27 28 30 30 32 33 34 36 37 38 38 39 40 40 39 40 40 42 44 46 48 50 53 55 59 62 65 68 71 72 73 75 77 78 80 80 82 84 88 93 96

GFSSE_500_spd_012.txt.gz
Wind_Speed
14 15 16 16 16 16 16 17 14 11 10 9 10 11 13 13 14 14 14 15 15 15 17 18 18 18 18 18 19 19 20 20 20 20 17 17 16 14 12 11 9 10 10
17 18 18 16 15 15 16 16 13 11 10 8 8 8 11 11 14 15 16 17 16 15 16 16 17 18 20 20 20 22 23 23 24 22 20 18 18 16 15 13 13 10 10
18 19 20 18 16 15 16 14 12 11 11 10 9 10 9 10 14 17 19 19 18 16 16 16 16 16 18 20 22 23 25 24 25 23 22 21 20 19 19 17 16 15 12
20 19 20 18 16 16 15 14 11 12 11 10 9 8 10 11 12 16 20 20 19 17 17 17 18 18 19 20 23 24 26 26 26 26 26 25 23 22 22 22 21 19 19
22 20 18 17 17 17 16 13 11 12 11 13 11 10 11 11 10 14 19 20 20 20 19 20 20 21 22 22 23 24 26 28 29 29 30 27 25 25 24 23 23 23 23
21 20 18 18 19 18 16 12 11 12 12 11 12 13 14 14 13 14 13 19 22 24 24 24 25 25 26 27 28 28 28 28 31 30 30 28 28 28 28 28 28 28 28
19 18 19 18 19 19 16 13 11 12 13 12 14 13 14 15 16 18 18 18 19 20 23 24 25 25 27 28 30 29 29 28 29 29 28 27 29 32 31 33 32 33 33
19 18 19 20 20 19 17 15 13 13 13 13 13 13 15 16 17 18 20 21 23 23 24 25 25 26 27 28 28 28 29 29 29 29 30 29 30 32 33 35 36 37 37
17 17 19 21 22 21 19 16 15 14 13 12 12 12 12 13 14 16 19 21 22 24 26 28 28 29 30 30 29 30 30 31 32 33 34 35 35 37 39 39 39 40 41
19 18 20 22 22 21 21 18 16 15 13 14 12 10 11 12 11 13 14 16 19 21 23 25 27 29 31 32 32 32 33 34 34 36 37 38 39 40 41 42 43 45 46
18 19 22 25 24 24 23 20 18 16 16 16 14 14 14 15 17 17 17 18 19 20 21 22 23 25 27 29 31 32 33 34 35 36 38 39 41 42 43 43 44 45 43
20 21 22 28 26 25 24 21 21 19 19 18 16 17 18 20 22 22 22 23 23 23 25 25 25 26 27 29 31 32 33 35 36 37 39 41 41 41 40 38 37 35 35
21 22 22 27 29 26 26 23 23 21 20 21 21 24 26 30 31 31 30 27 28 28 29 30 30 30 31 33 35 36 36 36 37 38 39 39 38 38 37 35 34 35 36
26 23 21 24 29 26 27 27 25 24 23 24 23 26 29 31 29 32 34 33 31 32 31 32 33 35 36 37 38 39 39 39 38 38 38 35 35 35 36 37 39 39 39
25 26 24 21 26 27 28 28 27 28 27 26 25 27 28 29 31 34 36 36 36 33 32 32 35 37 36 37 36 35 35 35 35 34 34 35 35 37 38 40 41 43 43
26 26 25 25 25 23 26 27 28 30 28 27 28 29 31 31 30 32 31 29 30 33 33 33 36 37 35 34 33 33 34 34 35 36 37 37 38 39 41 42 43 44 46
26 26 26 27 27 25 24 25 27 31 29 27 28 28 27 32 28 26 27 27 27 30 32 33 35 36 35 34 34 35 35 36 37 38 40 41 41 42 44 45 46 47 48
24 25 24 27 27 26 25 25 24 27 25 27 27 28 30 29 24 25 26 28 30 32 33 36 38 38 36 35 35 36 37 38 39 41 42 43 44 45 47 48 49 50 51
26 26 25 25 25 24 21 23 23 24 24 26 26 28 29 26 25 27 29 33 33 35 38 40 40 39 36 37 38 39 40 40 42 43 44 46 47 48 50 53 55 57 60
27 28 26 24 24 24 23 22 23 23 26 27 28 30 29 28 29 32 34 37 37 39 40 41 42 41 38 38 39 40 41 41 43 44 47 49 52 54 57 60 62 64 66
29 29 27 23 25 28 24 22 22 24 28 28 32 32 31 28 32 35 38 39 40 40 40 43 44 43 41 39 39 41 43 45 47 50 53 55 58 61 64 66 68 69 69
29 28 27 26 26 29 26 24 25 27 28 30 31 28 28 30 34 37 40 41 42 42 44 43 40 39 41 42 43 45 45 48 51 54 57 60 63 64 66 68 70 71 73
30 29 29 27 26 27 28 27 29 28 29 28 26 27 30 34 37 40 41 42 43 43 40 38 40 42 44 47 49 51 53 53 54 55 58 61 64 65 66 68 70 71 73
30 30 30 28 27 28 29 30 30 30 28 29 29 32 36 38 40 40 42 43 42 39 40 41 43 45 47 49 54 58 62 65 66 65 63 64 65 67 67 67 68 70 73
29 29 28 28 28 29 32 31 31 29 30 31 33 37 39 39 40 42 43 41 40 41 42 45 48 50 52 55 57 60 65 68 71 75 74 72 66 63 64 68 72 76 80
30 29 29 28 29 30 33 33 31 31 32 34 37 40 40 40 42 42 40 41 43 43 45 47 50 52 55 58 63 65 67 70 71 72 73 73 75 73 74 75 80 84 88

GFSSE_500_spd_015.txt.gz
Wind_Speed
14 14 14 14 16 16 17 18 17 16 14 12 10 9 9 10 10 12 15 16 16 17 17 20 20 21 21 20 20 22 22 22 22 22 22 22 21 20 19 18 17 15 13
15 15 15 16 16 16 17 18 17 16 14 12 11 11 11 11 11 13 16 17 19 19 19 20 21 22 23 23 23 23 24 24 24 26 26 26 25 24 23 20 19 17 15
18 17 17 18 17 17 17 18 18 15 12 12 10 11 11 11 11 14 16 19 20 21 21 21 21 21 21 22 24 25 26 25 27 28 29 29 27 27 26 24 21 21 19
20 18 19 20 20 19 18 17 16 14 12 13 12 11 11 12 12 15 17 20 21 22 23 22 21 21 21 21 23 24 26 27 30 31 31 31 29 29 28 26 25 24 23
21 20 20 22 21 20 18 17 16 15 13 12 12 13 12 13 15 12 13 17 20 22 22 22 22 23 23 24 25 26 27 28 30 31 32 33 32 31 30 30 29 27 26
21 22 22 21 20 19 18 17 16 14 13 12 13 13 12 14 17 16 16 15 16 18 24 25 26 26 27 28 29 30 31 32 33 33 32 34 34 33 32 34 32 30 29
21 21 21 20 20 20 18 17 16 15 13 12 13 13 13 14 16 17 17 18 20 20 21 22 23 25 26 27 28 29 30 32 32 32 32 31 31 33 31 33 35 35 35
18 18 19 20 20 20 19 18 17 17 14 13 13 12 12 13 15 17 19 19 20 22 24 26 27 28 28 29 29 30 31 31 32 32 32 33 32 33 33 33 34 37 37
17 16 17 19 21 21 21 19 18 18 17 15 14 12 12 10 10 12 14 17 18 20 23 26 27 29 30 32 33 34 34 35 35 35 35 35 36 36 37 39 39 41 43
16 17 19 21 22 23 22 21 21 20 18 17 15 14 13 11 11 11 14 16 18 19 21 22 24 25 27 28 31 33 35 37 38 38 38 38 38 39 40 41 42 42 43
19 18 17 20 23 24 23 23 23 22 20 18 17 16 16 15 15 17 21 22 23 22 23 24 24 25 27 28 29 30 32 34 35 36 37 38 38 38 40 42 43 44 44
21 21 19 20 22 26 26 25 25 24 22 20 20 19 19 19 20 24 27 30 30 28 28 28 28 29 30 31 32 33 35 36 37 38 38 39 40 41 41 42 42 41 40
23 20 22 23 23 25 29 26 27 26 25 22 21 21 23 23 26 30 33 33 33 34 33 32 32 31 32 34 35 38 39 39 39 41 41 41 42 43 42 41 40 38 37
24 22 26 26 24 25 26 28 27 27 25 25 23 24 25 25 29 33 34 36 36 36 36 36 34 33 35 37 38 39 39 39 39 39 40 39 40 40 40 40 41 40 41
22 28 29 27 24 23 23 25 26 26 26 27 27 27 27 29 30 34 33 33 34 34 32 28 28 30 34 35 36 37 37 36 36 36 37 37 37 37 39 40 40 42 44
22 27 28 27 26 24 24 24 25 25 26 28 28 27 30 30 30 30 32 31 27 25 26 27 29 31 33 36 37 38 38 38 37 37 38 38 39 39 41 41 42 42 44
23 29 29 29 27 27 25 23 23 24 25 26 27 26 28 29 28 31 30 26 25 25 28 30 31 32 35 37 38 38 38 38 38 38 40 40 41 43 44 44 44 45 46
25 28 30 29 26 28 25 24 23 24 24 25 25 26 28 29 29 31 26 24 26 28 32 33 35 36 38 39 41 40 39 40 41 41 42 43 44 45 46 47 48 49 50
27 27 30 30 26 25 24 26 24 24 24 24 26 27 28 29 30 31 30 29 31 33 36 36 37 39 41 42 44 43 41 41 42 43 44 45 46 47 49 51 53 54 56
29 29 29 29 26 23 24 27 25 23 24 25 27 28 29 31 32 32 28 31 33 36 39 41 43 43 42 42 43 42 40 40 42 44 46 48 50 51 54 56 58 59 61
29 32 30 30 27 24 26 29 27 25 24 26 26 28 30 33 29 27 30 33 36 39 42 43 45 45 43 38 36 39 41 43 45 47 50 52 55 57 59 61 63 65 66
30 32 32 31 30 27 28 30 28 27 27 27 27 29 30 28 26 28 32 36 39 41 42 45 47 42 37 38 40 41 42 45 48 51 54 56 59 61 64 66 67 69 69
31 28 32 32 29 28 27 29 31 31 30 30 31 30 31 31 30 33 37 39 40 42 45 47 42 39 41 43 44 45 46 47 50 51 56 60 63 65 66 67 67 67 66
34 30 30 33 32 28 29 29 30 32 33 33 34 33 35 34 34 38 40 41 42 45 47 43 42 43 44 46 48 51 54 57 60 58 57 60 64 66 66 65 64 65 66
34 33 31 32 32 30 29 30 30 32 33 35 36 36 37 37 39 41 42 43 45 46 45 44 44 46 47 49 51 55 59 63 66 67 65 65 64 62 61 62 65 69 72
34 33 31 30 30 29 31 31 32 33 36 37 38 39 40 41 42 43 43 45 46 44 44 45 47 48 50 53 57 62 64 67 68 71 72 72 71 66 66 67 72 77 82

GFSSE_500_spd_018.txt.gz
Wind_Speed
15 13 12 13 13 13 15 17 18 18 18 17 15 13 11 11 11 12 13 13 15 15 17 17 19 21 22 23 23 22 22 22 21 22 23 23 23 23 23 23 22 20 17
14 16 16 15 15 15 15 15 18 18 18 16 15 13 11 11 10 12 12 13 15 16 18 18 20 21 23 24 25 25 24 24 24 25 24 26 26 26 26 25 24 22 21
16 17 17 17 17 16 17 16 17 17 17 15 14 13 12 11 11 11 12 14 16 17 19 20 21 21 21 22 22 24 23 24 26 26 26 28 29 29 29 28 26 25 25
17 16 18 19 18 18 17 17 17 16 15 14 12 12 11 10 10 11 11 13 17 19 20 21 21 21 21 21 21 23 24 25 26 27 27 29 31 32 31 30 28 27 28
19 18 19 20 20 20 19 17 16 15 15 14 11 10 10 10 11 12 13 12 12 13 16 20 21 21 21 22 23 24 25 27 29 29 30 31 31 32 34 32 31 30 31
20 20 20 21 21 20 18 18 16 16 14 13 12 11 12 13 12 12 12 15 16 17 16 16 19 23 26 27 27 28 28 30 30 32 32 32 32 32 32 33 33 32 33
22 21 22 22 21 19 17 17 18 17 15 13 12 12 11 11 12 12 13 15 17 19 20 21 22 23 25 26 27 28 28 29 29 30 30 30 31 31 31 32 32 32 32
22 21 22 21 20 19 18 18 18 18 17 15 13 12 11 11 12 12 13 14 17 19 20 22 23 25 27 29 31 32 31 33 33 33 33 33 33 33 33 33 34 35 35
20 20 19 19 20 20 20 20 20 19 19 18 14 13 12 12 11 10 10 10 12 14 16 19 21 23 24 26 28 29 31 33 34 35 36 36 37 37 38 38 38 37 39
19 20 20 20 20 21 21 21 22 21 21 19 16 16 15 14 13 13 15 15 18 18 20 21 22 23 24 25 25 26 27 28 29 30 31 33 34 36 37 37 38 38 39
19 19 22 20 17 19 21 22 23 23 22 20 19 18 17 17 16 17 19 20 23 26 28 28 28 28 28 28 28 29 29 31 32 34 35 35 36 36 37 38 38 40 41
21 21 20 22 21 20 21 24 24 24 24 23 22 21 20 20 18 20 23 25 29 31 34 37 35 32 34 33 32 32 32 34 35 36 37 37 39 40 42 42 42 42 42
25 22 24 25 24 24 23 22 25 25 25 25 25 24 22 21 21 22 25 29 32 34 36 36 35 35 36 35 34 34 34 35 37 36 36 36 37 37 38 40 40 40 41
29 25 25 25 28 27 24 23 22 26 26 26 27 27 25 22 23 25 28 30 33 36 34 32 30 31 29 31 33 34 36 37 36 37 36 36 35 36 36 36 37 38 39
27 27 29 29 31 31 27 24 22 23 25 25 29 29 26 25 27 29 30 31 32 32 30 25 23 24 27 28 30 31 33 36 36 36 36 37 37 37 36 37 37 38 41
27 27 30 31 34 32 29 25 23 20 22 24 26 28 28 27 27 29 29 30 31 30 25 24 26 28 30 31 32 34 35 36 38 38 38 38 37 38 38 39 40 41 42
26 30 27 30 34 32 30 26 24 22 22 23 25 26 26 27 26 28 29 29 31 28 26 27 28 30 33 35 37 38 39 40 41 40 39 38 39 39 40 42 43 44 44
28 28 31 30 31 32 30 27 24 25 23 24 24 25 26 26 26 27 29 30 32 31 30 30 32 34 36 39 43 43 43 43 43 41 38 38 39 40 41 43 44 45 47
31 28 31 32 31 31 29 27 25 26 26 25 25 25 25 26 26 28 31 33 34 31 31 33 34 37 40 42 43 43 43 43 39 38 38 39 41 42 44 46 48 50 51
34 31 30 32 29 29 28 28 26 26 29 27 26 25 27 28 28 31 33 35 30 29 33 35 37 38 40 42 43 41 37 35 37 40 42 43 45 46 47 51 52 54 56
35 34 32 33 31 26 29 29 28 29 31 28 26 27 28 29 30 31 32 29 29 31 34 38 39 39 41 43 41 38 37 39 41 42 44 45 48 51 54 56 58 60 60
39 35 33 33 34 30 28 31 29 29 31 29 29 29 30 31 31 31 31 32 33 35 38 40 40 42 45 44 39 38 39 43 45 45 48 51 54 56 59 61 63 64 66
41 37 34 35 35 35 32 30 29 29 30 32 31 31 33 33 34 34 35 37 39 39 42 42 43 46 46 45 42 42 43 43 44 45 49 55 59 60 63 65 67 68 69
41 42 36 37 34 36 34 30 29 30 30 31 33 34 36 37 37 38 39 42 42 44 44 44 46 47 45 44 45 47 48 51 53 52 53 56 58 62 64 66 66 66 66
41 41 38 38 37 33 34 32 31 32 31 32 33 36 38 38 40 41 43 44 46 47 46 47 48 46 44 46 47 50 53 56 60 64 63 62 63 65 66 66 65 65 65
41 41 39 40 38 35 32 32 33 33 32 32 34 36 38 40 43 43 45 46 48 47 47 48 47 46 47 49 52 55 58 61 64 68 68 66 64 66 68 66 65 67 70

GFSSE_500_spd_021.txt.gz
Wind_Speed
14 14 14 12 10 11 11 11 11 11 13 13 12 11 10 9 7 7 7 9 11 12 13 15 17 18 20 20 20 21 22 21 22 21 20 21 22 23 23 23 22 21 20
14 13 16 16 14 12 13 13 13 14 14 13 13 10 10 10 8 7 8 9 10 13 13 15 16 18 19 20 21 20 20 22 22 23 23 24 25 25 24 25 25 24 22
17 17 17 17 17 15 14 15 14 14 14 13 13 12 10 9 8 9 9 10 12 13 14 16 18 20 20 20 19 19 19 19 21 23 24 24 25 25 26 26 26 26 25
17 17 17 17 17 16 16 16 17 16 13 12 12 12 11 9 9 10 10 9 11 12 16 18 19 20 21 20 20 21 20 21 22 23 24 25 25 26 27 28 28 28 26
18 20 19 18 18 17 18 18 17 16 14 13 13 12 10 9 10 10 12 13 12 11 10 11 14 18 20 21 21 22 23 24 25 27 27 28 29 30 29 30 30 29 29
24 22 20 19 18 18 18 18 17 16 14 14 12 12 12 10 9 10 11 13 14 15 15 15 16 17 18 20 21 24 25 26 27 28 27 27 27 28 29 28 29 30 29
27 25 24 22 20 19 18 18 17 16 15 14 13 12 12 11 10 10 11 11 12 13 15 16 19 20 22 23 24 25 26 26 28 29 30 30 31 30 31 30 30 30 29
25 25 24 24 21 20 18 19 19 18 16 16 14 14 12 12 12 13 12 12 12 13 14 14 17 18 20 23 23 24 25 27 28 30 31 33 34 33 33 33 33 34 33
24 25 23 23 22 20 19 20 20 19 18 17 16 16 15 14 14 14 12 12 11 11 13 14 16 18 19 20 20 21 22 23 22 23 24 26 27 28 30 32 33 33 34
22 22 23 22 23 21 19 20 22 22 20 20 18 18 16 16 17 16 16 15 16 18 20 20 23 25 27 27 26 25 24 24 26 27 28 30 31 32 32 33 33 33 34
22 23 23 24 24 23 21 20 21 23 23 22 21 20 19 19 19 20 19 18 19 22 25 26 30 31 32 29 29 28 29 28 28 29 30 31 32 34 34 35 37 38 38
25 26 25 26 26 23 22 21 20 22 23 23 23 22 23 21 22 23 21 21 21 25 28 30 31 33 33 30 28 29 30 30 30 31 33 35 35 35 36 35 36 37 38
28 28 28 28 26 25 25 24 23 21 24 26 26 26 25 25 24 25 22 23 22 26 30 31 33 29 26 23 23 24 24 26 29 31 34 34 35 34 33 35 34 35 35
28 30 30 29 29 28 29 27 26 23 24 27 27 27 28 27 27 25 23 24 26 29 29 31 30 23 18 18 21 22 24 26 27 29 32 33 34 33 33 33 34 37 35
28 30 32 33 33 32 31 31 28 25 24 25 29 28 27 28 28 25 25 26 29 30 30 30 26 21 21 22 24 25 27 30 31 33 34 36 37 37 36 35 35 37 37
31 29 31 32 34 35 34 35 31 26 24 24 27 26 27 25 26 26 26 27 29 29 29 30 27 25 25 27 28 29 32 35 37 39 40 40 40 39 37 36 36 37 38
31 32 31 33 33 33 35 37 32 27 26 27 26 27 27 26 24 24 27 28 29 29 30 31 29 29 29 31 32 33 37 40 40 41 42 42 41 39 37 37 38 39 40
33 32 33 34 33 33 35 36 31 31 28 28 28 28 27 25 24 25 27 28 29 31 33 34 32 31 33 34 35 37 40 40 42 42 41 37 34 35 37 38 40 41 43
39 34 33 34 32 33 35 34 32 31 28 30 30 29 28 26 26 26 28 29 31 33 36 36 32 30 32 35 38 39 40 42 42 38 34 35 37 39 41 43 44 45 46
41 39 36 34 33 34 36 34 33 31 28 30 31 32 29 27 28 29 29 31 32 33 35 30 29 31 34 38 40 40 43 44 41 38 39 40 42 44 45 47 49 51 53
34 40 40 37 35 34 35 36 34 32 31 31 32 32 29 30 31 30 31 33 33 34 32 32 33 35 37 39 40 44 45 45 42 41 42 45 47 48 50 53 55 56 59
37 36 42 40 38 35 33 36 33 33 31 32 31 32 32 34 33 33 34 34 35 35 35 36 39 41 41 42 42 44 45 45 43 44 45 47 50 52 55 58 61 63 64
37 38 38 42 39 36 35 33 35 33 31 32 31 32 35 35 35 36 36 37 37 38 39 41 43 45 46 45 46 47 45 43 42 44 47 51 54 56 60 62 66 67 68
39 40 38 40 41 38 36 34 35 36 31 33 32 32 34 36 38 39 39 39 40 41 42 44 47 49 49 49 49 48 47 47 47 46 47 50 54 58 62 67 68 69 70
40 40 40 39 41 41 38 35 35 33 35 33 33 35 36 37 39 40 40 40 41 43 46 48 50 51 51 50 49 48 49 51 53 55 54 55 57 62 64 66 69 69 67
41 43 43 39 39 42 41 36 36 34 35 34 35 36 37 37 38 40 40 41 43 45 49 51 51 52 52 50 49 50 52 54 56 59 62 64 63 62 64 68 66 66 68

GFSSE_500_spd_024.txt.gz
Wind_Speed
16 15 14 16 15 14 13 12 11 10 10 9 9 9 9 10 9 9 8 7 9 12 12 13 13 15 14 15 16 17 18 19 21 21 22 22 21 21 22 23 23 23 21
17 16 16 16 16 16 15 13 12 12 13 12 10 9 9 10 10 10 9 9 9 11 14 15 15 17 17 17 17 17 18 19 20 21 23 23 23 23 23 24 24 25 25
18 19 18 18 18 18 18 16 14 14 15 14 12 10 10 10 11 10 11 11 12 14 14 16 18 18 18 19 19 19 18 18 18 19 19 21 22 23 24 24 26 27 28
19 19 20 21 20 20 18 17 17 16 16 15 14 12 10 11 11 11 12 12 13 14 16 18 20 20 20 21 20 19 19 19 20 21 21 22 24 25 25 27 27 28 28
21 19 20 21 21 20 19 19 18 17 16 15 14 13 12 12 12 12 12 13 14 15 14 12 13 14 16 18 18 20 21 23 23 24 25 26 26 27 26 26 27 28 28
22 24 21 23 22 22 21 20 19 18 17 16 15 14 13 13 13 14 13 14 13 15 16 17 17 17 17 18 19 20 20 21 22 23 24 25 25 26 26 26 27 27 28
24 23 27 26 26 24 22 20 19 18 18 17 16 16 15 14 14 13 13 13 13 13 14 15 16 17 18 19 20 21 22 23 25 26 26 28 28 29 29 29 30 30 31
25 25 25 25 25 25 23 20 19 19 19 18 18 17 17 16 15 14 14 14 14 13 13 13 13 14 13 16 18 19 20 22 23 23 22 24 24 25 26 27 28 30 31
25 26 27 26 26 24 21 21 21 20 19 20 19 18 18 18 17 16 16 15 14 12 12 13 16 17 18 20 23 22 22 21 22 22 23 23 23 24 26 27 29 30 31
27 24 26 27 26 25 23 21 21 20 20 20 21 20 20 20 20 20 18 17 17 16 18 19 21 24 27 29 31 31 29 29 27 26 26 26 26 27 27 28 31 33 35
29 25 26 28 27 25 25 23 22 21 22 23 22 22 21 22 22 22 22 21 21 20 21 21 23 26 29 30 31 29 26 26 28 28 28 29 29 31 32 32 33 35 36
29 28 27 29 28 28 28 26 23 22 21 22 23 23 24 24 24 23 23 23 23 22 23 23 25 30 29 27 25 21 22 22 24 24 26 29 29 31 32 33 35 36 33
33 30 30 31 31 31 30 30 27 25 22 22 23 26 26 27 27 27 26 26 26 25 24 25 27 29 29 22 16 15 17 20 22 22 24 27 28 30 30 30 33 33 32
34 32 32 33 35 34 32 33 31 28 26 23 23 27 30 30 29 28 28 28 27 26 26 27 29 29 29 24 21 20 21 23 24 26 27 30 32 35 36 36 38 38 35
35 35 34 33 36 37 37 35 32 31 29 26 26 29 32 33 30 29 29 29 27 27 28 28 29 29 28 27 26 26 26 27 28 30 32 36 37 40 40 39 40 40 38
37 35 36 34 35 35 37 37 36 34 33 29 28 29 31 33 31 29 28 29 29 28 28 29 30 30 30 30 30 31 31 31 32 34 36 38 39 41 42 40 39 39 38
39 38 36 35 34 35 35 36 36 36 36 32 30 29 30 31 30 29 29 29 30 29 29 31 31 32 33 34 34 34 34 34 35 37 37 39 41 41 39 35 34 34 35
39 40 38 36 35 36 36 36 36 35 37 35 33 31 32 33 31 30 29 30 30 30 31 32 32 34 37 38 34 33 35 36 38 39 40 41 41 39 36 37 38 40 41
40 42 41 38 37 38 37 35 34 37 36 34 35 33 33 34 34 32 31 31 31 31 33 33 34 35 36 31 32 34 36 39 40 40 42 44 43 40 40 41 43 44 46
41 41 43 41 40 39 38 35 33 37 37 33 35 35 35 36 36 33 33 33 33 32 33 34 34 34 33 34 35 37 39 42 42 43 45 46 45 44 44 45 47 49 51
41 42 40 44 43 42 39 36 35 35 38 36 35 36 35 35 37 36 36 35 34 33 35 36 36 36 37 37 39 40 43 44 45 46 48 48 48 47 48 50 52 54 56
42 44 41 40 45 45 42 39 37 38 38 37 34 35 35 36 36 39 38 37 37 36 38 38 38 39 40 41 42 45 47 48 49 50 51 51 50 50 52 54 56 58 60
44 44 43 40 43 47 45 41 39 39 37 36 33 33 36 37 37 38 40 40 40 40 41 41 41 43 44 44 46 48 49 50 50 50 51 51 52 55 57 59 61 63 65
42 44 45 39 43 44 45 44 41 40 38 35 35 34 37 37 37 38 39 41 42 43 43 44 45 45 47 48 49 52 53 54 53 50 47 50 53 57 60 62 65 67 70
46 45 46 41 42 43 42 44 43 41 39 35 33 36 37 38 38 38 39 40 42 43 44 46 47 48 49 50 53 54 54 54 55 54 51 53 56 58 60 62 65 67 69
51 46 46 41 44 43 42 42 44 42 43 36 34 35 39 39 39 39 40 41 43 44 45 47 49 50 51 52 54 54 55 54 53 56 59 59 60 60 61 63 66 70 70

GFSSE_500_spd_027.txt.gz
Wind_Speed
20 18 18 17 18 19 18 17 17 16 14 12 13 12 13 13 14 13 13 11 10 12 12 13 13 13 14 14 15 14 15 16 17 18 19 20 21 21 21 22 23 23 23
20 19 18 19 19 21 20 19 17 16 15 14 14 14 14 14 15 15 14 12 12 12 12 14 15 15 15 17 17 17 16 17 17 18 18 20 21 22 23 23 24 24 24
22 20 18 19 20 21 22 21 21 19 17 17 15 15 15 14 15 15 14 14 14 14 14 15 16 17 18 19 18 19 19 19 18 19 19 19 19 20 21 22 23 23 25
24 23 21 21 21 21 21 22 21 20 19 18 17 16 15 14 14 14 15 15 15 15 15 17 18 20 20 20 20 20 20 20 20 20 20 21 21 23 24 25 26 26 27
24 24 20 20 20 22 22 22 22 22 21 19 19 17 16 15 14 14 15 16 17 17 16 15 15 15 15 15 15 16 17 19 21 22 24 24 26 26 26 25 24 25 24
22 23 24 22 21 22 25 24 23 22 22 20 19 18 17 16 15 16 16 16 16 17 17 18 19 19 19 19 18 18 19 20 21 23 23 24 25 25 25 26 27 27 27
24 25 26 27 26 25 25 25 24 24 22 21 20 18 18 17 17 17 17 16 16 15 15 15 15 16 17 17 17 16 17 19 21 22 23 25 25 25 26 26 26 28 28
24 27 27 27 27 27 25 24 24 24 22 21 21 20 20 19 18 18 18 17 16 16 15 15 15 15 14 15 15 17 19 21 22 22 22 21 23 22 22 22 23 24 26
29 30 27 26 26 27 25 24 24 23 21 21 21 22 21 21 19 20 19 18 16 16 16 15 15 16 17 20 22 26 27 29 28 26 26 24 23 23 24 24 25 26 27
28 30 28 27 26 28 27 25 24 24 21 20 20 21 23 23 22 21 21 19 19 18 18 18 19 21 21 23 26 29 32 33 32 32 29 30 28 26 27 28 30 29 31
31 30 30 28 28 28 27 27 25 24 24 22 22 22 23 24 24 23 23 22 22 22 22 23 23 24 24 26 30 29 29 28 26 26 27 29 29 27 28 30 32 31 32
34 32 31 31 29 29 28 28 28 26 26 24 22 22 22 24 25 25 24 24 24 25 25 26 27 27 26 27 28 27 21 18 19 20 21 23 25 25 26 28 30 27 29
36 34 32 32 32 32 32 30 32 29 28 26 24 23 24 26 27 27 27 27 27 28 28 28 29 28 28 29 27 27 24 22 20 21 23 23 24 26 27 30 33 33 35
39 37 36 35 34 34 35 34 34 29 31 29 27 27 27 28 30 30 29 30 30 30 30 30 29 30 30 30 28 28 27 26 25 24 24 27 28 30 31 33 35 36 37
40 39 38 38 36 35 35 37 36 33 36 31 30 30 30 30 30 31 31 31 32 33 31 32 31 31 32 30 30 30 29 31 31 30 29 30 32 34 34 36 38 38 37
36 39 39 39 38 38 36 37 36 36 36 34 33 34 32 32 30 30 31 32 32 33 33 34 34 31 32 32 32 33 33 33 35 34 33 34 35 36 37 38 38 38 35
36 37 41 39 39 38 37 36 36 37 37 35 35 36 34 33 33 31 31 31 32 33 33 33 34 33 33 33 34 36 37 37 35 35 35 36 38 38 39 40 41 40 37
36 37 38 41 41 40 38 37 37 36 35 35 35 35 35 35 34 34 33 33 34 35 34 34 34 35 35 35 35 36 36 33 33 34 36 39 40 39 41 43 43 43 42
34 37 39 39 42 41 40 39 38 36 34 34 35 36 35 36 36 35 35 36 36 36 36 36 36 35 36 35 35 34 33 33 34 37 38 40 41 42 43 44 47 46 45
37 37 40 39 41 43 42 41 39 38 35 34 36 36 36 36 37 38 37 38 38 38 38 38 37 38 38 38 37 37 36 37 38 40 41 43 44 46 47 48 49 48 47
40 40 40 42 41 43 44 44 43 40 38 36 37 35 37 36 36 38 39 38 40 39 40 40 40 40 40 40 39 39 40 42 42 44 45 47 49 50 51 51 52 50 50
45 42 42 43 43 44 43 46 46 45 39 39 38 36 36 36 37 38 38 39 39 40 42 42 42 42 42 44 43 43 44 46 47 49 50 51 53 53 53 53 52 53 55
50 49 44 44 45 44 44 45 49 46 42 42 40 39 38 37 37 38 38 39 40 41 43 44 45 46 45 46 46 47 47 48 50 50 52 54 55 56 55 54 56 59 61
46 52 51 48 48 46 44 44 45 45 47 44 41 41 40 36 39 39 38 40 41 42 43 44 46 47 48 48 48 50 51 52 53 52 53 54 54 54 56 57 59 62 65
48 49 53 50 50 49 43 42 45 46 44 44 41 42 38 37 38 41 40 41 42 44 45 45 46 47 48 48 49 51 52 53 54 55 53 55 56 56 58 59 61 62 64
50 51 52 53 51 49 46 43 46 44 43 42 43 43 39 39 38 39 41 43 44 45 46 46 47 48 48 49 51 52 53 53 54 56 57 55 55 57 62 64 63 63 65

GFSSE_500_spd_030.txt.gz
Wind_Speed
18 21 21 21 21 20 21 22 22 21 19 17 16 15 14 15 15 15 15 14 14 14 14 13 14 13 13 12 12 13 14 15 16 16 17 18 19 19 20 21 20 21 22
21 21 21 21 20 20 21 21 22 21 20 18 17 16 16 16 16 16 17 16 15 14 13 14 14 14 14 13 14 15 16 17 17 17 18 18 18 20 21 22 22 21 22
23 21 21 20 21 21 21 22 23 22 21 20 19 18 17 17 17 17 17 17 16 15 15 15 15 15 15 15 15 16 18 19 19 19 18 19 19 20 20 21 22 21 23
21 23 23 21 21 22 22 23 24 24 24 24 23 21 19 18 18 17 17 17 17 17 16 16 16 16 17 17 18 19 20 21 21 20 21 21 21 21 22 23 24 24 24
23 23 23 22 22 23 24 24 24 24 25 24 24 23 21 20 19 18 17 18 18 18 18 18 17 16 15 14 15 16 16 17 17 18 19 20 22 23 23 23 24 23 23
22 22 24 24 23 22 23 23 23 23 23 23 24 24 23 21 20 18 18 18 18 18 18 17 17 18 18 18 18 19 20 20 20 21 22 22 25 25 25 25 26 27 26
24 24 24 25 26 25 24 24 24 26 25 25 25 25 24 22 21 19 18 18 17 17 17 16 16 16 16 16 16 16 16 17 18 21 23 23 25 23 24 24 25 24 24
25 25 26 27 26 27 25 26 25 25 26 25 25 24 23 22 21 20 19 18 18 18 17 17 16 16 15 15 15 16 18 21 22 25 23 25 23 23 22 23 23 22 23
28 27 28 27 28 28 28 26 25 24 24 24 24 24 23 22 21 21 20 18 18 19 18 18 18 17 17 17 18 21 25 27 30 32 32 32 29 27 26 26 24 23 24
29 28 28 28 28 28 27 26 24 23 23 24 23 23 23 23 22 23 21 20 20 20 19 20 20 19 20 21 23 25 27 30 31 30 31 28 28 28 28 30 28 27 28
31 31 29 29 28 28 28 27 26 24 23 23 22 23 22 23 24 24 24 23 22 22 22 23 24 23 24 25 26 28 29 28 27 24 23 23 24 26 27 30 28 26 27
33 34 34 29 29 29 29 30 29 28 27 25 24 23 22 21 22 24 24 25 25 24 25 25 26 27 27 27 27 29 30 27 23 19 19 18 19 19 22 24 24 24 27
37 35 34 34 31 30 30 31 29 30 31 29 26 24 23 24 25 24 24 25 26 27 28 27 28 28 29 29 30 29 30 28 26 26 24 22 22 22 24 26 26 28 29
37 39 38 37 38 32 34 32 31 29 31 31 29 26 26 27 28 28 26 26 28 30 31 31 31 31 31 31 32 32 32 29 28 27 30 29 27 27 27 27 29 29 32
34 34 36 40 42 38 37 35 34 32 32 32 30 30 30 29 30 30 28 27 27 30 31 31 32 33 33 33 33 32 31 30 31 29 30 33 33 31 31 31 31 32 34
35 35 35 38 39 42 38 37 36 34 32 31 31 33 33 33 33 31 30 29 28 27 29 30 31 32 33 34 34 35 34 32 32 32 34 35 35 34 33 33 33 34 34
33 35 35 37 36 38 39 38 37 35 33 32 33 34 35 34 34 33 33 31 30 29 28 30 32 33 33 34 35 36 35 34 34 33 32 31 33 33 33 34 34 35 36
31 36 34 32 34 34 36 39 39 37 34 31 34 32 34 33 34 33 33 34 34 33 31 33 33 34 34 35 35 35 36 34 34 31 31 31 30 33 35 35 35 37 39
33 34 34 33 30 35 35 36 39 39 38 31 35 31 31 33 35 34 33 34 35 36 35 35 35 36 36 37 37 37 36 36 35 35 33 34 34 37 37 40 42 42 43
36 36 37 34 30 34 38 37 36 40 39 34 34 32 30 34 34 34 34 34 35 38 38 37 38 38 38 38 40 39 38 38 37 38 38 39 40 42 42 43 44 46 46
38 40 42 39 35 36 37 36 37 38 40 39 37 34 33 34 34 33 33 35 36 37 38 39 39 39 40 41 42 41 41 42 44 42 42 42 44 45 46 48 49 50 50
36 41 44 45 41 38 41 38 39 39 38 40 37 36 36 35 35 35 34 35 35 39 40 39 39 40 41 43 44 45 45 44 46 46 46 46 47 47 49 50 51 52 54
36 37 41 45 47 45 41 44 41 36 38 40 39 41 41 39 37 36 36 35 37 38 41 40 41 42 43 44 45 46 47 48 49 48 48 49 50 50 51 52 52 55 57
41 39 39 41 44 50 48 46 43 40 40 42 41 42 42 41 41 38 36 36 38 40 42 41 43 44 45 46 48 49 49 49 49 49 50 50 49 51 52 52 54 56 57
51 48 45 45 45 48 53 51 48 44 41 41 43 43 40 42 43 39 36 37 38 40 41 42 43 44 45 47 49 49 49 51 52 52 49 49 50 52 53 55 54 55 59
59 57 54 50 46 47 48 48 51 49 43 43 44 43 42 42 41 41 39 38 40 42 41 42 44 45 47 49 49 50 51 52 52 51 51 49 50 51 53 54 57 60 63

GFSSE_500_spd_033.txt.gz
Wind_Speed
18 20 22 23 23 24 22 21 21 21 20 19 18 17 16 15 15 15 16 16 16 16 17 15 16 15 14 15 15 15 15 15 15 16 16 17 17 18 19 20 20 21 21
18 20 22 20 21 23 22 21 21 21 22 20 20 19 18 18 17 17 17 17 17 16 16 16 16 15 15 16 16 16 16 16 17 17 17 18 18 18 18 19 19 20 20
20 20 21 21 20 21 23 22 22 22 22 22 21 21 21 20 20 19 19 18 18 17 17 17 16 15 16 17 17 18 18 18 18 18 18 21 19 19 19 20 20 20 21
20 20 21 21 20 20 23 23 23 23 24 24 23 23 23 23 23 22 21 20 19 18 18 18 17 17 17 18 18 19 19 19 19 21 19 23 22 22 22 24 24 25 25
21 20 20 21 22 23 23 24 25 25 25 25 25 25 25 26 25 23 22 21 20 20 20 19 19 18 18 17 17 18 18 18 18 20 20 21 22 22 23 23 24 24 25
21 20 21 22 23 23 23 22 23 25 26 26 27 27 26 26 26 25 23 22 21 21 20 19 19 20 20 20 20 20 20 19 20 19 20 21 22 23 25 26 26 26 25
24 23 24 23 23 25 25 25 24 24 26 26 26 26 27 27 27 26 24 23 21 20 20 19 19 18 18 19 17 17 17 17 18 18 22 24 24 24 24 25 25 25 23
26 26 25 23 24 26 25 25 24 26 26 27 27 26 26 26 26 26 24 23 21 20 20 19 19 18 18 18 18 18 18 19 20 24 28 29 29 28 27 26 23 24 24
26 26 26 26 26 27 25 24 24 24 25 25 25 25 24 23 22 24 24 23 23 21 21 20 20 19 19 19 19 19 21 23 25 28 31 30 30 30 32 32 29 26 27
27 28 29 27 26 25 25 25 25 25 23 25 24 22 22 21 22 21 22 22 23 23 23 21 21 21 21 22 22 23 25 26 27 29 29 26 25 25 27 27 26 26 28
29 29 29 29 27 26 25 25 26 26 24 24 23 22 21 21 21 21 21 22 23 23 24 23 23 24 24 25 26 26 27 28 27 28 27 22 18 20 22 23 23 24 26
31 31 32 31 30 28 28 29 27 27 25 25 25 24 22 23 21 20 20 21 23 23 25 25 25 26 27 28 28 28 29 28 28 29 27 26 22 22 22 21 21 21 23
32 32 32 32 32 31 31 31 29 27 26 26 27 25 22 24 23 23 22 22 23 24 26 27 27 28 28 29 30 31 31 30 28 30 28 27 27 27 26 25 25 26 26
30 31 30 32 34 34 34 35 33 31 29 28 28 28 26 25 23 24 25 26 26 26 26 27 28 30 30 31 32 32 33 33 32 30 29 29 28 29 31 31 30 29 29
31 31 31 32 32 32 37 37 36 34 32 31 29 29 28 29 27 27 28 28 28 29 28 29 28 29 29 30 31 33 34 34 33 32 32 32 32 32 32 33 34 32 31
32 32 32 33 34 32 32 35 38 35 34 32 30 30 31 31 32 30 31 30 29 29 30 30 28 28 28 29 31 32 33 33 33 34 33 33 32 32 34 32 32 31 30
34 35 32 32 34 32 32 32 33 34 35 34 32 32 31 31 31 32 31 30 29 29 31 30 30 30 31 31 31 31 32 32 33 33 33 33 32 31 30 29 29 30 31
34 37 35 30 32 29 28 31 31 31 31 33 34 31 30 29 29 31 30 30 30 28 29 30 30 32 33 33 33 32 34 34 34 35 34 33 34 34 32 32 32 33 35
35 34 38 33 29 30 29 28 31 31 27 29 32 30 28 28 30 30 30 30 30 30 30 31 32 33 33 34 35 35 35 35 36 37 37 36 38 38 37 38 39 39 39
35 36 37 38 32 28 32 31 29 32 27 30 29 31 29 28 32 28 29 29 29 29 31 32 33 35 35 35 36 36 36 37 38 39 40 41 41 42 42 42 43 44 44
35 39 39 39 37 34 32 35 34 34 34 31 32 29 28 31 34 32 30 30 30 32 32 33 33 34 36 37 37 38 38 39 40 42 43 43 44 44 46 46 47 47 47
37 39 42 41 41 39 37 36 39 39 38 34 33 29 28 32 36 35 33 32 33 33 33 34 36 37 36 38 40 40 40 41 42 43 45 46 47 47 47 48 48 48 48
40 40 40 43 44 39 40 41 43 42 39 36 33 32 35 36 35 34 35 35 36 38 36 36 37 38 39 39 41 42 42 43 44 45 47 48 48 49 49 49 48 49 49
45 45 45 45 46 43 40 41 44 46 44 42 39 36 38 37 37 34 34 37 37 39 38 37 37 37 39 41 41 43 44 46 47 47 48 49 49 49 49 49 49 50 52
50 49 48 48 46 46 43 39 40 42 45 46 44 40 40 41 40 39 36 36 37 39 39 37 39 40 40 41 42 43 44 45 46 47 47 48 48 49 51 51 51 53 54
56 55 54 52 51 51 50 46 43 41 42 48 50 48 45 44 43 40 40 37 37 40 41 41 41 42 41 42 43 43 45 46 48 49 48 48 48 47 50 53 55 55 54

GFSSE_500_spd_036.txt.gz
Wind_Speed
19 18 20 19 20 20 21 22 22 21 20 21 20 19 19 17 17 16 15 16 17 18 18 17 17 19 19 18 19 18 16 16 16 17 18 17 17 18 19 19 20 20 20
19 19 20 19 19 19 21 21 22 21 21 22 22 20 21 20 19 19 18 17 17 18 19 19 18 18 19 19 17 17 17 17 18 18 19 18 19 19 19 19 19 20 20
20 18 19 20 20 20 21 21 22 22 21 22 22 22 22 21 21 22 21 20 19 19 19 19 19 19 19 19 18 18 18 19 19 19 20 21 21 22 22 22 22 22 22
17 17 18 21 20 21 21 20 22 23 23 23 24 24 24 24 24 24 24 24 22 21 20 20 21 20 20 20 20 20 20 20 19 19 20 20 21 22 23 23 24 24 24
18 18 18 20 21 23 24 23 23 23 25 24 24 25 26 27 27 27 27 26 24 23 22 22 22 22 21 20 20 19 19 18 18 20 22 22 23 24 25 26 26 26 25
19 19 19 20 21 22 24 24 22 22 22 23 24 25 27 27 28 27 27 27 26 24 23 23 22 23 22 23 22 22 21 20 20 21 20 20 22 23 25 27 27 26 25
22 22 22 22 21 21 22 23 23 24 24 24 24 24 24 26 26 26 26 27 27 26 25 24 22 22 22 22 22 20 19 18 19 19 19 21 25 28 28 28 27 25 24
26 25 24 22 23 23 22 22 21 22 22 23 24 26 26 25 24 25 25 25 26 25 24 23 22 21 21 21 21 20 19 19 20 21 23 26 28 30 31 31 32 30 27
28 25 25 25 25 24 25 23 21 20 19 20 21 23 23 23 24 23 22 23 23 23 23 22 22 22 22 21 22 21 21 21 23 25 26 28 29 30 29 28 27 28 29
28 29 28 27 26 25 24 23 23 23 22 20 20 20 21 21 21 22 22 21 22 22 23 23 23 23 22 22 23 24 24 25 26 28 28 28 27 28 25 21 21 23 25
30 30 30 28 28 27 26 26 27 26 25 23 22 21 21 20 20 20 21 21 21 22 23 23 24 24 24 25 27 28 28 30 29 31 31 30 27 26 25 20 20 19 19
31 32 33 32 31 29 29 28 28 28 28 27 26 24 22 22 22 21 21 21 21 21 23 23 25 26 27 28 30 30 30 32 32 33 33 31 28 28 28 26 25 23 23
28 29 32 33 33 31 31 31 31 31 30 28 27 26 25 25 23 22 22 23 22 22 23 23 24 26 28 30 32 32 32 33 33 34 34 33 32 29 29 28 29 29 29
25 26 28 29 30 31 32 34 35 33 31 30 29 27 27 28 27 25 25 26 23 25 25 26 26 26 27 30 32 34 35 35 34 34 35 35 34 32 32 32 31 32 33
26 27 27 28 27 28 31 32 34 35 33 33 32 30 28 29 29 28 28 28 27 27 27 29 29 29 28 28 29 30 31 33 33 34 35 35 35 34 33 32 33 34 35
32 30 31 30 29 30 30 32 33 33 32 33 34 34 31 30 29 29 30 29 28 28 29 30 28 28 29 29 29 30 31 31 31 32 33 33 33 34 33 33 32 32 33
35 34 32 32 33 32 30 31 33 33 31 30 32 33 32 30 29 30 31 28 28 28 29 29 28 28 28 30 31 31 31 31 31 31 32 32 32 33 33 33 32 32 32
38 35 33 33 33 33 32 31 31 31 31 29 28 29 30 30 29 31 30 28 27 27 28 28 29 29 29 31 32 32 32 32 32 33 34 34 34 35 35 36 37 37 37
38 38 35 35 33 32 33 35 32 31 29 27 27 25 26 30 31 30 29 27 27 27 27 27 27 28 30 31 33 34 34 34 34 35 36 36 37 37 38 40 40 40 43
39 40 38 36 35 33 35 37 35 33 29 28 27 25 26 28 32 33 31 27 28 28 28 28 29 30 30 31 33 33 34 36 37 37 37 37 39 40 42 43 44 45 45
39 40 37 38 35 37 37 37 36 35 34 32 30 29 29 29 30 32 33 32 32 30 30 31 31 32 32 33 35 35 35 37 38 39 39 39 39 40 41 43 45 47 48
40 41 42 40 39 36 40 39 39 40 40 37 35 30 28 31 31 34 33 31 33 34 34 35 33 34 35 35 36 36 37 38 38 39 40 41 41 42 44 45 46 47 48
43 43 43 44 44 42 41 43 41 42 43 40 37 32 30 34 36 36 34 32 33 36 36 36 37 37 37 36 36 36 36 37 38 40 41 42 43 44 45 45 45 46 47
47 47 47 46 46 46 46 44 44 43 42 43 44 42 39 38 40 40 37 35 35 35 35 35 37 37 37 37 38 40 40 39 39 40 41 42 44 45 46 47 48 49 50
52 52 51 50 50 50 51 49 47 47 46 46 46 46 46 44 43 42 40 39 38 39 38 38 38 38 37 37 40 41 41 41 42 42 43 45 45 46 48 49 50 51 52
52 52 52 51 50 52 54 55 53 51 47 45 43 47 47 49 48 47 45 43 42 43 41 41 39 40 41 40 39 40 41 42 43 44 45 46 46 48 50 53 54 54 55

GFSSE_500_spd_039.txt.gz
Wind_Speed
16 16 16 17 17 17 18 19 19 19 19 18 18 18 18 17 17 17 16 16 16 16 17 17 18 20 19 19 19 19 19 19 18 18 18 18 19 18 18 19 20 20 20
18 16 15 18 18 18 18 19 19 19 20 19 20 21 20 20 19 19 18 19 19 18 18 18 18 19 19 18 19 19 19 19 19 19 19 20 20 20 20 20 21 21 21
17 16 17 18 19 20 21 20 20 19 20 20 20 21 21 21 21 21 21 21 21 20 20 19 20 20 20 20 20 20 20 19 20 21 21 21 22 21 21 21 22 23 23
16 16 17 18 17 20 21 21 20 20 20 21 22 22 23 23 23 23 23 23 23 24 24 23 21 22 22 22 21 21 20 20 22 22 21 20 20 21 22 23 24 24 25
18 17 17 18 19 19 21 21 21 21 21 21 22 22 23 24 25 26 26 26 25 25 25 25 24 23 23 22 21 21 19 19 21 22 23 23 23 23 23 23 25 25 27
22 20 20 20 21 20 19 20 21 21 21 21 21 21 22 22 24 25 26 26 25 24 24 25 24 25 24 23 22 21 21 22 22 23 22 21 20 22 23 27 29 29 28
25 23 23 22 21 20 20 20 19 19 20 21 22 22 23 24 24 23 24 25 25 24 24 24 24 25 24 23 22 21 21 21 21 20 21 21 22 24 27 29 30 31 32
28 28 26 23 22 22 22 21 19 19 18 19 19 20 21 22 23 24 23 23 23 23 23 23 22 23 22 22 21 21 22 22 22 22 23 24 26 28 29 29 30 30 30
30 29 28 27 26 24 23 22 20 21 19 18 18 18 18 18 19 21 22 22 21 22 21 21 21 22 22 22 22 22 22 23 23 24 24 26 28 31 30 30 28 26 24
30 29 30 29 27 26 24 23 23 23 22 21 20 19 19 18 18 19 19 20 21 21 22 22 22 23 22 23 23 23 24 25 26 27 27 29 30 33 30 29 28 24 21
31 32 32 31 29 29 27 26 26 26 25 24 23 22 22 20 20 20 20 20 19 20 21 21 22 23 23 24 26 26 28 29 30 31 31 31 31 32 31 29 29 27 26
31 32 33 32 32 32 30 29 28 28 28 26 25 26 25 25 23 22 22 22 22 21 21 21 20 21 22 24 28 29 31 33 34 35 34 34 33 35 32 32 30 28 28
32 32 32 33 33 32 30 30 31 31 31 30 29 28 27 27 26 25 24 24 23 24 24 24 23 23 23 24 26 29 32 34 36 36 37 37 37 37 34 33 31 30 30
29 29 29 29 29 30 31 31 32 32 32 31 31 30 29 29 29 28 28 27 25 25 26 26 25 25 26 26 27 29 30 32 34 37 38 38 37 36 36 34 32 32 31
29 28 28 29 27 27 28 29 30 32 32 33 32 30 30 31 30 29 29 30 27 25 26 28 27 28 29 28 28 29 30 30 31 33 34 34 34 34 34 32 31 32 31
30 30 32 32 30 30 29 30 31 32 32 30 29 28 28 30 30 29 30 31 28 26 26 27 27 28 28 27 27 28 30 30 31 33 33 33 33 33 33 32 31 31 30
30 33 35 34 34 32 32 32 32 33 33 30 29 28 28 29 29 29 31 31 29 28 28 27 28 28 27 27 26 28 30 32 32 33 33 33 34 34 34 34 33 32 33
32 33 36 37 37 35 34 34 34 35 35 30 29 29 28 25 25 29 32 31 29 28 28 28 28 26 26 26 26 28 30 31 32 33 33 34 34 35 36 36 37 37 37
36 38 39 39 40 38 37 38 38 37 35 31 30 29 27 25 26 29 32 31 29 29 30 29 27 27 27 27 28 29 29 30 31 32 34 34 34 35 35 36 37 39 40
38 41 43 41 41 40 39 41 42 39 36 32 32 31 30 29 30 30 30 30 30 32 32 31 29 30 30 30 31 31 31 33 33 33 33 35 35 35 36 36 37 37 38
39 42 44 45 44 42 40 42 43 42 40 37 36 35 34 31 32 34 34 31 31 34 36 34 34 34 34 34 34 34 35 35 36 36 35 35 36 36 37 38 39 40 40
43 42 45 46 47 46 44 41 42 44 45 42 40 38 35 33 35 36 37 35 34 34 35 36 37 37 38 38 38 37 36 36 35 35 36 36 36 36 38 39 39 40 41
46 43 44 47 50 50 47 46 43 45 45 45 43 40 36 37 40 41 41 38 38 33 34 35 37 37 38 38 38 37 36 37 37 38 39 40 41 41 41 42 42 41 41
50 50 49 48 48 51 52 50 47 45 45 46 48 46 45 43 42 44 44 41 38 37 38 38 38 38 38 38 38 38 38 38 38 38 40 41 41 43 44 44 44 44 44
47 48 50 50 50 50 51 52 52 50 48 46 51 50 49 46 45 47 48 47 47 44 42 41 40 39 41 41 41 42 41 40 40 41 41 42 43 44 46 46 46 46 47
47 49 51 52 53 54 55 56 56 56 55 52 49 51 52 52 51 50 50 50 49 48 47 46 45 43 43 43 44 46 45 43 42 43 43 44 46 47 49 49 49 50 52

GFSSE_500_spd_042.txt.gz
Wind_Speed
15 14 15 16 15 15 16 16 16 17 18 18 18 17 16 16 15 14 14 14 15 15 16 16 17 16 16 17 16 18 17 17 18 18 18 18 19 19 19 20 20 19 19
16 15 16 17 17 18 17 15 15 15 16 17 17 17 17 18 17 17 17 17 17 17 18 18 18 19 18 18 18 18 18 18 19 19 19 19 19 20 20 21 20 20 20
19 18 16 17 17 18 18 17 17 18 17 17 18 18 18 18 18 20 20 19 19 18 19 19 21 21 21 19 19 18 19 20 20 20 20 20 20 20 20 19 19 20 21
19 18 18 17 17 17 17 18 18 19 19 19 18 18 19 19 19 19 21 22 22 22 22 21 22 22 22 22 21 21 21 21 21 21 21 20 19 19 20 21 21 22 22
20 19 19 18 18 17 17 16 17 18 19 19 19 19 19 18 19 20 21 22 23 24 25 24 23 23 23 22 22 22 22 22 21 21 21 21 22 22 20 18 20 23 26
23 22 21 21 20 20 17 18 18 18 18 20 19 18 18 18 18 18 18 19 21 22 23 23 23 22 23 23 24 24 23 24 24 24 23 23 21 20 19 20 23 26 27
26 26 24 24 23 21 20 20 20 18 19 19 19 19 18 18 19 20 19 19 19 20 21 22 22 22 22 23 23 24 24 23 23 23 23 22 21 22 22 24 25 27 27
31 29 28 26 25 25 24 23 22 20 20 20 19 19 18 17 17 17 18 18 18 19 19 20 20 20 20 20 21 22 22 22 22 23 22 23 24 24 25 27 28 28 27
32 31 30 29 28 27 25 24 24 23 22 21 20 19 19 19 18 17 17 17 18 18 19 20 21 21 20 20 21 21 22 22 23 23 24 25 27 27 28 29 29 28 28
31 30 30 31 30 27 26 26 25 25 24 22 21 20 20 19 19 19 19 18 18 18 19 20 20 21 22 22 22 22 23 23 24 25 26 28 29 30 31 31 32 30 29
29 31 32 31 31 29 27 28 27 26 25 24 23 23 22 21 21 21 20 20 21 21 20 20 20 20 21 22 22 23 25 26 27 28 30 31 32 33 33 33 33 31 31
30 31 30 30 30 29 29 29 29 29 29 28 26 24 23 23 23 23 24 22 21 21 22 23 23 22 22 22 23 23 24 26 28 30 32 34 34 34 35 35 35 35 32
31 29 27 29 29 29 30 30 30 31 31 30 29 28 27 26 26 26 26 25 23 22 23 23 24 24 23 23 24 24 25 26 28 30 32 34 35 36 37 37 37 36 34
31 32 29 28 28 28 28 29 30 31 31 31 30 28 28 29 29 28 29 29 28 26 24 24 24 25 25 26 26 27 27 27 28 28 30 31 32 33 34 33 33 32 31
30 32 32 32 29 28 28 29 30 31 31 32 30 29 29 29 30 29 29 30 32 29 27 26 25 25 26 27 27 27 27 28 28 29 29 30 30 31 31 32 31 31 30
29 30 34 36 34 33 31 31 32 32 33 33 31 29 28 28 28 28 28 30 31 29 28 28 28 26 26 25 26 27 27 26 27 28 29 30 31 31 31 31 31 32 32
27 30 33 36 39 37 35 34 33 34 35 34 32 30 28 27 28 27 27 29 29 27 30 30 29 27 25 25 26 25 25 25 26 27 29 30 31 31 31 31 31 31 33
32 31 34 37 39 41 39 37 37 37 36 36 33 31 29 28 28 27 27 29 29 27 29 30 29 29 27 27 27 26 26 26 27 28 29 29 29 30 31 31 31 31 32
36 35 36 39 42 42 42 41 40 39 38 37 35 33 32 31 30 29 29 31 30 28 30 31 30 28 28 29 29 28 28 29 30 31 31 31 32 32 32 32 31 32 32
41 39 39 41 43 44 43 43 43 42 41 39 39 38 36 35 34 31 33 34 32 27 29 33 31 31 32 31 31 31 32 33 33 34 35 36 36 34 33 32 32 33 33
44 43 42 43 42 44 45 44 44 42 42 43 41 42 41 39 37 36 37 37 34 31 32 33 33 34 35 36 36 36 36 37 37 37 35 33 34 35 35 34 33 33 34
45 46 46 44 44 47 48 46 45 44 45 45 46 45 44 41 40 40 39 38 38 37 35 35 35 35 36 37 37 37 38 38 38 36 34 35 36 36 37 37 38 38 38
49 48 48 48 47 49 51 50 49 48 45 46 47 48 45 44 43 44 43 42 42 40 37 38 39 39 37 37 38 37 37 38 37 36 35 37 37 37 38 37 38 39 39
49 50 48 49 49 49 50 52 51 45 46 46 47 50 50 49 48 46 47 46 45 43 41 39 38 36 38 39 40 39 39 39 40 40 39 40 41 39 39 40 40 41 41
46 48 50 52 53 52 53 53 54 55 50 47 46 47 50 51 51 50 49 49 49 48 45 45 44 46 45 43 40 40 41 42 43 43 43 44 45 44 42 42 42 44 44
47 47 48 48 51 55 55 55 56 58 60 56 49 47 46 49 50 52 52 52 51 50 49 48 48 48 48 48 49 48 47 47 45 45 45 46 46 46 46 44 44 47 48

GFSSE_500_spd_045.txt.gz
Wind_Speed
14 13 16 16 17 17 17 17 16 16 16 16 17 17 17 16 16 16 15 15 15 13 13 13 12 13 13 14 16 15 15 15 16 15 16 16 16 17 18 18 18 18 18
16 15 18 19 19 19 17 16 15 15 15 14 14 14 15 15 16 17 18 17 17 16 15 14 14 15 16 16 17 18 18 18 18 17 17 18 18 19 19 19 19 19 19
19 18 18 19 18 18 18 18 17 17 15 15 15 15 15 15 16 16 17 17 17 17 18 18 18 18 18 19 19 19 20 20 20 19 19 19 19 19 20 20 19 20 21
20 20 20 19 20 17 18 17 17 16 16 16 17 16 16 16 17 16 17 17 17 19 20 20 21 20 21 21 21 22 21 21 21 20 20 21 20 19 19 22 21 20 20
21 21 20 19 20 18 17 17 16 16 16 16 16 17 18 18 18 17 17 16 16 17 18 19 21 20 21 21 21 21 22 23 22 22 22 21 22 22 22 21 21 20 21
21 20 21 20 20 19 19 19 19 19 19 18 17 17 17 17 19 19 18 18 18 17 17 18 17 18 20 20 21 21 22 22 23 23 23 23 23 22 20 20 20 21 23
21 21 23 24 24 21 21 20 21 20 20 20 20 20 20 19 18 18 19 19 19 19 17 18 19 18 18 19 20 20 21 21 21 21 21 21 21 20 21 21 23 23 25
24 24 25 26 26 26 26 24 24 23 22 22 22 21 21 20 20 18 18 17 17 18 18 18 19 19 19 20 19 20 20 21 20 21 21 21 21 21 23 24 25 25 27
28 28 28 28 27 28 26 25 24 23 23 23 23 22 22 22 22 21 20 19 18 17 18 19 20 20 20 21 21 21 21 21 22 22 22 23 23 24 25 27 28 28 28
31 31 32 30 29 28 26 25 25 25 24 23 23 22 22 22 22 22 22 21 20 19 19 19 20 20 20 20 21 20 21 22 23 24 25 26 26 27 28 29 30 31 30
32 33 32 31 31 30 28 27 27 26 25 24 24 23 23 24 23 23 22 23 23 23 22 22 22 23 23 22 22 22 22 23 23 25 27 28 29 31 31 32 32 32 31
29 31 31 30 31 31 30 29 28 27 26 26 25 26 25 24 24 23 24 24 24 24 23 23 23 23 23 23 23 23 23 23 23 24 26 27 29 31 32 32 33 33 33
29 29 29 30 30 30 30 29 28 28 28 27 28 27 25 26 25 25 25 25 25 25 25 24 24 24 25 25 24 25 25 26 27 28 27 28 28 28 28 30 30 30 30
27 28 29 30 30 29 29 29 29 28 29 29 30 29 28 26 27 26 26 27 27 27 26 26 26 26 26 26 26 26 26 26 27 27 27 27 27 27 27 28 28 28 29
28 30 31 33 32 31 30 31 30 29 30 32 32 30 27 28 28 28 28 28 29 29 28 29 28 26 25 24 25 25 25 26 26 25 26 26 26 26 27 28 28 29 29
29 29 32 33 33 34 33 35 35 34 34 34 33 31 29 29 29 29 28 29 29 29 28 29 29 27 27 26 26 26 26 26 25 24 24 24 25 26 27 28 29 30 29
31 31 32 34 35 34 34 36 37 37 37 36 36 33 30 29 29 29 29 28 29 29 27 28 27 27 27 26 25 25 25 25 25 24 25 25 26 27 27 28 29 30 30
36 36 36 37 37 36 36 37 38 39 40 41 38 35 33 31 31 31 30 30 32 30 27 28 27 27 27 26 27 27 27 26 27 27 26 27 29 29 28 29 30 29 30
38 40 39 40 40 39 39 39 41 41 41 42 42 40 37 34 35 34 32 32 34 33 30 30 29 28 27 28 28 27 28 29 29 28 30 30 31 33 33 30 30 29 30
41 42 41 40 43 43 43 43 43 43 44 44 43 43 43 40 39 37 35 36 37 36 34 33 31 29 29 30 30 30 31 31 33 33 32 33 34 33 30 29 29 30 31
42 41 42 43 43 44 46 47 48 46 47 47 46 46 46 45 42 40 40 40 40 40 38 37 35 34 33 32 32 33 33 33 33 34 34 34 34 33 31 31 31 32 33
46 45 44 45 46 45 46 47 47 49 49 49 50 48 48 47 46 45 44 44 43 42 41 39 38 37 35 36 37 37 35 35 35 35 34 34 34 34 34 34 34 34 34
47 47 45 45 47 49 49 49 49 48 48 49 49 47 48 49 50 50 49 47 46 44 45 44 40 40 40 36 38 41 38 37 39 37 35 35 35 37 38 38 38 38 39
45 46 46 46 47 48 49 51 53 51 50 47 47 49 51 51 51 50 50 50 48 48 47 46 44 43 42 40 39 39 37 39 41 38 39 40 39 39 41 42 42 42 43
44 45 46 47 48 49 51 51 51 51 52 52 50 50 51 52 53 52 52 52 51 50 49 48 48 47 46 44 45 43 45 43 41 43 42 42 44 44 43 43 45 46 49
43 44 45 46 47 47 48 50 51 52 52 52 53 54 53 53 54 54 54 54 53 52 52 52 51 50 48 47 47 45 45 45 43 43 45 46 47 48 48 45 47 50 54

GFSSE_500_spd_048.txt.gz
Wind_Speed
13 13 14 14 15 16 16 17 18 18 18 17 17 18 19 19 19 18 19 19 17 16 16 15 15 14 13 14 14 14 15 16 16 16 16 17 17 16 17 17 17 17 17
15 14 15 15 16 16 16 17 17 17 17 17 17 16 16 17 17 18 19 20 20 19 19 19 17 17 16 16 15 14 16 17 18 18 18 18 19 19 18 19 19 18 17
17 17 18 17 17 18 17 17 17 18 18 18 18 18 18 17 17 17 18 19 19 20 21 20 19 19 19 18 18 18 17 17 18 18 19 20 20 20 20 19 19 20 20
18 18 17 17 17 17 17 18 17 16 17 17 17 17 17 17 17 17 18 18 18 18 18 19 20 20 20 19 18 19 19 19 19 19 20 20 20 19 20 20 21 20 19
18 18 18 18 17 17 15 16 16 15 16 16 16 16 17 17 18 18 19 20 20 18 18 18 18 19 19 18 18 19 19 19 20 20 20 20 20 21 22 22 21 19 20
19 18 17 18 18 18 17 17 17 17 18 18 18 19 19 19 19 20 20 20 21 22 22 21 20 19 18 18 18 19 20 20 21 21 21 21 21 21 21 20 20 21 21
20 20 19 20 20 19 19 19 19 20 20 21 22 21 21 21 21 20 20 19 19 19 19 20 19 20 20 20 20 19 20 20 20 21 21 21 20 20 21 21 21 23 23
22 22 22 23 23 23 23 23 23 23 20 21 21 21 21 21 20 20 21 21 21 21 20 20 20 19 20 20 20 20 21 21 21 22 22 21 21 22 23 23 24 25 26
26 26 26 26 27 26 26 25 25 23 23 22 22 21 21 21 21 21 21 21 22 21 20 20 19 20 21 20 20 20 20 21 22 22 22 22 23 24 25 26 27 28 29
28 29 30 29 29 30 29 27 26 26 25 24 23 21 21 21 22 23 23 22 23 22 21 21 21 21 21 21 20 20 20 20 22 22 23 23 24 26 27 29 30 31 31
33 34 34 33 32 31 30 29 28 28 27 25 23 23 23 24 24 24 24 24 24 23 24 24 23 23 23 24 24 23 23 22 22 23 24 24 26 28 29 30 32 31 31
34 34 34 33 32 31 31 31 29 29 28 27 25 25 26 27 26 24 24 24 24 24 24 24 24 24 24 25 25 25 24 24 23 24 25 25 26 27 28 29 29 29 29
28 28 29 28 28 29 31 31 31 30 30 29 28 29 28 28 26 25 25 24 24 24 24 25 26 27 26 26 26 25 25 26 26 27 27 27 28 28 27 28 27 27 27
27 28 29 29 29 30 31 31 31 30 32 31 31 31 29 28 26 26 25 25 25 26 27 28 28 29 28 28 27 26 26 26 26 27 27 27 25 26 25 25 25 25 26
28 30 31 32 31 32 33 32 32 32 33 33 33 33 31 30 28 28 27 27 27 29 28 29 30 30 29 29 29 27 26 26 26 25 26 26 26 24 24 24 24 25 26
31 30 31 33 33 34 33 34 34 35 35 36 36 35 33 32 31 30 29 28 29 30 30 29 29 29 29 28 28 28 27 26 26 25 24 24 24 24 25 25 26 27 27
31 32 32 35 36 36 36 35 35 35 37 37 37 38 36 34 34 33 33 31 31 32 31 30 30 29 29 28 27 27 27 26 27 26 25 25 26 25 25 28 28 28 29
35 35 37 37 37 37 37 38 38 38 39 38 40 38 36 36 36 37 37 35 35 34 33 32 31 31 29 28 28 28 28 28 28 27 26 28 27 26 28 27 29 30 29
39 39 39 40 40 41 40 41 42 42 41 40 41 40 40 40 37 39 40 40 39 37 36 35 34 34 32 29 29 30 28 29 29 29 28 29 29 30 28 29 29 28 27
39 39 39 40 41 43 44 44 45 45 45 44 44 44 45 44 45 44 42 42 42 41 40 39 38 37 35 33 34 31 30 30 31 31 31 31 30 30 30 30 30 29 28
38 39 40 40 39 41 44 45 46 47 49 49 48 48 48 49 49 49 48 46 44 44 43 44 43 39 39 39 37 34 35 33 34 35 34 32 32 32 32 31 30 31 32
41 41 42 43 43 43 44 46 49 50 51 52 52 51 51 51 50 51 50 51 50 50 48 46 47 44 42 41 40 37 35 35 35 39 38 36 35 35 34 33 34 34 35
43 43 44 44 45 45 46 46 48 50 51 50 52 52 52 52 53 53 53 55 54 51 51 49 49 48 47 45 43 42 39 37 36 37 39 39 40 41 38 38 38 39 39
44 44 43 44 45 46 47 47 46 47 49 49 52 54 56 57 57 57 55 55 54 53 53 51 51 50 50 48 46 44 43 42 40 39 40 40 41 34 37 39 40 42 44
43 44 44 44 45 45 46 46 47 48 48 51 53 54 55 57 58 58 58 57 56 55 53 52 51 51 49 50 49 49 47 45 46 45 44 43 43 41 40 42 43 44 44
40 41 41 42 42 43 43 44 45 47 48 50 52 54 55 56 58 61 62 62 62 58 56 55 54 52 51 53 53 52 50 48 47 48 47 46 46 43 44 45 46 49 51

GFSSE_500_spd_051.txt.gz
Wind_Speed
12 10 11 12 13 14 15 15 16 17 17 17 18 17 17 17 18 19 19 19 20 20 19 19 18 17 17 16 15 15 15 15 16 16 17 18 17 17 17 17 17 18 18
13 13 13 14 14 14 14 14 15 17 17 18 19 19 19 19 19 18 18 19 20 21 21 22 21 20 19 18 17 17 16 16 16 16 16 18 18 18 18 19 18 18 16
16 14 15 15 15 14 15 14 14 16 17 17 18 19 19 19 19 18 18 18 19 20 21 22 22 22 22 21 19 19 18 18 18 18 18 18 19 19 19 19 18 17 19
16 16 15 16 15 14 12 16 15 15 16 16 16 16 17 17 17 17 17 17 17 18 19 19 19 19 20 21 20 20 19 18 18 19 19 19 19 19 19 18 20 20 19
17 16 16 16 16 15 13 15 16 16 15 16 16 16 16 18 18 19 19 20 20 20 20 20 20 20 19 18 18 18 19 19 19 19 20 20 20 20 20 21 21 19 19
19 18 19 18 17 17 16 16 16 16 17 17 17 18 18 19 19 19 20 20 20 20 20 20 21 20 20 20 19 18 19 19 20 20 20 21 21 21 21 21 21 19 20
21 20 20 20 19 18 18 17 18 18 19 21 22 22 21 20 20 20 20 21 21 21 21 21 20 19 19 19 20 19 19 19 19 19 20 20 21 21 21 21 20 21 22
22 22 22 22 22 22 21 21 21 22 22 22 22 22 21 20 20 20 21 21 21 22 23 22 22 22 22 22 21 21 20 20 19 20 20 20 20 21 20 22 23 23 25
24 24 24 25 25 25 25 25 25 25 24 22 22 22 21 21 20 20 20 20 21 22 22 22 23 23 22 22 21 21 20 20 20 20 19 20 21 21 22 23 24 26 26
27 28 28 27 28 28 28 28 28 28 26 25 23 23 22 21 21 21 22 22 23 23 23 23 23 23 23 23 23 23 23 23 23 23 22 22 23 23 24 25 27 28 29
28 28 29 30 31 31 30 29 30 29 28 28 27 25 24 23 23 23 24 24 25 24 23 23 23 24 24 24 24 24 24 24 25 24 23 23 25 24 25 26 27 27 28
30 31 31 32 32 31 30 31 30 30 29 28 29 28 26 25 26 26 26 25 24 23 23 22 23 24 25 25 26 25 26 26 26 26 26 24 26 26 27 27 27 25 25
30 30 31 31 30 29 29 29 29 29 30 30 30 29 28 28 27 27 27 25 24 23 24 23 25 26 27 26 27 27 27 28 27 27 28 26 27 26 27 25 25 25 24
29 29 29 30 29 28 30 30 31 31 31 31 31 30 30 30 28 28 27 26 25 25 25 26 27 27 28 27 27 27 28 28 27 26 26 26 26 27 25 26 24 23 23
28 30 31 31 31 31 32 32 32 32 31 32 33 33 32 31 30 29 28 28 27 28 28 28 28 29 29 28 27 27 27 27 27 28 24 26 26 26 25 23 23 24 25
30 32 33 33 33 34 33 33 32 32 33 34 35 35 35 35 33 31 30 30 30 30 31 30 30 30 31 29 28 28 27 27 28 28 24 25 25 25 24 24 26 25 27
32 33 33 34 33 32 32 32 33 34 35 36 37 37 37 37 35 34 34 33 33 34 34 33 33 33 33 33 30 28 28 27 27 27 27 25 27 25 26 27 26 28 24
34 34 36 34 34 33 33 34 36 37 37 37 38 39 39 40 40 38 36 36 37 36 36 36 37 36 37 36 34 29 29 29 28 28 28 28 27 27 27 28 29 27 27
36 36 37 37 36 36 36 37 38 40 39 39 39 40 41 43 44 43 42 41 40 40 39 39 39 40 40 39 38 34 32 31 30 29 28 29 29 29 29 30 31 28 28
36 36 36 36 36 36 39 41 40 41 43 43 43 42 43 45 45 46 47 47 46 45 44 43 43 43 44 41 39 38 37 35 33 31 31 31 32 33 32 32 31 31 30
36 37 37 37 38 38 39 41 39 41 44 47 48 48 47 47 48 48 47 49 49 49 50 50 50 48 46 46 44 40 40 38 36 34 35 34 35 36 35 34 34 34 33
37 36 37 38 40 40 42 43 45 42 45 46 48 49 50 51 51 51 51 50 51 52 52 52 52 53 51 51 49 46 43 41 37 38 38 37 38 39 39 38 37 38 36
37 37 38 39 41 42 44 45 46 46 45 46 47 48 51 54 55 55 55 55 55 56 56 56 55 54 55 54 52 50 47 44 41 41 41 41 42 38 37 39 39 40 39
39 39 39 40 41 42 43 44 45 46 46 46 48 49 51 55 57 59 57 57 58 59 60 59 58 54 52 53 51 50 50 48 46 44 43 44 46 43 41 40 42 40 36
40 41 41 41 41 41 42 42 43 44 46 47 48 49 51 54 57 59 62 61 60 61 60 59 61 60 57 56 53 51 50 49 49 47 45 47 47 48 47 44 43 43 41
39 39 39 40 40 40 41 41 42 42 43 45 47 48 50 52 55 57 59 61 63 63 64 65 63 62 61 59 58 55 54 53 52 51 49 49 49 49 50 48 47 47 47

GFSSE_500_spd_054.txt.gz
Wind_Speed
12 11 10 8 8 10 10 11 12 12 13 14 14 15 15 16 16 16 17 16 17 17 17 18 19 19 18 18 18 18 17 17 16 16 17 17 17 17 16 17 17 17 18
12 11 10 9 10 11 11 11 12 13 14 15 15 17 17 17 17 18 18 18 18 17 18 19 19 19 20 20 19 19 19 19 19 19 19 18 17 18 17 17 17 17 17
13 12 12 11 11 12 14 13 13 13 14 14 15 16 16 17 16 17 17 17 17 17 17 17 18 19 20 20 20 20 21 21 20 19 19 18 18 18 18 17 17 16 18
15 15 14 15 14 13 14 14 12 13 14 14 15 14 14 14 14 15 16 16 16 17 17 17 17 17 18 18 18 18 19 19 19 18 18 19 18 19 19 19 18 19 19
17 16 16 16 15 14 13 14 14 13 14 14 15 15 15 15 16 17 17 16 17 17 18 18 18 18 19 18 18 18 18 18 18 18 19 19 19 19 18 19 19 19 17
19 18 17 18 18 16 14 14 14 15 15 15 15 16 17 18 19 19 18 18 17 17 18 17 17 17 18 18 18 17 17 17 17 17 17 18 18 19 18 17 17 18 18
19 21 20 19 19 18 16 17 16 15 17 18 19 20 20 19 18 19 19 19 19 18 18 19 19 19 20 20 20 19 20 20 18 17 17 18 18 18 18 18 17 18 20
22 23 22 21 20 19 18 17 18 19 19 20 22 21 20 20 20 21 20 19 19 18 19 19 20 20 21 22 21 21 21 20 18 18 17 18 18 18 18 18 18 20 21
24 24 23 22 21 21 20 20 21 22 23 21 20 21 20 21 20 21 21 21 20 20 20 20 20 21 21 21 22 22 22 23 22 20 20 20 20 19 20 20 21 21 22
25 24 24 23 22 23 23 23 25 25 24 22 20 20 21 21 22 22 22 22 21 21 20 20 21 21 21 21 21 21 22 23 23 21 22 23 22 22 22 22 23 23 23
26 25 24 24 25 26 26 27 27 26 24 23 22 22 21 22 22 22 23 24 23 22 20 19 20 20 21 21 22 22 22 23 23 21 22 23 23 22 23 23 23 24 24
27 26 26 26 28 28 29 29 27 26 25 23 24 24 24 23 22 24 24 25 24 22 22 20 20 21 22 23 23 23 24 24 24 22 24 24 24 23 23 24 23 23 22
28 26 28 29 30 30 29 28 27 26 25 25 25 27 26 24 25 25 26 26 25 24 23 23 23 24 24 24 25 24 25 25 24 22 25 23 25 24 24 23 24 22 23
28 27 29 30 31 29 29 27 26 25 27 27 27 27 27 25 24 26 27 26 25 26 25 26 25 26 26 26 25 25 26 26 25 23 25 24 25 24 23 24 23 22 21
27 30 31 30 30 30 29 28 27 27 26 29 28 29 29 29 27 26 28 26 26 26 28 28 29 28 28 29 29 27 26 26 26 25 23 26 25 24 23 23 23 22 22
30 31 30 31 31 30 29 27 28 28 28 29 30 30 30 31 31 31 30 28 27 28 29 29 29 30 30 31 30 31 30 29 28 26 24 26 25 24 25 25 24 24 25
32 31 29 32 34 31 29 29 29 30 30 29 31 31 32 33 33 34 33 32 31 32 32 32 32 30 31 33 33 33 32 31 31 29 26 24 27 25 26 26 26 26 25
33 32 33 34 34 33 31 30 31 31 32 32 32 33 33 35 37 37 37 37 37 36 36 37 37 34 34 35 36 37 34 33 33 32 29 26 26 27 26 27 28 27 27
36 35 35 34 33 33 33 32 32 35 34 35 37 37 37 37 39 41 40 40 41 41 40 39 42 42 42 40 39 40 37 35 35 33 32 30 27 28 28 28 29 30 31
36 35 34 33 33 34 35 36 33 36 37 38 39 39 40 40 40 42 43 43 43 44 42 42 44 46 45 46 46 45 42 41 39 37 34 34 33 31 29 32 32 32 32
39 38 36 37 35 35 36 37 37 33 37 41 42 42 42 41 42 43 44 45 46 47 47 47 47 48 48 49 49 49 48 47 43 40 39 37 36 37 34 32 35 35 36
39 37 36 36 36 36 37 37 39 39 36 39 43 45 46 45 45 47 49 48 47 49 49 50 51 51 51 53 53 53 51 51 46 44 42 41 40 39 38 37 36 36 36
39 37 36 36 37 37 37 38 40 42 42 38 40 45 47 49 49 49 50 51 52 54 52 52 52 53 53 54 52 55 54 51 50 47 45 45 45 42 42 42 42 41 38
37 36 35 36 36 37 38 38 40 42 43 43 41 43 46 48 50 53 53 54 56 57 58 56 56 57 56 54 57 55 57 54 52 49 47 46 46 46 45 45 45 43 44
32 33 34 34 35 37 39 39 40 41 42 43 44 44 45 46 47 48 50 54 55 57 59 60 60 60 60 60 59 58 56 57 56 55 51 49 47 46 46 44 46 45 44
32 34 35 35 37 38 39 39 40 40 40 40 42 44 44 45 46 47 49 52 55 57 59 61 63 64 65 63 61 59 58 58 57 57 55 52 51 50 49 49 48 49 50

GFSSE_500_spd_057.txt.gz
Wind_Speed
13 12 11 9 8 6 5 6 6 7 8 9 10 11 12 14 14 15 15 15 15 15 15 15 16 17 17 17 18 18 18 18 19 19 18 18 17 16 16 17 17 17 17
12 11 10 8 7 7 6 6 8 9 10 11 12 13 14 15 15 15 15 15 16 16 15 15 15 16 16 17 18 18 17 18 18 18 18 18 18 17 17 17 17 17 16
12 11 10 9 8 8 9 9 10 12 12 13 13 14 14 14 14 14 14 13 13 14 14 14 14 14 15 17 17 16 17 17 17 18 17 17 17 17 17 16 16 17 17
13 12 11 11 11 11 12 13 12 12 12 12 13 13 14 15 14 14 14 14 14 14 15 15 15 16 16 17 18 17 17 16 16 17 17 16 17 17 17 17 17 17 18
15 14 14 14 14 13 12 14 14 12 12 13 14 14 14 14 14 15 15 16 16 16 16 16 17 17 17 18 18 17 18 17 16 17 17 18 17 17 17 18 18 16 17
17 16 16 17 16 15 14 13 13 14 14 13 13 14 15 17 17 16 16 16 16 16 15 16 16 16 17 17 18 18 18 17 19 19 19 18 17 17 17 16 16 16 17
20 19 18 19 18 16 15 14 14 14 15 15 15 17 18 18 17 16 17 16 16 16 16 16 16 17 18 18 19 20 19 19 20 19 17 17 17 17 15 15 16 17 17
23 22 21 20 20 19 17 16 14 13 13 15 19 20 19 17 17 18 17 17 17 17 17 17 18 18 18 18 18 19 19 19 19 19 20 20 20 19 18 17 17 18 19
25 24 23 22 21 20 18 16 16 16 16 16 18 19 18 16 16 17 17 17 18 18 18 18 18 17 17 17 18 18 18 18 20 19 19 19 19 20 19 18 19 19 20
25 25 24 23 21 20 19 18 18 19 20 20 18 17 17 17 17 17 18 19 19 19 19 19 19 18 17 17 17 17 18 17 19 19 20 19 19 19 20 20 20 20 21
27 26 24 23 22 21 20 21 21 21 22 22 21 17 15 15 18 18 19 20 21 22 21 20 20 20 20 20 19 19 19 19 18 20 19 20 20 22 23 22 22 21 21
27 26 26 25 24 22 22 24 24 24 23 22 21 20 18 17 17 18 19 20 21 21 21 22 22 22 23 23 22 21 22 21 20 21 20 21 21 21 22 22 22 21 22
29 28 26 26 25 23 25 25 25 24 23 23 22 21 19 19 20 20 20 20 21 22 22 22 22 23 24 25 25 24 24 24 22 21 22 21 22 21 21 22 22 22 20
30 29 28 26 25 25 26 26 25 24 23 22 23 23 22 21 23 24 24 24 24 24 24 24 23 24 26 26 27 26 26 24 23 24 24 25 24 22 22 23 22 22 20
31 30 30 27 28 27 25 25 24 24 24 24 22 24 24 22 23 24 25 24 25 26 25 26 27 26 28 28 27 27 27 26 25 25 25 27 27 26 24 23 22 22 22
33 32 30 29 29 27 26 26 24 24 26 26 23 23 24 25 25 26 26 26 27 28 28 28 29 29 30 30 30 30 29 29 28 27 26 27 27 27 26 25 25 24 23
33 32 30 30 29 28 27 26 27 26 25 24 25 24 25 27 28 28 29 28 30 30 31 31 31 32 33 33 33 33 33 33 31 30 29 28 28 28 26 26 25 25 25
35 32 29 31 31 28 28 28 28 27 27 27 27 29 29 31 32 33 33 33 34 33 34 35 35 35 35 35 36 38 39 37 36 34 31 32 31 30 29 27 26 26 26
37 33 28 28 31 31 30 28 29 31 29 30 31 31 32 33 34 35 35 35 37 37 37 37 39 41 42 41 40 40 41 41 40 40 36 36 34 33 34 31 30 29 29
36 33 32 31 30 32 35 34 30 33 34 32 32 34 34 33 33 35 37 38 40 41 42 42 42 43 43 45 46 46 45 44 43 42 41 37 37 36 36 36 35 34 33
35 34 35 37 35 34 34 36 35 34 35 36 36 35 36 38 38 38 38 40 41 43 45 47 46 46 46 47 48 49 49 49 48 48 46 43 40 39 39 39 39 39 38
38 38 38 38 38 38 38 38 38 35 33 34 37 39 42 42 40 40 41 42 43 44 45 46 48 48 46 49 50 50 51 50 48 48 48 46 45 43 41 42 41 41 41
40 41 40 40 40 40 40 38 38 38 37 35 36 38 42 45 46 45 44 43 45 47 47 49 49 49 50 51 53 55 57 55 53 53 53 50 47 45 44 45 45 45 45
38 40 42 42 42 41 39 38 38 39 38 38 38 39 41 44 46 47 46 45 46 47 49 51 52 52 52 54 57 58 57 58 58 57 55 51 50 49 48 46 46 47 47
39 40 42 42 39 37 37 37 38 38 40 40 41 40 43 43 43 44 45 46 46 46 47 48 51 54 56 58 60 61 62 61 61 60 58 56 53 51 51 52 49 46 46
37 38 38 38 37 35 35 36 37 39 40 41 42 41 41 42 41 40 41 43 44 46 48 51 54 56 57 58 61 64 65 66 65 63 61 57 56 55 53 55 51 49 46

GFSSE_500_spd_060.txt.gz
Wind_Speed
15 14 11 10 9 8 5 3 2 3 5 6 7 8 9 11 12 13 13 14 14 14 13 13 13 13 14 13 13 14 14 14 14 16 16 16 16 16 16 16 16 17 16
17 15 13 11 9 7 4 2 3 5 6 8 9 10 12 13 14 14 14 14 13 13 13 14 14 14 15 15 15 15 15 15 16 17 16 15 15 15 15 16 16 16 16
16 14 12 10 8 7 5 4 6 8 9 10 11 11 12 12 13 14 13 14 14 13 14 14 14 14 14 15 16 16 17 17 17 17 17 16 16 16 17 17 16 16 17
14 12 11 11 8 8 7 8 8 10 11 11 11 11 11 13 13 13 13 13 14 14 14 14 14 15 15 16 16 16 16 17 19 17 18 18 17 17 18 17 17 17 17
15 14 12 12 11 10 9 10 12 11 12 12 11 11 10 11 12 14 15 15 14 14 15 15 15 15 15 15 15 15 16 17 19 19 19 19 20 19 18 19 19 18 16
15 15 14 13 12 11 10 11 13 13 12 11 11 11 12 13 15 14 13 13 14 14 14 15 15 15 16 16 16 17 17 17 17 19 21 21 19 18 20 20 18 16 17
19 16 16 15 14 13 12 12 12 13 14 13 12 13 15 16 16 14 14 14 13 13 14 15 16 17 17 18 17 17 17 17 17 17 18 18 18 19 19 19 18 19 19
20 19 18 17 17 15 15 14 14 14 13 13 16 17 17 17 16 15 15 14 14 14 14 15 16 17 18 19 19 17 17 17 17 18 17 18 18 18 18 18 18 19 19
22 21 20 19 18 17 16 16 15 15 14 14 15 17 18 18 16 15 15 14 14 14 14 15 17 17 18 17 18 17 17 18 18 18 18 18 18 19 18 18 18 18 19
24 23 23 22 20 19 18 18 17 17 16 15 15 15 16 17 16 15 15 15 14 15 16 16 17 17 18 18 17 18 17 20 20 20 20 19 18 18 19 19 19 20 20
26 25 24 23 21 21 21 20 19 18 18 18 17 16 16 15 16 18 17 16 16 16 17 18 19 19 20 20 20 21 20 20 22 21 21 21 21 21 19 19 19 19 20
28 27 25 24 23 23 22 21 19 19 19 19 18 17 16 16 16 17 17 18 19 19 20 20 21 21 23 23 23 24 23 22 23 23 22 22 21 22 23 21 21 19 19
30 29 27 26 25 24 23 22 20 20 20 20 18 18 18 18 18 17 17 17 19 20 21 22 23 24 24 24 24 25 24 23 23 24 24 24 23 23 23 23 24 23 21
29 29 29 28 26 26 24 23 21 21 21 21 21 19 19 19 20 20 19 19 20 22 24 25 25 26 27 27 27 28 27 25 24 24 25 25 24 24 23 24 24 24 23
33 32 30 28 27 27 26 24 23 23 22 22 22 21 20 20 22 23 23 22 23 25 26 27 28 28 28 30 30 31 31 29 28 27 27 28 28 26 25 24 25 24 23
36 35 32 30 28 27 26 26 25 25 24 23 23 24 22 22 23 24 26 26 27 27 28 28 29 29 29 30 32 33 35 34 33 32 30 28 30 30 28 28 27 26 26
38 37 35 32 30 28 28 27 25 26 25 24 23 25 25 26 26 26 26 28 31 31 31 30 31 32 32 33 34 35 36 37 36 35 35 32 32 32 31 30 30 29 28
38 37 35 34 32 29 30 27 27 26 26 25 26 27 28 29 29 29 30 31 33 31 31 32 34 34 35 36 37 39 41 41 40 39 38 37 34 33 33 33 33 32 31
38 36 35 34 32 32 31 30 29 29 27 27 27 28 31 31 31 30 31 31 33 34 34 35 36 37 38 39 40 42 43 43 44 43 42 42 40 37 36 36 35 35 36
38 36 34 32 34 34 34 33 31 30 29 30 31 29 32 32 33 34 34 33 36 37 37 39 40 41 41 42 43 44 45 46 46 45 45 45 44 42 42 42 40 38 38
39 37 36 35 35 35 36 35 33 32 32 33 33 33 34 33 34 34 36 37 38 40 42 43 44 44 45 45 45 45 47 46 47 48 48 49 49 46 42 43 44 44 43
38 38 39 39 40 38 35 35 35 35 36 36 38 37 35 36 37 38 39 39 40 42 43 45 46 46 47 47 49 49 49 50 50 53 55 54 54 54 50 46 45 46 47
41 42 41 40 39 39 39 37 37 37 38 38 38 38 39 40 41 43 42 42 42 43 44 45 45 47 47 47 47 50 51 50 51 53 56 58 58 56 53 50 48 46 47
43 44 44 42 40 39 38 39 39 39 40 40 38 37 39 41 43 45 46 46 44 43 44 44 44 44 47 47 49 51 55 56 57 58 56 57 59 59 59 57 56 53 51
43 43 45 43 42 42 43 42 41 40 40 40 38 38 39 42 43 45 46 45 44 45 44 42 44 44 47 50 52 53 53 55 59 62 63 62 60 60 62 60 57 52 52
42 42 40 43 45 43 40 42 43 42 40 39 39 40 42 44 44 44 43 43 43 42 43 43 44 47 50 45 47 51 56 60 65 69 69 66 59 59 66 61 61 59 53

GFSSE_500_spd_063.txt.gz
Wind_Speed
16 14 12 11 10 9 8 6 4 1 1 3 4 6 7 9 10 12 12 13 14 14 15 15 14 14 14 14 13 14 15 15 15 16 17 18 18 18 17 17 17 16 16
15 16 13 13 11 10 7 5 3 2 3 5 6 8 10 11 13 13 13 13 13 13 14 14 14 14 14 14 15 15 16 16 17 16 17 18 18 18 18 18 17 17 16
17 16 15 13 12 10 7 5 4 4 5 8 9 10 11 12 12 12 12 11 11 11 12 13 13 13 13 14 15 16 16 16 16 16 17 17 18 18 19 18 19 18 18
15 13 13 12 11 9 7 7 5 6 7 8 9 10 11 11 11 10 11 12 12 12 11 11 12 12 13 14 15 16 16 15 16 17 17 17 18 19 20 19 19 20 19
16 15 14 13 10 8 8 8 8 7 8 9 10 10 10 11 11 13 14 13 12 12 11 11 11 12 14 16 16 18 18 18 17 17 17 17 18 19 18 18 19 20 18
17 15 14 12 11 9 7 8 10 11 10 10 11 11 11 12 13 14 14 13 13 13 12 12 12 13 14 16 17 19 19 19 20 19 18 18 18 18 18 19 19 18 17
17 16 15 13 12 10 8 9 10 12 14 13 12 12 13 14 14 14 14 13 14 14 14 14 14 14 15 17 18 19 18 18 19 19 19 19 19 19 19 18 18 18 18
20 19 16 14 13 12 10 11 11 12 13 15 15 16 15 16 15 14 13 14 15 15 15 15 16 16 17 17 18 19 18 18 18 18 19 19 20 20 20 19 19 19 19
22 20 18 16 15 14 13 13 13 14 14 14 14 17 19 17 15 15 14 15 16 16 16 16 16 17 17 17 19 20 20 21 21 21 21 21 21 21 20 19 20 19 20
23 21 20 19 18 16 15 16 16 14 14 14 14 15 17 17 17 15 15 16 17 17 17 17 17 17 17 18 19 21 23 23 23 22 23 23 22 22 22 21 21 21 21
26 25 23 21 20 18 17 18 18 16 15 15 16 16 16 16 16 17 17 17 17 18 18 18 18 18 19 20 20 20 22 25 24 23 24 23 23 23 23 22 22 21 23
27 25 24 23 21 20 19 19 19 18 17 18 17 17 16 16 17 17 18 19 20 20 20 20 19 20 22 23 23 24 24 25 25 25 24 24 24 24 24 23 23 24 23
29 27 26 25 24 22 20 20 20 19 20 20 19 18 17 18 18 19 19 21 21 21 21 22 22 23 24 25 26 27 27 27 26 27 27 26 25 25 25 24 24 24 24
31 29 28 28 27 25 24 22 21 21 21 21 20 20 19 20 20 20 20 21 21 22 22 23 23 24 26 27 27 29 30 30 30 29 29 28 28 28 28 27 26 26 25
30 29 30 29 29 28 25 24 24 23 22 22 22 22 21 21 22 22 22 22 23 24 24 25 26 27 29 30 31 31 32 33 32 32 33 32 32 32 31 31 29 28 28
35 34 32 30 29 29 27 27 26 24 23 24 24 22 22 23 24 24 24 25 26 26 27 29 30 30 31 33 34 34 34 35 35 34 34 34 35 36 36 34 32 31 30
39 37 35 34 32 30 29 29 28 27 25 25 25 24 24 25 25 26 26 28 30 29 30 30 31 32 32 33 34 36 37 38 38 39 39 38 37 39 40 38 37 35 32
40 39 37 35 33 32 31 32 30 28 28 27 27 28 28 28 28 27 29 30 32 32 32 33 34 35 36 36 36 38 40 41 41 42 41 42 42 41 40 41 42 42 40
42 40 39 38 37 36 34 34 33 32 31 31 29 29 30 30 30 31 31 31 33 34 34 35 36 37 39 40 41 41 41 42 42 43 43 43 43 43 43 44 43 43 44
42 41 41 40 40 39 37 36 35 34 33 31 30 30 32 33 33 32 33 34 35 36 36 39 39 40 41 42 42 43 43 44 42 42 44 46 46 46 47 47 46 44 43
41 40 41 42 41 40 40 38 37 35 35 33 33 33 33 34 36 35 36 36 37 38 40 41 42 44 43 44 45 44 44 44 44 44 46 46 49 49 51 50 49 49 49
43 43 42 41 41 41 42 41 39 38 37 36 36 35 36 36 37 37 37 38 40 41 41 43 45 45 45 46 47 48 46 44 44 46 48 49 50 52 52 53 54 53 51
43 42 43 43 43 42 41 40 39 38 38 37 37 38 39 38 39 39 39 41 43 44 44 45 45 45 45 47 46 48 48 46 46 47 49 50 51 53 52 54 54 54 54
44 43 43 45 44 44 43 43 42 40 38 38 40 41 42 43 43 42 42 44 45 46 46 45 44 45 45 43 45 45 47 49 46 40 45 51 55 56 57 58 58 60 60
46 46 47 48 48 47 46 45 44 44 43 42 42 42 43 44 43 43 44 46 47 49 48 45 46 45 44 44 44 47 48 44 46 50 48 53 57 59 58 56 58 59 63
42 46 48 48 49 49 49 51 51 49 46 44 42 42 43 43 42 43 45 47 49 48 46 47 46 46 45 45 48 48 45 45 48 50 52 52 51 53 57 63 63 60 57

GFSSE_500_spd_066.txt.gz
Wind_Speed
14 14 11 9 8 6 6 6 5 3 1 2 1 3 4 5 7 9 10 12 12 12 11 11 11 10 11 11 11 12 13 14 15 15 15 16 16 16 16 16 16 15 16
15 15 13 11 10 8 7 6 4 3 1 3 4 4 6 8 10 11 11 11 11 10 9 10 10 11 11 12 12 13 14 15 15 15 15 16 16 16 16 17 17 17 17
17 14 14 12 11 9 7 6 4 4 4 4 5 7 8 10 11 11 10 9 10 11 11 11 11 11 11 12 13 15 16 16 16 16 17 18 17 17 17 17 17 17 16
16 14 14 13 11 9 8 6 5 5 6 6 7 8 9 10 10 10 11 11 11 11 10 11 11 11 11 13 14 15 16 17 17 18 18 18 18 18 18 17 16 16 18
17 14 13 13 10 8 8 6 6 6 6 6 8 8 9 10 10 12 12 11 11 11 11 11 11 12 13 14 14 15 16 16 16 17 17 18 18 19 19 18 18 18 17
19 16 14 12 9 8 7 7 8 9 7 8 9 9 9 11 12 13 12 12 11 12 12 12 13 14 15 16 17 17 18 18 18 18 18 17 18 19 20 19 19 18 17
20 16 15 12 11 10 8 8 9 11 11 10 9 9 10 12 13 14 13 13 12 12 12 13 14 15 15 16 17 18 18 19 19 20 21 21 21 22 21 20 19 19 18
19 18 16 13 12 11 10 9 9 10 11 12 13 12 12 14 14 14 14 13 13 14 14 14 15 16 17 17 17 18 19 19 20 21 22 22 22 23 23 23 21 21 20
21 19 17 15 14 13 11 10 10 11 11 11 12 16 17 16 15 14 15 14 14 15 15 16 16 17 17 17 18 19 20 20 21 22 23 22 22 23 22 23 23 23 23
23 20 18 17 16 15 14 12 11 11 11 11 11 14 17 18 18 17 15 16 15 16 17 17 18 18 18 19 20 21 22 22 23 24 24 24 23 23 23 23 24 23 23
24 22 21 20 19 17 15 14 13 13 13 12 13 15 16 16 17 18 18 17 17 17 18 18 19 20 20 20 21 21 22 23 24 25 25 25 25 25 25 24 24 24 24
27 25 23 21 20 19 17 16 15 14 15 14 15 15 15 16 17 18 18 19 19 20 20 20 20 22 21 22 22 24 25 26 27 28 27 27 27 28 28 27 26 26 26
29 27 24 23 22 21 20 18 18 17 17 16 16 17 16 17 18 18 18 19 19 19 20 21 22 23 23 23 24 25 26 27 29 29 30 30 31 31 31 30 30 29 28
30 27 26 26 24 23 22 21 21 21 20 18 18 19 19 19 20 20 20 20 20 20 21 22 23 25 25 26 26 27 28 29 28 29 31 31 32 31 32 33 33 31 31
31 31 30 28 27 26 24 23 24 23 22 21 20 20 21 21 21 22 21 22 22 22 23 24 25 27 27 27 28 29 30 30 31 31 32 33 34 35 36 36 36 35 34
35 34 33 31 29 29 27 25 25 26 24 23 23 22 23 23 23 23 23 24 25 25 27 28 29 29 29 28 30 31 32 33 34 35 36 36 36 37 37 37 38 38 38
39 37 35 33 31 29 28 28 28 28 27 26 25 25 26 26 25 25 25 27 28 28 29 30 31 31 31 31 33 34 35 37 38 39 39 39 39 39 38 38 38 38 39
42 40 39 36 34 33 32 32 32 31 29 28 28 28 28 27 26 27 27 30 31 31 31 32 33 33 34 35 36 37 38 40 41 41 40 40 39 39 41 42 41 40 40
43 41 39 38 36 36 35 35 34 32 31 31 31 30 29 28 29 29 30 32 34 34 34 35 35 35 37 39 40 41 42 42 42 41 41 42 42 43 43 43 41 41 42
47 45 42 40 39 38 38 37 36 35 34 34 33 31 31 31 32 32 33 35 36 37 37 37 37 38 41 41 42 42 43 43 42 41 41 42 43 42 42 43 45 44 44
49 46 45 43 42 41 40 39 39 38 38 37 36 35 34 35 35 35 36 37 38 39 40 39 40 42 42 44 45 44 43 42 42 42 42 43 41 43 45 46 46 48 47
53 49 48 47 46 45 44 43 42 41 40 39 38 38 38 38 38 38 39 40 41 41 42 42 42 44 44 46 47 46 42 41 41 43 43 43 45 44 43 47 49 52 53
56 53 50 48 48 47 46 46 45 43 42 43 43 42 42 42 42 41 41 42 43 44 45 44 45 45 46 46 45 45 45 44 44 42 42 41 40 44 47 50 54 56 53
49 49 49 49 49 48 47 47 46 44 43 44 44 44 44 44 43 43 44 44 45 45 45 46 47 47 48 46 45 44 43 44 43 43 41 39 42 46 48 51 54 52 51
46 47 48 48 47 47 47 46 46 46 46 46 46 46 45 45 46 48 46 45 46 45 46 47 49 48 47 45 43 42 42 42 44 42 38 40 45 48 48 50 52 53 54
47 49 49 48 47 47 47 47 48 48 48 48 48 48 49 51 52 49 47 47 46 45 47 49 49 48 47 45 43 43 42 43 42 39 39 44 47 48 49 50 52 53 56

GFSSE_500_spd_069.txt.gz
Wind_Speed
14 13 11 9 8 7 5 4 3 3 3 2 1 1 2 4 6 7 8 10 9 9 8 8 8 8 8 8 9 10 12 13 14 15 15 15 15 15 15 15 15 15 15
14 13 12 11 9 8 7 6 3 3 2 1 1 2 3 5 6 8 9 9 9 9 9 9 9 9 8 8 9 11 12 14 14 15 16 16 16 16 16 16 17 17 17
15 14 13 12 10 8 7 6 4 3 2 3 3 3 4 5 7 7 9 10 10 10 10 9 10 9 9 9 11 12 13 14 14 15 16 16 16 16 17 17 17 18 17
14 14 14 12 11 9 8 7 5 3 3 4 4 5 5 6 7 8 9 9 10 10 10 11 11 10 11 12 13 14 15 15 16 17 17 17 17 17 17 17 16 17 18
13 13 14 12 10 10 9 7 5 4 4 5 6 6 6 6 6 8 9 9 9 9 10 11 11 11 12 12 13 14 15 16 16 16 17 17 18 19 19 19 19 18 17
16 14 15 13 11 10 9 7 6 5 5 6 6 6 6 6 7 9 9 9 10 10 11 12 13 13 13 13 14 15 15 16 17 18 18 19 19 20 20 21 21 20 20
18 16 15 15 12 10 9 7 7 7 6 7 6 7 7 8 9 10 11 11 11 11 12 13 14 14 14 15 15 16 17 18 19 19 20 21 21 21 22 23 23 22 22
21 19 17 16 14 12 10 7 7 7 9 10 9 9 9 9 10 11 11 12 12 12 13 13 14 15 15 15 16 17 19 20 20 21 22 23 23 23 24 24 24 23 22
23 21 19 18 16 14 11 9 8 8 8 9 11 12 13 11 11 12 12 12 12 12 14 15 15 16 17 17 18 19 20 20 21 22 24 23 23 24 25 25 25 25 25
23 23 21 19 18 15 13 11 9 9 8 8 10 11 14 16 15 14 13 14 14 14 15 16 17 17 18 19 19 20 21 21 22 23 24 24 25 26 26 26 27 27 27
26 24 23 21 20 17 14 12 11 10 9 10 10 11 12 14 15 15 15 15 15 15 16 16 16 18 19 20 21 22 21 22 23 24 24 25 25 26 26 26 27 27 28
29 27 25 23 22 18 16 13 13 12 12 12 12 13 13 13 14 14 15 15 16 17 17 18 18 19 20 21 22 24 24 24 25 26 25 25 27 28 29 30 30 29 29
30 28 27 24 22 20 18 16 15 14 14 14 15 15 15 14 14 15 15 15 16 16 18 18 20 21 22 22 24 25 25 26 26 26 27 27 28 29 30 31 31 32 31
31 29 28 26 25 22 20 18 17 17 17 16 17 18 17 16 16 17 17 17 17 18 19 20 21 23 24 25 26 27 27 27 28 28 27 28 30 32 32 33 33 34 33
33 32 31 30 28 25 23 21 21 21 19 19 19 20 20 19 19 19 19 20 20 20 21 22 24 25 26 27 28 28 28 30 31 31 31 31 33 33 34 34 35 35 35
36 35 33 32 30 28 26 25 24 23 22 22 21 22 23 23 22 22 22 23 23 22 23 25 26 27 29 29 30 30 31 33 33 34 34 35 36 37 37 36 36 35 35
38 38 36 34 33 30 29 27 26 24 24 25 25 25 26 26 25 24 25 25 25 25 25 27 29 30 31 32 33 33 35 37 36 38 37 38 38 38 38 39 38 39 39
40 40 39 37 34 32 29 27 27 27 28 28 29 29 29 28 27 27 27 28 27 28 29 31 32 33 34 35 35 36 38 39 40 40 40 41 40 39 40 39 39 39 38
43 41 40 39 37 35 33 33 32 31 32 32 32 32 32 31 30 30 29 30 30 31 33 34 35 36 36 37 37 39 40 41 41 42 42 41 40 40 38 39 39 41 41
45 45 45 43 42 39 38 37 36 35 35 35 35 35 35 33 33 33 32 33 34 35 36 37 37 38 38 39 39 40 42 43 43 44 42 42 40 38 38 39 41 40 38
45 46 45 43 43 42 41 40 40 39 38 38 38 38 38 37 37 36 36 37 38 38 39 40 41 42 41 41 41 41 42 43 44 44 43 41 40 38 39 41 38 40 43
50 51 50 48 47 46 45 44 43 42 41 40 40 40 40 41 41 40 39 39 39 40 42 43 45 45 45 43 43 44 43 43 43 43 41 41 39 39 40 38 39 43 44
57 54 52 51 49 48 47 46 45 44 43 43 43 43 43 43 44 44 43 43 43 44 44 46 49 48 46 44 45 47 47 44 41 40 40 39 39 38 38 38 42 45 46
56 57 56 54 53 53 51 50 48 47 46 46 45 45 46 46 46 47 46 45 45 45 45 50 49 47 47 44 46 48 45 44 42 40 40 39 38 36 35 40 44 45 46
55 54 51 54 56 57 58 57 54 51 50 49 48 48 47 47 48 48 47 47 47 49 53 50 48 47 45 45 47 47 45 43 41 40 38 37 37 36 39 43 45 46 47
50 48 47 49 50 51 51 52 53 52 51 50 49 49 48 49 49 50 50 50 53 52 50 49 47 45 46 47 46 45 43 41 40 39 38 37 37 37 40 44 45 47 48

GFSSE_500_spd_072.txt.gz
Wind_Speed
14 13 12 10 9 8 6 5 4 4 5 4 4 3 1 1 3 5 5 6 6 7 7 8 8 7 8 9 10 11 11 12 12 13 14 15 15 16 16 17 17 18 18
18 15 13 12 10 8 6 5 5 5 4 3 3 2 2 3 4 4 5 5 7 7 7 7 8 9 9 10 10 11 12 13 13 14 16 16 17 17 17 17 18 18 18
18 16 13 13 11 9 7 6 6 5 4 3 2 2 3 4 4 4 5 5 6 7 7 7 8 8 9 10 11 11 12 13 14 15 16 17 17 18 18 19 20 20 20
18 16 14 13 13 10 9 8 7 6 5 4 3 3 4 4 4 5 6 7 7 7 6 7 8 9 10 11 11 12 12 13 14 15 16 17 18 18 19 19 20 20 21
16 14 14 14 13 12 10 9 8 6 5 4 3 4 5 4 4 6 7 8 8 8 8 8 10 11 12 13 13 14 14 14 15 17 18 19 20 20 21 20 21 22 22
15 14 14 14 14 13 12 11 9 8 5 4 4 5 5 5 5 6 7 7 8 8 8 9 10 11 13 13 14 14 15 16 17 18 18 20 22 22 22 22 23 24 24
17 16 16 15 15 14 12 11 10 7 5 4 5 6 5 5 6 7 8 8 8 9 10 10 11 12 13 14 14 15 16 17 18 19 20 21 22 23 24 24 24 25 25
22 20 19 17 16 14 12 11 9 7 6 5 6 6 5 5 6 8 9 9 9 9 11 12 12 13 14 15 15 16 17 18 19 19 20 21 22 23 23 24 24 23 23
26 23 21 20 18 17 14 12 10 8 7 7 8 8 7 6 7 8 9 10 10 10 11 13 14 14 15 16 17 18 19 20 20 20 21 21 22 23 23 24 24 24 24
28 24 24 23 21 19 17 14 12 10 8 9 9 10 10 9 9 9 9 10 11 12 12 13 14 15 16 18 19 20 20 21 22 23 23 24 25 24 24 25 25 26 25
28 26 26 25 24 22 19 16 14 12 11 10 10 10 11 12 12 11 10 10 11 12 13 14 15 16 17 19 20 21 22 23 23 24 25 26 27 27 26 26 27 28 28
33 29 27 28 26 24 21 18 17 14 13 12 12 12 12 13 13 13 13 13 13 13 14 15 17 18 19 20 22 23 25 25 26 26 27 29 29 29 29 29 30 30 30
36 31 30 31 28 25 22 20 18 16 15 14 14 13 13 14 14 14 14 14 14 14 16 18 18 20 21 22 23 24 25 26 26 27 28 29 30 31 32 33 32 33 32
36 34 31 31 28 26 24 22 20 19 17 16 16 16 15 15 15 15 16 16 16 17 18 19 20 22 22 23 25 26 27 28 28 31 32 32 32 33 33 34 35 35 34
36 34 33 32 31 29 27 25 23 21 20 20 19 18 17 17 17 17 18 18 18 19 21 22 23 24 25 26 27 28 30 30 30 33 34 34 35 35 35 35 35 34 34
38 37 36 34 33 31 29 28 26 25 23 22 21 20 19 19 19 21 21 21 21 22 23 25 26 27 27 29 30 31 32 32 33 35 36 36 37 37 38 37 35 35 35
38 38 37 36 35 34 33 31 29 26 25 25 24 23 22 22 23 24 24 24 25 26 26 27 28 29 31 32 34 34 35 34 35 38 37 38 39 39 39 37 37 34 35
39 37 36 37 38 37 36 34 31 28 28 27 26 25 25 26 26 27 28 29 29 28 28 30 31 32 33 36 36 37 37 37 38 39 40 40 41 42 40 39 37 37 36
40 38 37 37 38 38 37 35 33 31 30 30 29 29 29 30 30 30 31 31 31 31 32 32 34 35 36 37 38 38 40 40 40 40 41 42 43 42 41 40 40 38 36
41 41 42 43 40 42 41 38 36 35 35 34 33 33 33 33 33 32 32 33 34 34 35 36 36 38 39 40 41 41 42 42 42 42 44 45 44 44 43 42 40 38 38
42 41 42 42 40 42 41 41 40 40 40 38 37 37 36 36 36 36 35 37 37 38 39 39 40 41 41 42 43 44 43 43 43 43 45 46 46 44 42 40 39 40 38
45 42 39 42 44 46 46 45 44 43 42 41 41 40 40 40 40 40 40 39 40 41 42 42 43 44 44 44 47 49 44 42 42 44 46 46 46 44 42 41 41 40 38
47 46 45 44 44 45 45 45 45 46 46 46 44 43 43 43 43 43 43 43 43 44 43 44 45 46 47 48 52 49 47 45 42 44 44 45 43 42 40 42 41 40 37
49 50 52 52 52 51 49 49 49 49 49 48 47 47 46 46 46 47 46 46 46 46 46 45 46 47 50 52 48 47 47 44 45 45 45 43 41 40 40 41 40 39 41
51 53 55 54 53 54 54 52 50 50 49 50 51 51 51 50 50 49 49 48 48 48 47 47 48 50 54 52 51 47 42 44 47 47 46 43 41 39 40 40 40 40 42
52 54 54 57 58 55 53 54 56 57 58 58 58 59 57 54 53 52 51 51 50 50 49 49 51 52 49 47 44 41 44 47 47 48 44 41 40 38 38 41 42 41 42

GFSSE_500_spd_075.txt.gz
Wind_Speed
17 16 13 13 11 10 7 6 5 3 3 4 4 4 4 2 3 3 4 4 4 4 5 6 7 8 8 9 10 10 11 11 12 12 14 15 16 17 17 18 19 20 21
17 15 14 14 12 10 8 6 5 4 4 4 4 4 3 3 4 4 4 4 4 5 5 5 6 7 8 9 10 10 11 12 12 14 15 15 16 18 19 20 20 21 22
20 18 16 15 12 10 9 8 6 5 5 4 3 3 4 4 4 4 4 4 5 5 5 5 6 7 8 10 11 12 12 13 14 15 16 17 18 20 21 22 22 23 24
19 18 17 14 13 11 9 9 8 7 6 4 3 3 4 4 4 3 4 4 5 5 5 5 7 8 9 10 11 12 13 14 15 16 16 18 19 20 21 21 22 23 23
19 18 18 15 13 12 11 11 10 8 7 5 4 4 4 5 5 4 4 5 5 5 6 6 7 9 10 11 12 13 14 15 15 16 17 18 19 19 20 20 21 22 23
19 18 17 15 14 13 13 13 11 10 8 6 5 5 5 5 5 5 5 6 6 6 7 8 8 9 11 11 12 13 14 15 16 17 18 18 19 20 21 22 22 22 23
22 19 17 15 14 14 15 14 12 11 9 6 6 5 6 6 5 4 5 6 7 7 8 9 10 10 11 12 13 14 15 16 17 18 19 20 21 23 23 23 24 24 24
22 21 18 17 15 14 16 15 13 11 9 7 7 7 6 6 5 5 5 7 7 7 8 9 10 11 12 12 14 15 16 18 18 19 21 22 23 24 25 24 24 23 23
24 21 21 19 17 16 16 15 14 12 10 9 8 8 7 6 5 5 6 7 7 8 8 9 10 11 12 14 15 16 18 19 20 21 22 23 24 26 27 26 25 26 26
28 25 23 22 20 19 18 17 15 13 11 10 10 9 8 6 6 6 8 8 8 9 9 11 12 12 14 15 16 18 19 20 22 23 24 24 25 28 29 27 27 29 29
31 29 27 24 24 23 21 20 18 15 13 12 12 11 10 9 8 8 8 9 9 10 11 12 13 15 17 18 19 20 22 23 24 25 26 26 29 32 32 31 31 32 30
33 32 30 27 27 26 25 22 20 18 15 15 14 13 12 11 11 11 11 10 11 12 13 15 16 18 19 21 22 24 25 27 27 27 26 27 30 33 34 34 34 34 33
36 35 31 29 28 29 27 25 22 20 18 17 16 15 14 13 12 12 11 12 12 13 14 16 17 19 21 22 23 25 26 28 29 29 28 28 31 32 33 35 35 35 35
39 38 35 32 29 30 29 27 25 23 20 20 18 17 16 15 15 13 13 13 14 14 16 17 18 20 22 24 25 26 28 30 31 32 30 31 32 34 34 34 36 37 35
41 39 36 33 31 32 31 29 27 24 23 21 20 19 19 18 17 16 15 15 15 16 18 19 20 22 23 25 26 28 30 32 33 34 33 33 35 35 35 36 38 37 36
42 41 39 37 34 33 33 31 28 26 25 24 22 21 20 20 19 18 19 18 19 20 21 21 23 24 26 27 29 30 32 33 35 35 35 35 36 36 37 38 40 39 36
44 43 40 37 34 34 34 32 30 29 29 27 25 24 23 22 20 21 22 22 22 24 24 25 25 27 29 30 32 33 34 35 37 38 38 38 37 37 38 40 42 41 37
43 42 39 35 34 34 35 34 33 32 32 30 29 28 27 24 23 24 25 25 26 27 27 28 28 29 31 33 34 36 37 37 39 40 42 41 40 39 40 42 43 40 37
43 42 40 36 34 35 37 36 36 35 34 33 32 31 29 27 27 28 29 29 29 29 29 30 31 32 33 36 37 38 39 40 40 43 44 43 42 40 41 43 42 43 40
45 43 41 38 37 37 38 39 39 38 37 36 34 34 33 32 32 32 32 33 33 32 33 33 34 35 37 38 39 40 41 41 42 45 44 43 43 42 43 44 45 44 42
47 45 44 41 39 39 40 39 39 39 38 38 38 37 37 36 36 36 36 36 36 36 36 36 38 39 40 40 40 42 42 43 46 46 45 44 43 43 44 46 47 44 41
46 45 44 42 41 41 42 42 42 40 37 40 40 41 40 40 40 40 39 39 40 40 40 41 41 42 43 43 44 45 44 46 48 44 42 42 43 45 47 49 47 43 40
46 45 45 45 42 42 42 41 41 41 43 44 43 42 41 42 43 43 43 43 43 44 44 44 45 46 46 45 46 47 49 51 50 45 41 40 43 47 49 48 44 42 39
55 47 44 44 45 44 42 41 42 42 45 44 44 45 44 45 46 46 47 46 47 48 48 48 48 48 48 47 48 47 50 49 47 44 42 42 46 49 48 46 43 40 39
49 57 50 48 48 46 49 49 48 49 49 49 48 48 47 47 47 48 50 51 52 52 51 51 50 50 50 50 50 50 49 47 45 43 44 46 50 48 45 44 42 40 40
48 49 58 54 51 51 52 53 54 53 54 54 54 53 52 51 52 54 55 55 55 53 53 53 53 51 51 51 51 50 47 45 43 45 48 51 50 46 43 43 42 42 42

GFSSE_500_spd_078.txt.gz
Wind_Speed
18 16 13 11 10 9 8 8 5 4 3 2 2 2 3 4 3 3 3 3 3 4 4 5 6 7 7 8 9 10 11 12 13 14 15 16 17 18 19 19 20 21 21
18 17 15 13 12 10 9 7 5 4 3 3 3 3 3 3 3 3 3 3 3 4 4 5 5 6 7 8 9 10 10 11 13 14 15 16 17 18 18 19 20 20 20
19 17 14 13 12 11 9 8 7 6 5 4 4 3 2 3 3 3 3 3 4 4 5 5 6 6 7 8 8 9 10 11 12 13 14 15 16 18 19 20 20 21 21
21 19 17 15 13 12 10 9 8 7 6 6 5 4 3 3 3 3 3 4 4 4 4 5 5 7 6 7 8 9 10 11 12 13 14 15 18 19 21 22 22 22 23
21 18 17 15 14 13 12 10 9 8 8 7 5 5 4 3 3 3 3 3 3 3 4 5 5 6 7 7 8 10 11 12 13 15 16 17 19 20 22 22 23 24 25
23 19 16 16 15 13 13 12 11 10 9 8 7 5 4 3 3 4 3 2 2 3 4 5 6 6 7 9 10 11 12 13 14 16 17 19 20 21 21 24 26 25 24
25 21 18 16 16 15 14 14 13 12 11 10 8 6 5 4 4 5 3 2 2 3 4 5 6 7 9 10 11 12 13 15 17 18 20 21 22 22 22 26 25 24 24
26 23 20 17 16 15 15 15 15 14 12 11 9 8 6 4 5 5 3 2 2 4 4 6 7 9 10 11 12 13 15 17 18 20 22 23 22 21 24 26 25 24 25
27 23 22 19 17 16 15 16 16 15 13 12 10 9 7 6 5 5 4 3 3 4 5 6 8 9 10 12 13 15 16 18 20 22 23 24 23 23 26 27 27 27 28
30 25 22 20 19 17 17 17 17 16 15 13 11 10 8 7 6 6 5 5 4 5 6 7 8 9 11 12 14 15 17 19 21 24 25 26 25 26 28 28 29 30 29
32 29 25 22 22 21 19 18 18 18 16 13 12 11 10 9 7 6 6 7 6 6 7 8 9 10 12 13 15 16 18 20 23 25 27 28 29 28 29 30 31 31 31
33 32 29 26 24 24 23 21 20 19 17 15 14 12 11 11 10 9 9 8 8 8 9 10 11 12 14 15 16 18 19 21 24 26 28 29 30 29 31 32 32 31 33
36 35 32 27 25 26 27 24 23 22 20 18 16 14 13 13 11 11 11 10 11 11 11 12 13 14 15 16 18 20 21 23 25 27 30 30 31 31 32 33 33 32 34
42 37 33 29 27 26 28 27 25 25 24 21 19 17 16 15 14 13 13 12 12 12 13 14 15 16 18 18 20 20 23 25 27 29 30 31 33 34 34 33 33 33 35
42 38 34 31 27 27 27 29 28 27 27 24 22 21 19 17 16 15 14 14 14 14 15 17 17 17 19 20 22 23 25 27 29 30 32 33 34 36 36 35 35 33 35
36 40 31 30 30 30 29 30 30 29 29 27 25 23 21 20 18 18 17 17 16 17 18 19 19 20 21 22 23 24 27 28 30 32 33 33 35 39 38 37 36 36 36
41 37 30 32 34 31 30 30 31 30 30 29 28 26 23 22 21 21 21 21 20 20 21 21 22 23 23 24 26 27 28 31 32 34 34 35 37 40 40 39 36 37 37
37 36 36 37 36 33 31 30 32 32 32 32 30 29 26 26 25 25 24 23 23 24 24 24 25 26 26 27 28 29 30 32 33 36 37 38 41 41 37 37 38 39 38
43 41 40 40 38 35 32 32 32 33 33 34 33 31 30 29 29 28 27 27 27 27 27 28 28 29 29 30 31 32 33 35 36 36 37 40 44 42 38 38 38 38 39
43 43 41 40 39 36 34 33 32 34 35 36 35 34 32 32 31 30 31 31 31 31 31 31 31 32 33 34 34 34 36 37 38 39 40 43 45 43 40 41 38 39 41
49 45 43 41 37 37 37 35 34 34 36 37 37 36 35 33 34 34 34 35 35 34 34 35 35 36 36 37 38 38 38 41 42 43 41 44 45 43 40 38 42 42 44
50 48 44 42 42 39 38 38 37 34 36 38 39 39 34 36 36 37 38 37 37 37 37 38 39 39 40 41 41 42 43 42 43 45 45 42 42 39 42 40 43 45 48
53 48 47 44 43 42 40 40 39 39 38 38 37 35 39 38 39 40 39 40 40 40 41 41 41 42 43 44 45 46 47 46 45 45 45 41 40 39 41 43 46 47 47
65 55 44 45 45 42 43 40 41 41 40 39 39 39 40 44 43 44 43 43 44 44 44 43 45 47 48 47 47 48 49 48 49 45 46 43 41 42 44 47 49 45 44
48 52 58 53 44 43 44 43 44 44 43 41 42 44 44 45 45 46 47 47 47 47 48 49 51 51 51 51 50 50 49 49 49 46 43 42 43 45 47 49 48 43 40
46 46 45 51 56 61 50 45 45 47 49 50 49 50 49 49 50 50 52 52 51 52 53 55 55 52 51 50 52 51 51 49 45 43 43 42 44 46 49 49 45 42 39

GFSSE_500_spd_081.txt.gz
Wind_Speed
18 17 14 11 9 8 7 6 5 5 3 3 3 3 2 3 3 4 5 4 4 4 4 4 4 5 5 6 6 7 8 9 9 10 11 13 14 15 16 18 20 20 20
21 18 16 13 11 10 8 7 6 6 4 4 4 3 3 3 3 3 4 4 3 4 4 4 4 4 4 5 6 7 8 8 9 10 12 13 15 17 18 19 20 20 21
22 20 18 16 13 11 9 8 7 6 5 4 4 4 4 4 3 3 4 3 3 3 3 3 3 3 4 5 5 7 7 8 9 11 12 14 15 17 18 19 20 21 22
23 20 19 15 14 12 11 9 8 7 6 5 5 5 4 4 3 3 4 3 2 2 1 2 2 3 5 5 6 7 8 9 12 13 14 15 17 18 19 19 21 22 21
24 22 19 16 15 13 13 11 9 9 8 7 6 6 5 4 4 3 4 3 2 1 1 2 2 3 4 5 6 8 9 10 12 13 15 17 19 20 19 20 22 22 21
26 23 19 17 16 15 14 13 11 10 9 9 8 7 6 5 4 4 4 3 2 1 1 1 2 3 5 7 7 8 10 11 13 15 17 18 19 20 20 22 23 23 23
27 25 20 16 16 16 14 14 13 12 12 11 10 9 8 6 5 4 4 4 4 3 2 2 2 3 5 6 7 8 10 11 13 15 17 18 20 20 21 23 25 23 24
29 26 23 19 17 16 15 14 14 14 13 12 11 11 9 7 6 5 5 5 5 4 3 2 2 4 5 6 8 9 10 11 12 15 16 18 20 21 21 22 24 24 25
30 28 25 22 18 17 15 16 15 15 16 15 13 12 10 9 7 7 6 5 4 3 2 2 3 4 5 6 8 9 10 11 14 15 18 19 21 23 22 23 24 26 24
32 30 28 25 22 19 17 17 17 17 17 17 16 13 12 10 9 8 6 5 4 4 3 3 3 4 5 7 8 10 12 13 15 17 19 21 22 24 24 25 26 27 27
35 32 30 27 24 21 18 17 17 18 18 17 16 15 14 12 10 8 7 6 6 5 4 4 4 5 7 8 10 11 13 14 17 19 21 22 24 24 25 26 27 28 28
37 34 32 29 26 23 20 18 18 19 19 18 18 16 14 13 10 9 8 7 7 7 7 6 6 7 8 9 11 12 14 16 18 20 22 23 25 25 27 29 29 29 29
40 38 34 31 27 25 22 21 21 21 21 20 20 18 16 14 13 11 10 9 9 9 8 8 9 9 10 11 12 14 14 17 20 22 23 24 26 27 28 31 32 31 31
35 33 34 32 29 26 23 23 23 22 23 22 23 21 19 17 15 13 13 11 11 11 10 11 12 12 12 12 14 15 17 18 20 22 24 26 28 29 30 32 32 32 31
38 42 38 35 31 26 24 23 24 24 24 25 26 24 23 21 18 16 15 14 14 14 14 14 14 15 16 16 17 18 19 21 23 24 26 28 31 31 32 34 35 32 31
40 43 42 40 36 30 27 23 24 26 26 27 27 26 26 23 20 19 17 17 17 17 17 17 17 17 18 18 19 19 21 23 24 25 27 29 31 33 35 36 35 32 32
42 46 44 39 36 37 30 26 26 28 29 29 29 29 28 26 23 22 21 20 20 20 20 20 20 20 20 20 21 21 23 25 27 28 29 30 31 32 35 38 39 36 35
47 28 36 39 36 27 30 26 25 29 30 30 32 30 29 28 26 26 24 24 24 23 23 22 22 23 23 23 23 24 26 27 29 30 32 35 36 36 36 37 38 37 34
51 38 33 34 35 31 27 25 29 29 30 32 33 32 31 30 29 28 28 27 26 25 25 25 25 25 26 26 27 27 29 30 32 33 35 35 38 39 39 38 37 33 32
56 49 45 37 31 33 31 32 30 30 30 32 33 33 33 32 30 30 30 30 28 28 29 28 28 28 28 29 30 30 32 33 34 36 37 38 39 41 39 39 37 34 33
58 44 40 42 34 32 34 32 33 31 31 32 34 34 32 31 31 32 31 31 32 31 32 32 31 31 31 32 32 33 33 35 37 39 40 40 40 42 41 39 37 36 36
53 52 43 36 38 38 35 34 34 32 32 35 34 31 33 33 34 34 34 34 34 34 35 36 35 35 35 36 37 37 37 36 39 40 42 43 43 41 39 38 36 37 38
46 55 47 42 40 35 33 39 31 34 35 35 32 31 33 33 33 36 38 37 37 38 39 39 39 39 40 38 41 43 43 42 39 41 43 42 42 40 37 36 36 38 41
43 48 57 50 43 41 41 42 42 36 35 35 36 38 36 35 36 35 41 44 43 44 43 43 42 43 43 44 46 49 47 48 47 46 44 45 43 40 38 37 38 40 42
52 50 47 51 58 47 44 41 41 40 40 40 42 41 41 40 41 42 43 44 46 46 46 46 46 46 48 50 52 51 49 47 48 49 46 43 42 41 39 39 41 42 43
52 51 47 46 47 55 59 46 44 45 45 46 46 47 46 46 45 46 45 46 48 50 50 51 50 53 53 52 53 51 48 47 47 46 44 42 42 41 41 42 42 43 44

GFSSE_500_spd_084.txt.gz
Wind_Speed
18 16 14 13 10 9 7 6 5 5 5 5 5 5 4 4 4 4 4 4 5 5 5 4 2 1 1 1 2 2 3 5 6 7 8 10 12 13 14 16 16 18 19
20 19 17 15 12 11 9 7 6 7 6 6 6 5 4 4 4 4 4 5 5 4 4 3 1 1 1 1 1 2 4 5 6 8 9 11 13 14 15 16 18 19 20
23 22 19 16 14 12 10 8 8 8 8 7 6 5 4 3 4 4 5 5 5 4 4 3 2 2 2 1 2 3 5 6 7 8 10 12 14 15 16 16 18 19 20
25 22 22 19 16 15 12 10 10 10 9 8 6 5 5 4 5 5 5 6 5 5 4 3 2 2 2 2 3 4 4 5 7 8 11 12 14 15 16 17 19 20 20
27 25 22 19 17 15 14 12 12 11 10 9 7 6 6 5 5 6 6 6 5 4 4 3 2 2 1 2 3 4 5 7 9 10 11 12 14 15 16 18 19 20 20
30 28 26 22 19 17 16 15 13 12 11 10 9 8 7 7 6 7 7 7 7 6 5 4 3 2 1 2 3 4 5 7 8 9 11 12 14 15 16 18 18 19 20
34 30 26 24 22 19 18 16 15 14 13 12 11 10 9 9 8 9 8 8 8 7 6 5 4 2 1 2 3 5 6 7 8 9 11 12 14 16 17 17 18 19 21
37 31 26 24 22 21 20 18 17 16 15 14 14 13 11 11 10 10 9 9 9 8 7 5 3 2 1 2 3 4 5 6 8 10 11 13 15 16 17 17 18 19 20
41 34 28 25 23 21 21 19 18 17 16 15 16 15 14 13 12 11 10 9 9 8 7 5 4 2 2 2 4 4 6 6 8 11 13 15 16 17 18 19 20 21 21
41 36 32 29 25 23 22 20 18 18 17 17 17 17 16 14 13 12 11 10 9 8 7 5 4 4 3 3 4 5 6 8 10 12 14 16 17 19 19 21 22 23 23
43 39 36 32 30 27 24 21 20 19 18 18 18 18 18 16 15 14 12 11 10 9 8 7 6 5 5 5 6 6 8 9 11 13 15 17 19 20 21 22 24 25 24
42 39 36 33 31 29 25 23 21 19 18 19 19 19 19 18 16 15 13 12 11 11 10 9 9 8 8 8 8 8 9 11 13 14 16 18 20 22 24 24 25 26 27
43 46 41 37 35 31 27 24 22 20 19 20 20 20 19 19 17 15 15 13 12 11 11 12 11 11 10 10 10 10 11 13 15 17 18 20 20 22 25 27 28 29 29
44 47 42 38 34 32 29 26 24 23 21 20 21 22 21 20 18 17 15 15 13 13 13 14 13 13 12 13 13 14 14 15 16 18 20 22 22 24 27 28 29 30 31
43 38 44 34 33 32 30 27 25 26 23 21 23 24 24 23 21 19 18 17 15 16 16 16 16 15 15 15 15 16 16 18 19 20 22 24 25 27 29 29 31 31 31
29 43 41 39 37 35 32 29 28 28 26 25 25 26 25 25 24 22 21 20 19 18 18 18 18 18 18 18 17 18 19 20 22 23 25 26 28 30 31 33 34 33 33
36 31 41 39 39 40 39 35 33 30 27 27 27 27 27 27 26 25 24 23 21 20 20 20 19 20 20 20 20 20 21 22 24 26 27 27 30 32 33 35 36 37 35
40 40 34 36 37 38 39 39 38 34 28 27 28 29 29 30 29 28 27 27 25 24 24 23 23 22 22 22 22 22 23 24 26 28 29 30 33 34 34 35 36 34 34
46 40 36 35 35 42 41 39 37 34 27 26 29 33 31 30 31 29 30 30 28 27 26 26 25 25 24 24 24 24 26 27 28 30 32 32 35 35 36 36 37 34 33
47 45 35 32 28 31 36 28 26 31 28 28 30 32 32 31 31 31 32 31 30 29 29 29 29 27 27 27 28 28 29 31 32 34 34 35 37 39 40 39 38 36 34
39 42 41 40 38 39 29 29 30 29 29 29 31 32 32 31 31 32 32 33 33 33 32 32 32 31 32 33 32 33 32 34 34 37 39 39 40 41 43 40 39 37 35
39 41 45 44 35 34 40 41 37 28 28 30 30 31 29 29 29 32 33 35 35 36 35 36 36 35 35 37 38 37 35 35 38 40 44 43 42 44 44 41 38 37 36
42 39 44 45 47 43 36 30 35 32 28 35 34 35 30 28 27 32 36 35 36 39 40 39 39 38 39 38 40 41 40 39 44 46 47 44 44 45 45 40 37 36 34
38 37 37 42 42 40 41 40 35 33 34 30 34 32 31 30 34 33 30 34 39 40 41 45 44 43 45 43 43 44 44 47 49 49 45 47 48 45 42 38 36 34 34
37 32 34 43 46 46 43 45 43 39 43 46 39 34 38 39 37 40 40 41 43 43 42 43 44 47 49 48 48 48 49 52 55 55 51 45 47 44 41 38 36 34 34
38 38 37 39 46 48 46 43 42 49 44 36 36 38 42 42 44 45 44 45 46 47 47 46 47 50 51 52 52 52 52 52 53 53 53 49 47 43 41 39 36 35 35

GFSSE_500_spd_087.txt.gz
Wind_Speed
21 18 15 14 12 10 9 8 7 5 5 5 6 6 5 4 4 4 5 6 6 6 5 4 3 4 3 2 2 2 2 3 5 6 8 9 11 12 13 14 16 17 18
20 18 17 15 13 12 10 9 7 6 6 6 6 6 5 5 4 4 4 6 6 6 6 5 4 3 3 2 2 1 2 3 5 6 7 8 10 12 14 15 17 18 19
25 22 19 17 16 14 12 10 9 8 8 8 7 7 6 5 4 4 4 6 7 8 7 5 4 3 3 3 2 1 2 4 5 5 7 9 11 12 14 16 18 18 19
26 24 21 20 18 16 13 11 11 10 10 9 8 7 7 6 5 5 6 6 8 8 7 6 4 3 3 2 2 2 2 3 4 5 7 9 11 13 15 16 18 18 19
28 26 24 22 22 19 16 14 13 11 11 11 9 8 7 6 6 7 7 7 8 8 8 6 4 3 3 2 2 1 1 2 4 6 7 9 11 14 16 16 16 18 19
31 29 27 24 23 22 19 17 15 13 14 13 11 9 8 8 7 8 8 9 9 9 8 6 5 4 3 1 1 1 2 3 5 7 9 11 13 15 16 15 16 17 18
34 32 30 28 25 23 21 19 17 16 15 15 13 11 10 9 10 10 9 10 10 10 9 8 6 5 3 2 1 1 2 4 5 7 9 11 13 15 16 16 17 18 18
38 36 33 30 28 25 22 21 19 18 17 16 15 13 12 12 12 12 11 11 10 10 9 8 7 6 4 3 2 2 4 4 6 8 10 11 13 14 15 17 17 19 19
41 39 36 32 29 27 25 22 21 19 18 17 16 16 15 14 13 13 13 12 11 11 10 9 8 6 6 4 4 5 4 6 8 9 10 12 13 14 16 18 19 20 21
41 40 36 32 29 27 26 24 23 21 20 19 18 18 17 16 15 15 14 13 12 11 11 10 8 7 7 6 6 7 8 8 9 10 11 12 13 15 17 19 20 21 23
42 41 39 36 32 29 27 25 24 23 21 21 20 20 19 18 17 16 15 14 13 12 12 11 10 10 9 9 9 9 9 9 10 12 13 13 14 16 18 20 22 24 24
45 50 46 40 37 33 30 27 25 23 22 21 21 21 20 19 18 18 16 15 14 13 13 12 12 11 11 10 10 10 11 12 12 13 14 16 17 18 19 21 24 25 26
53 57 50 43 39 37 32 28 27 24 23 22 22 21 21 20 19 19 18 17 15 14 14 14 14 13 12 11 11 12 13 14 15 15 16 17 18 19 21 24 27 28 29
59 59 56 48 42 40 34 31 28 25 23 22 21 21 21 21 20 20 20 18 16 15 15 15 15 15 14 14 14 14 15 16 18 18 19 20 21 21 23 26 28 30 32
46 40 39 44 46 41 35 30 28 26 24 23 22 23 23 23 22 21 21 20 18 17 16 16 16 16 16 16 17 17 18 19 19 20 21 23 23 24 25 27 29 31 32
48 38 43 40 44 45 40 35 29 27 26 24 24 25 25 25 25 23 23 22 21 20 19 19 19 19 18 18 19 19 20 21 21 21 23 24 25 27 29 31 32 33 34
47 42 37 38 39 37 40 39 37 32 29 27 27 27 27 27 27 26 25 24 24 23 23 23 22 21 21 21 21 22 22 22 23 24 26 26 28 30 32 33 35 36 36
43 44 31 35 40 38 41 38 39 37 35 33 31 29 29 29 28 28 27 28 28 27 26 26 25 24 24 25 25 24 24 24 25 27 29 29 30 31 33 34 36 38 38
33 38 32 19 39 35 39 40 42 40 40 37 32 33 32 32 31 29 30 31 30 30 29 29 28 28 29 29 28 26 27 28 29 31 32 33 33 33 35 37 38 40 41
35 38 34 33 32 45 34 28 36 40 38 38 33 32 34 33 32 31 33 33 32 32 32 32 32 31 31 32 31 31 31 32 32 35 35 36 36 36 39 41 40 42 43
38 33 32 33 30 19 42 24 34 44 36 33 36 35 36 34 32 32 35 36 35 35 34 34 33 33 34 36 34 35 34 35 36 36 36 38 38 43 47 45 43 45 43
38 36 35 32 35 31 28 25 26 29 27 26 34 37 32 31 35 34 35 36 37 36 36 36 36 36 38 39 39 38 35 36 38 38 39 41 45 46 47 45 46 47 44
39 41 39 35 35 40 34 33 28 28 29 27 27 28 31 25 25 26 31 36 38 40 38 38 37 37 39 40 42 42 41 39 40 41 42 44 46 48 49 46 46 46 43
44 43 37 33 33 33 37 40 35 29 27 23 30 32 31 34 37 38 30 29 25 34 37 38 37 37 39 41 43 47 51 51 47 46 45 48 49 52 50 49 46 42 39
47 47 42 37 36 36 36 34 38 31 33 35 32 34 36 33 31 32 32 40 41 36 33 35 37 41 42 44 46 47 50 52 53 54 51 53 56 56 53 50 45 41 38
37 40 41 34 35 33 34 35 36 35 33 34 34 38 37 32 34 36 41 39 42 42 43 43 46 47 49 51 52 51 52 53 54 57 60 59 53 49 47 46 43 40 37

GFSSE_500_spd_090.txt.gz
Wind_Speed
25 22 19 16 15 13 11 10 10 9 6 4 4 5 5 4 3 3 4 4 5 7 7 7 6 4 3 3 2 2 2 3 4 5 6 7 9 12 14 15 16 17 17
25 23 20 19 17 15 13 11 11 10 7 6 6 5 6 5 4 4 4 5 5 7 8 7 6 4 3 3 2 1 1 2 4 5 6 7 9 12 14 15 16 17 18
28 25 22 20 18 17 14 12 12 11 9 7 7 7 7 6 5 5 5 5 6 6 8 7 6 4 3 2 2 1 1 2 3 4 5 7 10 12 14 15 16 17 18
28 26 23 21 20 18 16 14 14 12 11 9 8 8 8 7 5 5 6 6 6 7 8 8 6 5 3 2 1 2 2 2 3 4 6 9 11 13 14 15 16 17 18
30 28 26 23 21 19 18 17 16 15 13 12 10 9 9 8 6 6 7 7 8 8 8 8 6 5 3 3 2 1 1 1 2 4 7 10 12 13 14 15 16 17 17
35 32 29 26 24 21 20 19 17 17 15 14 13 11 10 9 8 7 7 8 8 9 8 8 7 6 5 3 3 2 2 2 3 5 8 10 12 14 14 15 16 17 18
36 34 32 29 27 25 23 21 20 19 17 16 15 14 12 11 10 9 9 9 9 10 9 9 8 7 6 5 4 3 3 4 5 7 9 11 12 13 14 15 16 18 19
40 38 36 33 30 28 25 23 22 21 20 19 17 16 14 13 12 11 10 10 10 10 10 9 8 7 6 5 5 4 5 5 6 8 10 11 12 12 14 16 17 19 20
42 41 39 36 33 31 28 26 25 23 22 19 18 18 16 15 14 13 12 12 11 11 10 9 8 7 8 7 6 6 6 6 8 9 10 11 12 13 15 16 18 20 22
45 44 41 39 36 33 31 30 27 26 23 21 20 20 19 17 16 15 15 14 12 12 11 10 9 9 9 9 8 7 8 9 10 11 11 11 12 14 15 16 18 21 23
47 46 45 41 37 34 34 32 29 27 26 24 23 22 20 19 17 16 16 15 14 12 12 11 11 11 11 10 10 10 11 11 12 12 13 13 13 15 16 17 19 22 24
49 45 45 43 39 36 35 33 32 30 28 25 23 23 21 20 19 17 17 16 15 14 13 13 12 12 12 12 12 12 12 13 14 14 14 15 15 16 17 18 20 22 24
53 49 46 47 46 41 37 35 33 30 28 26 25 24 23 22 19 19 18 17 17 16 15 14 14 14 14 14 13 13 14 15 16 16 17 17 16 18 19 20 22 23 26
50 46 45 46 47 47 44 37 34 30 29 28 26 24 23 22 21 20 20 18 18 17 16 16 15 15 15 14 14 14 15 17 18 19 20 19 19 20 21 23 24 26 29
48 51 51 45 57 51 49 44 36 31 30 29 27 24 25 23 22 22 21 20 19 19 18 18 17 17 16 16 16 17 18 20 21 22 22 21 22 23 24 26 27 28 29
33 54 53 45 50 59 51 45 44 37 33 30 28 27 27 24 23 24 23 23 21 21 21 21 21 20 20 19 20 21 22 23 24 25 24 24 25 26 28 29 29 30 31
19 37 51 43 36 45 44 46 42 44 37 32 32 30 28 26 25 26 25 25 25 24 24 24 24 24 23 23 23 23 25 26 26 26 26 27 27 30 32 32 31 30 34
21 23 47 48 38 34 36 39 44 41 39 38 35 32 31 30 29 29 31 29 29 28 27 27 28 28 28 27 26 26 26 27 27 28 30 30 31 32 33 33 33 34 38
25 36 34 46 33 44 41 42 36 39 39 38 38 35 36 36 34 33 32 31 32 31 31 31 31 32 31 31 30 30 29 29 29 31 33 34 35 34 34 35 35 38 43
28 31 30 44 30 24 40 39 36 36 33 37 33 34 38 40 37 34 34 34 34 34 34 35 35 35 35 34 32 32 32 33 34 34 34 36 38 37 37 37 39 43 41
28 27 24 26 40 19 27 35 38 36 36 42 39 44 42 39 35 38 37 37 35 38 38 39 39 39 39 38 37 37 36 37 38 37 36 37 38 39 40 41 43 45 44
28 25 28 24 29 25 22 20 41 34 32 37 35 39 41 41 41 42 46 38 39 39 43 43 42 39 39 39 37 37 37 39 40 40 39 40 40 42 44 45 46 47 48
34 26 27 26 25 26 28 18 20 34 27 22 25 41 40 36 32 32 32 35 37 41 43 43 41 39 39 40 40 39 38 38 39 40 42 45 45 45 46 47 49 52 54
36 31 27 29 30 27 28 18 21 27 24 19 23 31 36 38 35 30 33 32 31 30 32 37 40 45 40 37 38 38 40 42 41 41 44 47 48 49 51 52 53 50 48
35 37 34 34 34 31 27 25 23 26 23 26 25 28 30 29 31 31 23 25 29 30 27 30 33 35 34 34 36 38 41 46 49 50 52 52 52 52 55 53 46 43 43
36 36 33 36 40 38 33 29 26 28 30 29 28 26 24 25 32 31 31 31 32 34 32 32 36 36 41 44 44 46 48 49 52 54 55 57 56 51 47 46 44 42 41

GFSSE_500_spd_093.txt.gz
Wind_Speed
27 26 23 21 18 16 13 13 12 11 9 9 8 7 6 6 4 4 3 4 4 5 6 6 5 3 2 1 1 1 2 1 2 4 5 6 9 12 13 14 15 16 17
30 27 26 23 20 19 16 14 13 13 11 10 8 8 7 7 5 5 4 4 4 5 6 6 6 4 3 1 1 0 1 0 2 3 4 7 10 12 13 14 15 16 17
31 29 28 25 22 21 18 16 15 14 13 11 9 9 8 7 6 5 4 4 4 5 6 6 5 4 3 1 0 0 1 1 2 3 5 8 10 11 13 14 15 16 17
34 32 31 28 25 23 20 19 16 16 14 12 10 10 9 8 7 6 5 5 5 5 6 6 5 4 3 2 1 1 1 1 2 3 5 8 10 11 13 14 15 16 17
36 33 32 29 26 24 22 20 18 17 17 15 13 11 11 10 9 8 6 5 5 5 6 6 5 4 4 3 2 1 1 2 2 4 7 9 11 12 12 13 14 15 17
39 36 34 30 28 26 24 22 20 19 19 18 16 15 13 12 10 8 7 6 6 7 6 6 5 4 5 4 3 2 2 2 4 6 8 11 11 12 12 13 14 16 17
43 39 35 33 30 28 26 24 22 20 21 21 19 17 15 14 12 10 9 8 7 8 8 7 7 6 5 5 5 4 3 4 5 7 10 11 12 12 12 13 14 16 17
47 43 39 36 33 31 29 27 25 24 23 22 21 19 17 16 14 13 11 9 9 9 8 8 7 7 7 7 7 6 5 5 6 8 11 12 12 11 12 13 14 16 18
48 46 43 40 37 34 31 30 28 26 25 24 22 21 20 18 16 15 13 12 11 10 9 9 8 8 8 8 8 8 7 6 7 10 11 12 12 12 13 14 15 17 19
53 49 45 43 40 38 35 32 30 28 27 27 24 23 21 20 17 16 15 14 13 11 12 11 10 10 10 10 10 9 8 8 9 10 12 12 13 14 14 15 17 19 20
59 54 51 47 44 42 38 35 32 30 30 29 27 26 23 22 20 18 17 16 15 14 13 13 13 12 12 12 12 11 10 10 11 12 13 14 14 15 16 17 19 21 22
61 55 53 50 47 45 42 38 35 34 33 31 29 28 25 24 21 20 18 16 17 15 14 14 14 14 14 14 14 14 13 13 13 15 16 16 16 17 18 20 21 23 23
64 57 53 51 49 46 45 41 39 37 34 33 31 29 27 24 23 21 19 18 18 17 16 16 16 16 16 16 16 16 16 15 16 17 18 18 19 20 21 23 23 24 25
59 54 53 51 50 47 44 43 43 41 37 36 34 32 29 26 25 23 21 19 19 19 18 17 18 18 18 18 17 18 18 18 18 20 20 20 21 22 23 24 25 26 27
60 48 53 51 47 46 46 45 44 43 43 40 37 33 32 29 26 25 23 21 21 22 21 21 20 20 20 20 20 20 20 21 22 23 24 24 24 24 25 24 25 27 28
45 55 52 44 51 49 48 48 47 46 46 43 39 36 33 29 27 27 24 25 24 25 25 23 23 23 23 23 23 23 23 24 26 27 27 27 26 27 27 27 28 29 30
39 43 51 47 50 49 50 51 49 49 47 45 44 40 34 31 30 28 28 27 26 27 28 27 27 27 27 27 26 27 26 28 29 30 30 30 29 30 31 31 32 32 32
23 33 34 49 51 51 52 53 53 55 52 47 43 41 36 32 30 31 31 28 28 30 32 32 32 31 30 31 31 30 30 31 31 32 31 32 32 33 35 35 36 35 36
30 23 18 33 48 38 41 37 46 55 52 49 43 40 39 36 35 37 35 33 34 36 36 36 36 36 33 33 33 34 34 34 33 33 33 33 34 34 37 38 38 36 36
30 19 19 21 46 30 34 40 37 43 52 47 43 42 45 41 39 40 37 36 36 38 39 39 39 38 39 37 36 37 36 36 36 35 35 37 37 36 37 38 38 38 39
32 25 27 20 22 35 36 32 42 42 39 35 37 42 41 38 41 43 41 41 40 39 42 42 41 42 42 41 38 39 37 38 39 38 38 38 39 38 39 39 41 43 44
32 23 25 24 22 22 27 25 36 37 35 36 36 36 37 38 36 32 37 42 43 42 45 46 46 45 47 45 41 40 38 39 40 39 39 39 39 38 38 41 45 47 49
29 25 24 17 13 18 22 20 11 41 29 36 35 41 43 41 37 38 38 38 37 31 31 30 38 45 49 48 44 41 40 40 39 40 37 38 39 40 42 45 49 49 51
22 21 20 21 15 14 15 12 10 19 24 35 28 30 37 38 39 40 37 37 35 36 39 37 38 42 40 36 43 45 45 41 39 37 38 39 43 46 49 50 52 54 54
24 21 19 21 17 18 22 18 21 31 27 25 21 18 21 28 30 36 39 35 32 34 31 33 39 45 40 35 39 40 39 39 38 39 42 44 47 48 50 52 51 47 44
31 29 25 23 21 23 25 28 26 26 21 22 22 23 28 27 32 31 32 33 34 29 31 26 30 36 37 36 32 39 41 44 43 46 47 48 45 44 44 41 41 42 43

GFSSE_500_spd_096.txt.gz
Wind_Speed
32 29 27 25 23 22 20 18 16 14 12 11 11 11 10 9 8 6 4 1 1 1 3 4 4 3 1 1 2 3 3 2 1 2 3 5 8 10 11 13 14 15 15
34 32 29 27 25 23 23 20 17 16 14 13 12 12 11 10 9 7 4 2 2 2 3 4 4 3 2 1 2 2 2 1 1 1 3 6 8 10 11 12 13 14 15
36 33 30 28 26 24 24 22 19 17 17 15 13 12 12 11 9 7 5 4 3 3 3 4 4 3 2 1 1 2 2 2 2 2 4 6 9 11 12 13 13 14 15
40 35 33 31 29 26 26 24 21 19 19 18 15 14 13 12 11 9 7 6 4 4 4 4 4 3 2 2 2 2 2 2 1 3 5 8 10 11 12 12 12 13 14
42 38 36 35 32 29 27 25 22 21 20 19 19 17 16 14 12 10 9 8 6 6 5 5 4 4 3 3 4 4 3 2 2 4 7 9 10 11 11 11 12 13 14
44 40 38 37 34 31 29 27 25 23 22 22 22 21 18 15 13 11 10 9 7 6 6 6 5 5 5 5 5 5 4 3 3 5 8 10 11 11 11 11 12 14 15
49 43 40 39 36 34 31 29 27 25 24 23 23 22 19 16 15 13 11 10 9 8 8 8 7 6 6 7 7 7 6 5 5 7 9 10 11 11 11 11 12 14 16
52 47 43 41 39 37 34 31 29 27 25 24 23 21 20 19 17 15 13 12 11 11 10 10 9 8 8 8 9 9 8 7 7 8 10 12 12 11 12 12 13 15 17
53 50 47 43 42 40 37 33 32 30 29 27 26 24 22 20 19 18 16 14 13 13 12 11 10 10 10 10 11 10 10 9 8 9 11 13 13 13 13 14 15 16 18
56 54 52 48 45 43 40 37 35 33 31 30 28 27 25 23 22 21 19 17 15 14 14 12 12 12 11 12 12 12 12 11 11 11 13 14 15 15 15 16 16 17 18
63 61 58 56 51 47 44 41 38 36 34 32 31 30 28 26 25 23 22 19 18 17 15 14 13 14 14 14 14 14 14 14 13 13 15 16 17 17 18 19 20 20 21
67 64 62 59 56 52 48 44 41 38 36 34 33 32 31 29 28 26 24 22 20 18 17 16 15 16 16 16 17 16 17 16 16 16 16 17 19 20 21 22 23 23 23
58 67 64 62 58 54 51 47 44 42 38 36 34 33 32 31 30 28 26 24 22 19 18 19 18 18 18 18 19 19 19 19 20 19 19 19 21 21 22 24 26 26 26
49 61 66 61 57 55 52 49 46 43 39 37 36 36 34 33 32 31 28 25 24 21 20 21 20 19 21 21 21 21 22 22 22 22 21 22 23 24 24 25 27 27 27
42 56 67 62 58 54 51 50 46 43 41 40 40 39 38 36 35 32 31 28 25 23 22 23 23 21 22 23 24 24 24 24 23 23 24 25 25 25 26 27 29 30 29
45 38 54 63 58 57 53 50 46 44 42 41 41 41 42 40 38 35 31 28 27 25 24 25 25 25 26 26 27 27 26 25 26 25 27 28 28 28 28 28 28 31 33
33 42 47 45 58 60 56 53 47 45 43 43 43 44 44 42 41 38 31 30 29 28 27 28 28 29 30 31 30 30 30 30 30 29 29 31 30 31 30 31 31 32 34
38 35 37 50 55 60 60 53 49 48 47 46 45 46 46 45 44 38 34 32 34 30 31 31 31 32 34 35 35 34 34 33 33 33 33 34 35 33 33 33 35 35 36
33 33 30 43 44 51 60 56 51 50 48 47 49 48 47 46 42 39 36 37 34 32 36 33 34 36 38 39 39 38 37 37 36 36 36 37 36 36 35 35 35 37 37
25 27 25 23 50 44 56 59 53 49 48 49 51 49 49 46 42 41 42 37 38 37 39 37 40 40 42 43 42 41 40 40 40 40 39 39 39 39 38 39 37 38 39
29 28 16 19 22 24 38 55 50 52 46 51 48 51 49 47 45 50 45 44 39 39 38 41 43 43 45 47 46 45 41 43 43 43 43 41 41 40 41 40 40 39 40
39 37 32 20 18 15 32 34 30 33 41 43 45 46 52 54 51 39 45 40 35 42 46 45 47 39 42 47 48 48 44 44 44 43 44 44 42 42 43 43 40 41 42
33 28 30 33 25 19 31 39 40 43 38 47 46 42 40 37 40 41 34 31 33 36 35 40 41 42 37 38 40 44 47 46 45 44 45 46 46 43 42 42 44 47 50
40 32 31 25 25 23 26 23 21 26 44 44 36 33 34 38 42 37 41 36 40 34 42 46 47 40 38 39 38 38 37 38 41 45 45 44 44 45 44 45 49 51 52
31 25 27 26 23 21 21 13 13 12 18 41 41 33 40 39 40 46 47 46 31 39 46 47 43 48 34 35 44 49 45 39 38 40 42 42 43 42 44 45 48 48 47
18 15 14 13 12 12 11 20 17 20 13 26 25 32 18 29 27 32 42 44 45 43 37 31 28 28 31 33 33 41 42 38 36 37 40 45 46 45 46 43 44 46 44

GFSSE_500_spd_099.txt.gz
Wind_Speed
35 32 32 29 25 22 22 20 19 18 16 14 13 13 14 12 9 7 5 3 2 1 2 2 3 2 1 2 3 4 4 3 1 1 3 5 8 10 11 12 13 13 14
38 35 33 30 27 26 25 23 21 21 18 16 14 14 15 14 11 9 7 5 4 3 2 2 2 2 1 2 3 4 4 3 1 1 3 6 9 10 11 11 11 12 13
39 37 35 30 28 27 26 25 24 23 21 18 16 16 16 15 13 11 9 7 5 4 3 3 3 2 2 2 3 4 4 3 1 1 4 7 9 10 10 11 11 12 13
42 40 36 33 31 29 28 27 26 26 23 21 19 18 17 15 14 12 10 8 6 5 5 4 3 3 3 3 3 4 4 3 1 1 4 7 9 10 10 10 10 11 12
46 42 39 36 33 32 30 28 28 28 25 23 21 20 19 16 15 13 11 10 8 7 6 6 5 4 4 4 4 4 4 3 2 2 5 8 10 10 10 10 10 11 12
50 46 43 39 36 33 32 30 29 29 27 25 24 23 21 17 16 14 13 11 10 8 7 7 7 6 5 6 6 6 6 4 3 4 6 9 10 10 10 11 12 13 14
52 49 46 44 39 36 34 32 32 31 29 27 26 24 22 20 17 16 14 12 11 10 9 8 8 8 7 7 8 8 8 7 6 6 7 9 11 12 11 12 13 14 16
55 51 48 47 43 39 37 35 34 33 31 29 27 25 22 22 19 18 16 13 13 13 11 10 10 9 9 8 9 10 9 9 8 8 9 11 12 13 12 13 13 15 16
58 55 52 49 46 44 40 38 36 36 34 32 29 27 24 23 21 20 19 16 16 15 14 12 11 11 10 9 10 11 11 11 10 10 10 12 13 13 13 13 14 15 17
51 60 54 55 50 47 44 41 39 38 36 33 31 29 27 26 25 23 21 20 18 17 16 15 13 13 12 12 12 13 13 14 13 13 13 14 14 14 15 15 16 17 18
60 60 57 59 56 51 48 45 43 40 39 37 34 32 30 29 27 26 24 23 21 20 19 18 16 15 14 14 14 15 16 16 16 16 15 15 16 17 18 18 18 19 20
49 45 44 63 60 57 51 48 46 43 41 39 36 34 32 30 29 28 26 25 24 23 21 20 19 17 17 17 17 17 18 19 19 19 19 18 18 19 20 21 21 21 22
69 55 57 65 63 59 55 51 48 46 43 40 39 37 34 32 32 30 28 27 26 25 23 23 21 20 19 19 19 20 20 21 22 22 21 21 21 22 22 22 23 23 24
43 48 52 53 63 62 59 54 50 48 45 43 40 38 35 34 32 31 30 30 29 27 26 25 23 22 22 21 21 22 22 23 24 24 24 24 24 24 25 26 26 26 27
58 57 44 50 53 68 61 56 53 50 47 44 42 40 38 36 34 34 34 32 31 29 27 27 25 24 24 23 24 24 24 25 25 26 27 26 26 26 28 29 29 30 30
56 37 46 57 56 74 63 59 54 52 49 46 43 41 39 38 36 37 36 35 34 32 29 28 27 26 26 25 26 26 26 26 27 28 28 28 29 29 30 30 30 32 33
61 41 48 40 49 69 63 59 57 54 50 46 44 42 41 39 38 39 38 37 36 33 31 29 28 30 29 29 29 29 28 28 29 31 31 32 32 33 33 33 35 36 37
56 38 40 32 41 67 67 65 61 54 49 46 46 43 43 41 42 42 41 39 37 35 31 31 34 36 32 32 32 32 32 32 33 35 35 35 35 35 36 37 37 38 39
61 46 40 27 31 58 57 67 60 56 52 49 49 46 45 44 43 43 43 40 40 37 34 39 41 35 36 35 34 35 35 35 37 38 39 39 39 38 40 39 40 38 40
73 54 44 29 22 35 40 54 63 63 59 55 51 50 49 46 46 46 46 45 40 40 39 41 41 36 39 39 38 38 37 39 40 41 41 41 41 41 42 43 42 41 44
50 56 23 22 21 40 41 50 64 65 63 59 53 51 51 51 49 52 45 45 40 41 44 48 42 40 40 41 41 43 42 43 43 44 43 42 42 42 42 43 44 43 45
38 31 35 10 28 30 42 33 57 61 63 62 61 56 51 51 48 51 45 47 42 48 51 52 47 39 40 43 38 42 41 42 41 42 43 44 43 43 43 44 45 45 44
27 26 30 26 18 23 31 26 20 42 60 62 59 54 47 46 50 50 46 44 46 49 41 37 36 37 37 38 37 39 39 40 36 34 38 42 44 45 45 45 45 45 47
37 32 29 29 28 27 19 20 29 36 41 38 38 42 43 42 45 45 45 47 50 48 40 35 40 42 45 49 44 43 41 40 37 37 38 39 42 39 41 43 44 44 43
35 29 29 28 32 29 23 16 18 30 38 33 36 42 43 48 48 43 43 42 39 40 42 38 35 38 42 45 47 41 42 42 43 43 47 45 37 38 39 42 45 46 47
42 44 35 33 29 25 30 21 24 18 19 13 28 50 46 48 41 33 34 39 41 45 52 48 41 42 45 36 28 27 29 35 33 37 38 36 35 31 34 40 43 46 46

GFSSE_500_spd_102.txt.gz
Wind_Speed
32 34 32 30 28 25 21 21 19 18 17 16 15 13 13 12 9 9 7 5 4 2 1 2 3 2 1 1 3 4 5 4 2 1 2 5 9 10 10 10 10 11 12
35 36 34 33 30 27 24 23 22 21 19 18 17 15 13 13 11 10 9 7 6 4 2 2 2 1 1 1 3 4 5 4 2 0 2 6 8 9 10 10 10 11 12
36 37 37 34 32 30 26 25 25 23 22 21 19 17 14 14 13 12 11 9 7 5 4 3 3 2 2 2 3 5 5 4 2 0 3 6 9 10 10 10 10 11 12
39 38 38 37 34 33 29 27 27 26 24 23 22 19 17 13 14 13 12 11 8 7 5 5 4 4 3 3 4 5 5 4 3 1 2 5 7 9 9 9 10 10 11
45 41 40 39 37 35 32 30 29 28 27 26 24 22 19 14 15 14 14 12 10 9 7 6 6 5 4 4 4 5 5 5 4 2 3 5 8 9 9 9 9 10 10
47 47 44 42 39 38 36 32 31 30 29 29 26 25 22 16 16 16 15 14 12 11 9 7 7 7 6 5 5 6 7 7 5 3 4 6 9 10 9 8 9 10 11
53 49 48 46 44 40 38 36 33 31 31 30 28 27 24 19 17 18 17 16 14 12 11 9 8 8 8 7 7 8 9 8 6 5 6 7 9 10 9 9 10 11 12
58 52 52 49 47 44 41 39 35 34 32 32 31 30 27 22 20 19 19 18 16 15 13 11 10 10 10 9 9 10 10 9 9 8 8 9 10 11 11 10 11 12 13
63 54 54 54 51 48 45 42 39 36 35 34 33 33 29 24 22 22 21 20 18 17 15 14 13 12 11 11 11 11 11 11 11 12 11 12 12 12 12 12 13 14 15
65 58 55 57 56 52 48 45 42 39 38 37 37 35 29 27 26 24 23 21 20 19 17 16 15 14 13 13 13 12 13 13 13 14 14 14 14 14 14 14 14 15 17
68 64 59 58 60 58 52 48 45 42 40 39 38 37 34 31 28 27 25 23 21 20 19 19 17 17 15 15 15 14 15 16 16 16 16 16 16 16 17 17 18 18 19
67 65 52 80 65 60 58 52 48 45 43 42 40 39 36 32 29 27 25 24 23 22 22 21 20 19 18 17 17 17 17 18 18 19 19 19 19 20 20 20 20 21 22
71 72 79 59 41 66 62 59 51 48 46 44 42 40 37 34 31 29 27 26 25 24 24 24 22 21 21 20 20 20 20 19 20 21 21 22 21 22 23 23 23 24 24
76 74 75 65 67 76 57 61 53 50 49 47 45 44 39 36 33 33 31 29 27 27 27 26 25 24 23 22 22 22 22 22 21 22 23 23 24 25 26 26 26 27 28
85 90 72 53 45 61 60 60 56 55 52 48 47 45 41 37 37 35 33 31 30 29 29 28 29 27 26 25 25 24 24 23 23 24 25 25 25 27 28 29 31 30 29
79 84 67 61 69 58 45 66 61 59 55 51 49 45 42 41 38 36 34 33 32 32 31 31 31 29 29 29 25 25 25 25 25 25 26 27 27 28 29 30 33 34 34
62 82 75 50 44 34 66 68 62 59 57 51 48 46 44 42 40 38 36 35 35 35 34 33 33 31 31 28 25 32 27 26 26 28 29 28 30 29 31 32 34 36 37
34 66 76 44 50 40 37 33 64 61 54 54 52 49 45 43 41 40 39 39 39 38 36 35 34 32 32 28 31 34 30 29 29 30 31 31 31 33 34 35 36 38 41
30 56 80 54 52 39 37 35 39 46 57 56 54 52 48 45 43 42 41 42 40 40 40 37 35 37 36 35 38 37 33 34 32 34 34 35 34 35 36 38 39 41 42
26 33 70 63 31 40 37 47 51 43 40 49 58 55 51 49 46 45 45 45 43 43 41 38 36 38 40 44 36 37 36 37 38 36 37 38 37 37 39 40 41 42 44
16 18 64 45 28 38 32 35 49 64 66 51 50 53 55 53 52 51 48 48 45 44 41 45 35 41 41 42 41 40 40 39 40 43 43 42 41 41 40 42 43 43 43
20 17 29 53 44 18 25 29 27 66 64 58 61 59 54 53 53 53 49 48 46 43 46 40 39 43 49 49 45 47 42 40 39 37 40 39 38 39 41 44 46 45 44
21 21 24 45 51 40 26 34 30 32 38 72 62 58 56 58 55 54 54 52 55 51 41 40 48 45 50 50 36 42 42 41 37 37 39 40 38 32 33 37 41 42 39
25 21 19 24 28 18 20 32 30 28 33 28 36 60 63 59 55 62 46 57 51 39 43 44 43 47 53 39 39 33 35 38 42 41 38 40 40 39 44 44 42 37 33
29 19 17 21 26 21 17 27 32 26 28 38 31 22 37 45 51 49 43 47 45 46 44 42 47 46 43 44 37 45 47 45 47 50 45 42 43 41 46 44 39 34 34
29 29 24 21 19 21 26 23 22 20 23 29 39 38 36 37 34 33 35 33 39 42 30 34 31 36 44 48 43 45 41 36 39 38 31 32 35 32 29 32 35 38 39

GFSSE_500_spd_105.txt.gz
Wind_Speed
33 33 30 29 27 26 24 20 17 16 17 16 15 14 12 11 7 8 8 7 5 4 3 2 1 0 2 3 5 7 8 7 5 2 1 4 7 7 7 7 7 8 8
40 34 32 31 29 28 26 24 21 19 19 18 17 15 13 13 9 9 9 8 7 6 4 4 3 2 2 3 5 6 7 7 5 2 1 3 5 6 6 6 6 7 8
34 37 36 34 32 30 29 27 24 21 21 20 19 17 15 13 10 10 11 9 9 8 6 5 4 4 3 3 5 6 7 7 5 3 1 3 5 7 7 7 7 7 8
36 34 39 36 34 31 31 30 28 25 23 22 21 20 18 14 11 13 13 12 10 10 8 6 6 5 4 4 5 6 7 7 5 4 1 3 5 6 7 6 7 8 8
37 42 39 38 36 35 33 32 31 28 26 25 24 22 21 17 14 14 13 13 12 11 10 8 7 7 6 5 6 7 8 8 6 4 2 2 5 7 7 7 7 8 9
35 43 42 42 41 37 35 34 33 32 30 28 26 25 24 19 18 16 15 15 14 13 11 10 8 9 8 7 7 7 9 9 8 6 4 4 5 8 8 8 8 8 9
27 41 45 49 47 42 38 37 36 34 33 31 29 27 27 22 21 19 17 17 16 14 13 12 10 10 9 9 8 8 10 11 10 9 7 6 6 8 8 8 9 10 11
27 32 43 48 51 48 43 41 39 37 35 33 31 30 29 26 23 22 19 19 18 15 15 14 12 12 10 10 10 10 11 12 12 11 9 8 8 8 9 10 10 11 13
32 30 45 52 52 53 49 45 43 40 38 36 34 33 32 28 26 25 22 19 18 17 16 16 14 13 13 11 11 11 12 13 14 14 12 11 11 10 11 11 11 13 14
29 32 36 50 58 56 54 51 46 44 41 39 37 35 34 30 28 27 22 21 20 19 18 18 17 15 15 14 12 12 13 13 16 15 15 15 13 13 13 13 13 14 16
36 31 37 49 57 59 58 56 52 48 45 42 40 38 35 32 30 28 25 23 22 21 21 20 19 18 17 16 15 14 14 14 17 17 17 17 17 16 16 16 16 17 18
41 40 36 49 58 62 61 59 57 53 49 46 43 40 37 36 32 30 27 25 24 23 22 21 21 21 20 19 18 18 17 17 18 18 20 20 20 19 20 20 19 19 20
47 44 42 42 39 60 63 66 60 59 53 50 46 42 41 38 33 31 29 27 26 25 24 23 23 24 23 22 21 21 20 19 20 20 21 22 23 23 22 23 23 23 22
56 52 45 50 60 71 52 64 68 62 54 52 49 46 43 39 36 32 31 29 28 27 25 26 26 26 25 25 24 23 22 22 21 22 21 24 24 24 25 25 25 25 26
60 58 56 49 59 65 57 55 67 65 61 55 51 47 44 41 39 36 34 31 29 28 28 28 28 28 27 27 26 26 25 23 23 24 23 24 25 26 27 28 28 27 28
61 61 56 52 63 71 52 55 58 62 57 55 53 44 48 41 42 39 35 34 32 31 31 31 30 30 30 30 29 28 26 21 24 26 25 25 26 27 29 29 30 31 32
61 61 55 57 67 78 78 49 60 61 64 68 58 54 41 42 42 41 39 38 36 34 34 34 33 32 33 32 31 31 28 24 26 30 27 27 27 28 30 32 33 35 36
59 52 50 58 64 75 91 46 52 61 78 73 66 57 46 46 45 45 42 41 39 37 37 36 35 35 35 35 34 33 30 28 27 34 28 29 28 31 32 34 36 37 39
51 44 42 48 47 69 81 61 52 63 75 66 61 57 50 51 47 46 44 43 41 39 39 38 38 38 38 36 35 31 35 32 37 35 34 33 31 34 34 36 39 40 41
47 37 35 35 35 61 64 44 40 38 53 66 62 57 55 52 50 49 47 45 43 43 41 41 41 41 41 38 37 34 37 43 42 38 35 34 37 38 41 42 42 42 45
47 36 33 32 30 55 59 33 27 31 30 54 67 62 60 59 57 54 51 49 47 47 45 44 44 42 41 40 42 37 40 42 38 41 39 39 40 43 44 41 41 43 44
40 34 21 24 22 54 62 39 32 29 33 33 34 55 57 60 60 57 55 53 52 50 50 48 44 42 40 47 51 39 43 44 43 42 48 45 40 37 37 38 38 35 32
31 18 17 17 20 41 52 21 27 32 34 37 39 39 52 60 58 60 59 56 55 52 52 51 50 52 47 53 49 47 48 46 45 39 45 44 42 40 41 40 39 36 38
38 27 26 20 20 37 40 48 25 31 32 41 44 38 42 49 48 51 55 59 59 56 55 45 51 42 42 43 39 46 48 43 38 43 38 40 38 39 40 44 45 44 47
30 31 23 27 25 37 33 41 38 39 29 30 43 41 33 36 50 53 45 43 47 39 28 34 36 36 38 39 41 38 40 38 40 37 42 46 49 47 48 47 44 43 43
24 30 28 26 31 28 25 21 31 37 30 31 26 29 25 27 34 28 36 33 34 38 42 45 29 33 39 34 38 36 38 42 42 44 46 42 38 42 28 22 26 28 30

GFSSE_500_spd_108.txt.gz
Wind_Speed
36 30 30 28 27 26 24 20 18 16 14 13 12 12 12 10 8 8 7 7 6 5 5 5 4 3 2 4 6 8 9 8 6 4 2 1 4 5 5 5 5 6 6
40 31 33 30 29 27 27 24 20 19 18 16 14 14 13 12 9 10 9 9 8 6 6 5 5 4 3 3 5 7 9 8 7 5 2 2 4 5 5 5 5 6 7
33 36 31 33 30 30 28 27 24 22 21 18 17 16 15 14 10 12 11 11 11 8 7 6 5 5 4 3 5 7 9 9 8 6 3 3 3 5 6 6 6 6 7
27 34 35 39 37 33 31 29 27 25 24 22 20 19 18 16 13 13 12 12 12 10 8 7 6 6 5 4 6 8 9 10 8 6 4 2 3 6 7 6 6 7 8
23 34 33 31 37 38 36 32 31 28 26 25 23 22 20 19 16 14 14 14 14 12 10 9 7 7 6 5 6 8 9 10 9 8 6 4 4 6 7 7 7 8 9
22 28 33 33 37 42 40 37 34 31 29 28 26 25 23 21 19 17 16 15 14 13 12 11 9 7 8 7 7 8 9 10 11 9 8 6 6 7 8 7 7 8 9
26 24 27 37 37 43 42 41 39 34 32 30 30 28 26 23 22 20 19 17 15 15 14 13 11 9 9 8 8 9 9 12 13 12 10 9 8 8 9 8 8 9 10
28 27 23 27 38 45 49 45 42 40 35 33 32 31 29 26 25 22 21 19 17 15 15 15 13 11 11 10 10 11 10 12 14 14 13 12 11 10 9 9 9 10 11
31 31 27 24 30 43 51 50 48 44 41 37 36 35 31 29 28 25 24 22 19 18 17 17 15 14 13 13 12 11 12 12 14 15 15 15 14 13 12 12 12 12 13
34 34 32 31 28 38 44 51 52 48 46 41 39 38 34 32 30 28 26 25 22 20 19 18 18 17 15 15 15 13 14 14 15 16 17 17 17 17 16 16 15 15 16
37 35 32 29 31 30 43 48 53 53 49 46 42 41 38 34 33 31 27 26 24 22 22 21 20 19 18 17 17 17 16 17 15 18 18 19 19 19 19 19 19 19 20
45 37 37 34 33 31 32 45 54 54 55 51 47 43 42 39 36 34 29 28 27 25 24 23 22 21 21 20 19 19 20 20 19 19 20 21 22 22 21 22 22 23 23
47 43 41 41 38 32 30 38 48 60 57 55 52 47 45 43 39 36 32 30 29 28 26 25 24 24 23 22 22 21 22 22 23 22 22 22 22 24 24 25 25 26 25
52 45 48 46 43 38 32 39 43 59 61 57 55 51 49 47 42 38 34 32 32 30 28 27 27 26 25 24 23 23 23 24 25 25 24 23 24 25 26 26 26 27 28
59 48 49 50 46 42 39 39 45 52 64 60 62 57 52 50 45 41 37 35 35 32 31 31 30 28 27 27 26 26 26 26 27 25 24 24 25 27 27 28 27 28 30
62 52 50 51 49 46 43 40 45 50 62 64 65 60 54 52 48 44 36 39 37 35 35 35 32 30 30 30 28 28 28 29 28 27 25 23 27 29 27 29 29 30 31
63 54 56 55 50 50 48 43 44 58 56 60 63 59 61 55 52 47 49 43 42 39 38 37 34 33 33 32 31 30 30 30 30 30 28 27 30 32 30 31 32 33 35
62 55 58 58 55 53 50 47 46 60 58 67 67 66 63 60 55 51 51 43 43 41 41 38 37 36 35 34 34 33 32 33 33 31 31 28 32 35 33 34 35 36 37
63 59 61 58 55 54 52 51 47 56 53 60 56 60 44 59 63 53 54 44 46 43 42 40 39 38 37 37 37 36 35 35 34 33 35 34 36 41 40 40 39 39 41
63 60 62 57 55 55 53 51 50 58 70 54 68 63 60 55 51 54 53 46 48 45 43 41 41 41 41 40 40 39 38 38 36 35 38 45 49 44 43 45 44 43 45
65 63 59 54 49 48 48 46 54 51 66 61 57 64 61 71 67 67 67 52 48 46 46 46 44 44 44 45 43 43 43 41 43 44 44 47 43 42 44 45 45 44 45
65 62 57 45 38 36 36 40 36 37 61 75 60 60 77 77 72 63 58 56 50 50 49 48 48 49 49 49 48 48 47 48 46 51 53 49 48 47 46 52 48 44 39
61 52 44 39 33 32 34 35 38 32 42 57 57 45 48 74 74 64 57 58 56 55 55 53 53 53 55 55 51 50 50 51 56 55 52 48 50 51 45 44 47 46 44
40 38 38 33 29 33 28 31 45 33 36 48 41 32 38 55 69 68 63 62 63 59 51 52 59 57 54 57 57 61 51 36 41 46 48 50 47 44 44 40 43 44 45
35 39 32 32 26 30 30 24 40 29 38 34 33 35 38 36 33 35 56 63 59 57 59 59 49 48 40 39 34 32 33 38 41 42 42 41 46 42 39 41 44 49 51
31 40 29 31 27 31 34 37 35 44 29 30 35 35 36 34 35 32 31 39 44 40 39 41 44 40 40 37 33 35 50 53 46 53 50 46 45 43 43 45 40 35 35

GFSSE_500_spd_111.txt.gz
Wind_Speed
42 37 31 31 29 28 25 21 18 15 13 11 9 9 8 8 8 8 7 6 7 6 5 3 5 4 4 4 7 9 10 9 7 5 4 4 5 5 7 7 7 7 7
34 39 36 33 32 30 29 26 22 19 17 14 13 11 10 9 8 9 8 9 7 9 6 5 4 5 4 4 5 7 9 9 7 6 5 4 5 6 7 7 7 8 8
23 31 37 36 35 32 30 29 27 23 21 18 16 14 12 12 10 11 10 10 9 9 8 5 5 5 6 5 5 7 9 10 9 7 6 4 5 6 8 9 8 8 9
19 22 30 39 38 36 32 30 29 26 24 22 19 17 15 14 13 12 12 12 11 10 10 7 5 5 7 8 6 7 8 9 10 8 6 5 5 7 8 9 8 7 8
24 23 25 33 40 40 37 32 31 30 27 25 23 21 18 17 15 15 14 12 12 11 11 9 6 4 6 8 8 7 8 10 10 10 8 7 6 7 8 9 9 8 9
29 27 26 28 36 43 40 37 33 31 31 28 27 24 23 20 18 17 16 14 14 13 12 11 9 7 5 8 8 8 9 10 12 12 11 9 8 9 9 9 9 9 10
32 30 26 26 36 35 43 41 39 35 34 33 30 27 26 24 22 20 18 17 16 15 13 12 11 10 7 8 8 9 9 11 13 14 13 13 12 11 10 10 9 9 11
35 32 28 25 27 36 35 39 43 40 37 36 35 32 28 28 26 24 21 20 18 17 17 14 13 12 11 9 9 10 10 11 13 15 16 16 15 14 13 12 12 11 12
36 34 29 26 27 27 35 38 42 44 41 39 38 36 33 30 29 27 24 22 21 20 19 17 16 14 14 12 11 11 11 11 13 15 17 18 18 17 16 16 15 15 16
36 39 36 30 31 31 30 35 41 45 46 44 41 40 38 33 31 30 27 25 24 23 22 20 18 17 16 15 14 13 13 13 14 15 17 19 20 20 20 19 19 19 20
42 37 38 36 35 35 34 32 35 43 47 47 45 41 42 37 32 32 30 28 28 26 24 22 21 20 20 19 17 16 16 16 16 17 18 20 21 22 23 22 22 23 24
45 43 39 38 35 33 33 34 32 34 42 49 48 46 44 41 38 35 34 32 30 28 26 26 24 24 23 21 20 19 19 18 19 19 20 22 23 24 25 25 24 25 26
48 47 45 40 33 32 30 30 32 32 36 41 48 49 48 44 43 40 36 34 32 31 28 30 27 27 25 24 22 21 21 21 21 22 23 23 24 25 26 26 26 27 28
51 50 48 48 47 39 38 37 36 34 33 40 45 51 52 47 47 44 39 37 35 35 32 31 30 30 28 25 24 23 24 25 24 25 25 25 26 26 26 26 28 29 28
53 51 49 46 47 43 40 40 39 38 35 29 41 49 55 52 48 48 44 40 39 38 37 34 35 34 30 28 27 26 26 26 26 27 27 27 28 28 27 27 28 31 30
57 53 52 48 47 44 42 42 40 40 39 38 31 41 51 55 54 52 48 43 43 43 39 39 38 36 33 31 29 29 28 28 29 29 28 29 30 30 29 29 29 33 33
63 61 58 55 49 46 47 46 43 43 42 38 38 36 45 50 59 55 51 47 46 48 43 44 41 39 37 35 33 32 31 30 31 31 31 31 32 33 31 31 33 37 39
66 66 63 60 51 49 49 46 45 45 41 40 41 39 39 46 52 58 56 50 51 48 45 45 46 43 40 38 36 35 34 33 33 34 33 33 33 35 36 36 41 44 41
69 67 67 64 57 51 51 47 46 46 45 43 42 40 39 46 49 53 59 59 56 55 49 52 52 48 43 41 39 37 36 36 37 36 36 36 36 37 40 44 47 49 49
67 67 69 68 61 54 55 49 47 47 48 45 43 42 44 52 55 52 58 66 64 48 50 57 49 49 44 43 41 40 40 40 40 39 39 40 40 42 46 49 51 53 54
67 66 65 62 60 53 57 53 51 50 50 47 44 45 45 54 61 63 57 56 58 62 51 57 54 47 43 46 45 45 44 46 43 43 43 45 47 49 52 52 54 54 52
67 65 64 60 57 55 59 52 50 50 51 47 46 47 47 49 53 67 46 55 68 62 71 64 49 49 47 48 50 49 48 50 46 47 46 50 52 51 54 57 60 57 56
66 66 64 62 59 60 54 50 48 47 48 44 46 44 50 59 56 61 48 53 55 62 55 56 53 50 50 55 54 52 50 52 51 51 53 56 54 60 61 61 60 57 55
71 69 67 63 62 58 53 48 46 43 44 41 40 42 53 59 56 55 50 51 72 68 65 65 66 65 57 60 58 61 56 57 56 57 54 45 45 43 46 45 49 52 47
65 64 62 58 54 50 41 35 37 36 35 28 24 36 39 51 64 62 59 55 67 63 65 67 60 58 64 62 60 58 54 40 35 35 35 39 42 47 48 47 48 45 47
38 43 50 53 32 33 33 32 28 29 32 29 29 29 33 38 47 51 61 43 56 72 81 48 41 45 37 39 43 43 41 38 40 45 48 51 47 48 52 52 50 48 50

GFSSE_500_spd_114.txt.gz
Wind_Speed
27 34 34 31 30 27 26 23 20 17 14 12 9 9 8 6 4 6 5 3 2 3 4 4 5 6 6 4 4 7 8 8 7 4 4 5 7 7 8 9 9 8 8
19 25 33 36 35 32 29 27 24 21 17 15 13 11 10 8 6 6 7 5 4 4 4 4 4 6 7 5 4 6 8 9 8 6 5 5 6 6 8 10 10 9 8
19 20 25 33 37 37 33 30 28 25 22 18 17 14 13 11 8 7 8 7 6 5 6 6 4 4 6 6 5 5 7 9 9 8 7 5 5 6 9 10 10 9 8
22 21 21 27 34 39 39 34 30 28 24 22 20 18 16 14 12 10 9 8 8 7 7 7 7 3 4 6 5 6 6 8 9 9 8 7 7 7 9 10 11 10 10
26 25 24 22 30 36 41 40 35 31 28 25 23 22 19 17 16 13 11 10 10 9 9 8 9 6 3 6 6 5 6 7 8 10 10 8 8 8 10 10 11 10 10
29 28 27 24 22 32 39 43 40 36 32 28 26 25 23 21 20 19 14 13 12 10 11 10 10 9 6 5 7 6 7 8 9 11 11 11 10 10 10 10 11 11 11
32 30 28 26 23 24 34 40 42 38 36 31 29 27 27 25 23 23 18 16 15 14 13 12 12 12 9 6 7 7 6 8 10 12 13 13 13 13 13 13 12 12 12
35 33 31 27 26 24 27 34 42 40 38 35 32 30 29 28 27 25 21 18 18 17 16 15 14 13 13 10 9 8 8 8 10 12 13 15 16 16 16 16 16 16 15
38 37 34 31 29 28 25 29 34 39 42 39 36 35 31 29 30 29 25 22 20 20 19 17 17 16 16 14 13 11 10 10 11 12 14 15 16 18 18 19 19 19 19
40 38 36 33 34 28 28 26 31 36 38 41 42 40 37 33 31 32 29 26 23 22 22 20 20 20 19 18 17 15 13 13 13 13 14 16 17 19 20 21 22 22 23
46 40 37 36 36 34 36 33 30 29 34 40 42 42 40 37 35 33 33 30 27 25 24 24 23 23 23 21 20 18 17 16 16 17 17 18 19 20 21 22 23 24 25
48 47 44 41 39 38 38 36 34 34 31 35 40 43 43 41 39 38 36 34 32 29 26 26 26 25 25 24 23 22 20 20 19 19 20 21 22 22 23 23 24 26 26
50 49 48 45 40 39 40 39 38 36 37 32 33 40 43 43 41 40 40 37 35 33 31 29 28 27 28 27 27 26 24 22 22 22 23 23 24 25 25 26 26 26 27
54 52 51 50 45 41 38 38 35 33 36 35 32 31 35 41 45 45 43 40 39 37 36 32 30 30 31 30 29 27 27 26 24 24 25 26 27 27 27 27 27 27 28
57 56 54 53 51 47 43 40 38 37 36 34 32 31 30 34 40 46 46 45 44 40 39 37 33 33 34 33 32 31 30 29 28 27 27 28 29 29 29 29 29 29 28
61 59 59 56 55 51 49 47 44 41 40 39 37 33 31 34 36 45 46 48 47 44 42 41 38 36 37 36 36 34 33 32 31 30 29 30 31 31 31 31 33 32 33
64 62 60 59 56 55 51 50 47 45 43 41 38 38 36 37 33 37 46 50 49 49 48 47 43 39 41 39 38 37 36 35 35 34 33 33 33 34 33 34 36 37 39
68 64 63 61 59 57 55 52 50 48 48 44 42 41 40 39 41 36 40 48 53 53 54 52 47 44 44 43 42 41 39 38 38 38 37 37 36 36 36 37 40 39 43
68 68 66 64 61 61 60 57 55 54 53 48 45 44 44 43 42 40 39 45 51 52 58 54 51 48 47 48 47 44 43 42 41 40 40 39 38 39 39 41 44 45 47
67 69 70 69 66 64 61 58 55 57 54 52 48 45 46 45 44 43 38 43 41 48 60 56 52 50 52 51 50 48 47 45 44 44 41 40 42 44 43 45 47 49 50
64 68 69 70 70 68 63 59 56 54 54 53 51 48 48 46 49 43 42 39 44 55 57 59 61 62 57 50 51 49 49 48 47 45 43 43 43 45 46 49 50 51 52
67 67 68 67 68 68 65 58 57 55 57 55 53 50 50 49 48 48 46 49 53 51 61 61 56 55 52 53 53 56 56 50 46 47 45 46 47 47 52 55 55 57 57
66 69 70 67 66 64 62 59 55 54 55 49 52 53 53 52 51 51 48 52 55 51 51 58 59 56 67 69 58 57 51 50 49 51 50 49 50 51 57 58 56 61 64
65 66 67 67 66 63 60 56 53 50 49 47 51 52 51 49 51 50 48 50 51 53 60 67 64 67 60 62 64 69 59 58 53 54 56 58 63 62 61 60 47 44 47
59 64 63 63 62 61 57 52 51 49 47 44 44 48 44 46 47 46 47 46 49 43 38 45 45 54 58 57 61 62 69 63 61 60 52 53 45 39 41 41 44 48 48
45 50 58 58 55 52 50 46 46 45 43 41 41 41 37 40 37 28 37 47 51 57 50 40 46 48 55 59 65 59 46 37 40 40 39 37 39 43 46 49 51 51 50

GFSSE_500_spd_117.txt.gz
Wind_Speed
15 19 29 30 28 26 23 21 19 17 15 13 11 9 9 7 5 3 1 2 1 2 3 4 5 8 8 6 3 5 7 7 6 5 4 5 6 6 8 10 11 11 10
13 14 19 29 33 31 28 24 23 20 18 16 13 12 11 10 8 7 3 3 2 1 1 2 2 5 7 7 5 3 6 8 8 7 6 5 6 6 8 11 12 11 10
19 17 15 18 29 36 33 30 27 24 22 19 17 15 13 13 11 10 7 4 6 4 4 2 1 1 5 7 6 4 4 7 8 8 7 6 6 6 8 10 11 11 9
21 20 18 18 18 28 37 36 33 30 27 24 21 18 16 15 15 12 11 7 6 7 6 5 3 2 1 4 6 5 4 5 8 8 7 8 8 8 8 9 11 11 10
24 23 23 21 19 19 27 36 36 33 30 28 25 22 20 18 17 16 13 10 8 7 9 8 6 4 3 2 4 5 5 5 6 8 9 10 10 10 10 11 12 12 10
28 27 25 23 20 20 19 25 35 37 36 32 28 25 23 22 20 17 14 14 12 9 9 10 8 7 6 4 4 5 5 6 6 8 10 12 13 12 12 12 13 12 12
32 30 28 27 23 21 20 20 26 35 39 36 33 29 26 24 22 19 18 15 16 14 12 11 11 10 10 9 6 6 7 8 8 9 11 13 14 14 15 15 15 15 15
36 33 30 29 27 24 23 22 23 26 35 38 35 32 29 27 25 22 19 19 17 18 16 15 13 13 13 13 11 9 8 9 10 11 12 14 15 16 17 18 17 18 18
40 36 33 32 31 28 26 26 25 25 27 36 36 34 32 29 28 26 24 22 21 19 19 18 17 15 15 16 15 14 12 11 12 13 13 14 15 17 18 19 19 20 21
43 41 38 34 34 31 31 28 27 27 27 28 34 38 35 33 31 29 27 25 24 24 22 20 19 20 18 18 18 17 17 15 14 15 16 16 17 18 19 20 21 22 23
47 45 43 37 37 35 32 30 28 33 30 31 32 34 36 38 37 35 32 30 27 26 25 24 22 23 23 20 21 20 20 19 18 18 18 19 20 20 21 22 23 23 24
50 48 47 45 41 37 38 34 35 36 33 31 31 32 35 37 38 40 37 34 32 29 28 27 26 25 24 25 23 22 22 22 22 22 21 22 23 23 24 24 24 25 26
51 52 51 50 46 43 39 39 39 39 37 36 33 31 30 34 39 40 40 37 35 35 32 30 29 28 26 26 25 25 25 25 25 25 25 25 26 26 26 26 26 27 27
54 54 54 54 51 48 48 43 43 42 40 37 36 33 31 31 33 37 39 40 39 38 37 35 33 31 29 28 29 28 29 28 28 28 28 28 28 29 29 29 29 29 29
55 57 55 55 55 51 49 46 45 42 40 40 35 32 32 33 29 31 36 41 43 42 40 39 38 36 34 31 30 32 32 31 30 30 31 31 31 32 31 31 32 32 32
57 59 59 56 58 57 55 51 48 46 41 39 35 33 33 31 31 32 33 37 38 43 44 43 41 41 38 35 34 35 34 34 34 33 32 33 34 34 33 34 34 34 35
56 60 61 62 60 60 58 58 53 51 46 45 41 40 40 37 35 33 32 33 37 40 45 44 46 44 42 40 37 37 36 37 37 36 36 36 36 36 35 36 37 37 36
61 59 62 65 64 62 62 60 59 57 54 51 47 44 43 40 39 39 36 36 35 37 41 47 47 48 47 46 44 40 41 39 39 39 39 40 39 39 39 39 39 39 40
65 62 61 65 67 66 63 63 63 62 59 57 53 51 48 46 45 42 41 40 41 39 42 42 46 47 55 54 48 47 43 42 41 42 43 42 42 42 42 42 42 42 41
66 63 62 64 67 70 67 65 65 64 62 59 56 55 52 51 50 47 45 44 45 43 43 44 48 49 46 41 51 51 45 45 47 45 43 45 46 46 45 43 43 43 45
63 63 63 64 64 67 71 67 64 63 62 61 59 58 54 53 52 50 49 48 46 46 44 44 42 44 47 49 56 54 54 50 47 49 50 48 49 49 47 45 45 44 49
66 64 65 64 65 66 68 71 66 64 64 62 58 58 57 54 52 50 48 48 48 47 49 45 43 46 51 55 53 55 56 56 53 51 51 51 52 50 47 48 47 50 55
61 64 66 67 64 66 66 66 68 67 64 61 59 57 56 55 52 49 51 52 51 51 53 50 47 48 49 53 59 56 60 60 58 54 52 56 55 54 51 56 59 56 56
54 58 60 62 62 63 64 65 64 63 62 59 59 58 57 57 53 53 53 54 56 55 53 54 54 56 59 51 51 51 51 52 59 62 61 56 53 63 62 61 57 56 54
40 45 53 59 58 61 61 59 59 55 53 54 55 55 58 55 51 51 54 56 55 53 55 53 53 53 58 54 55 55 58 55 66 62 64 65 60 44 45 44 44 37 36
36 42 43 48 50 53 54 53 52 50 49 48 48 48 49 49 47 49 50 48 48 50 50 52 50 48 41 38 41 38 38 45 48 30 30 31 34 38 39 42 38 38 42